<?xml version="1.0" encoding="UTF-8" standalone="no" ?>
<gpx xmlns="http://www.topografix.com/GPX/1/1" xmlns:xsi="http://www.w3.org/2001/XMLSchema-instance" xsi:schemaLocation="http://www.topografix.com/GPX/1/1 http://www.topografix.com/GPX/1/1/gpx.xsd" version="1.1" creator="VisuGPX - https://www.visugpx.com">
  <metadata>
    <name>Gigean Massif de la Gardiole</name>
    <desc><![CDATA[  Dimanche 10 Mars
Massif de la Gardoise commune de Sigean
Parcours de 16km600 Dn200 cumul montées 987m
Une randonnée Magnifique , Classée trois c%u0153urs par randonnée cévenole.fr    vous   trouverez le tracé effectué sur le terrain, sur openrunner-wikilos-cacullitinéraires-visugpx. Pour le résumé de la randonnée, je vous envoie sur le site de randonnée.cevenole.free  où celui-ci  est formidablement très bien décrit
http://randonnee.cevenole.free.fr/index.php5?vue=topo&modele=Gardiole
 Bonne Rando
]]></desc>
  </metadata>
  <trk>
    <name><![CDATA[Gigean Massif de la Gardiole]]></name>
    <trkseg>
      <trkpt lat="43.4871" lon="3.727">
        <ele>149</ele>
        <time>2013-03-10T08:28:52Z</time>
      </trkpt>
      <trkpt lat="43.48712" lon="3.72697">
        <ele>152.1</ele>
        <time>2013-03-10T08:28:54Z</time>
      </trkpt>
      <trkpt lat="43.48718" lon="3.72707">
        <ele>149.4</ele>
        <time>2013-03-10T08:32:16Z</time>
      </trkpt>
      <trkpt lat="43.48722" lon="3.72704">
        <ele>148.3</ele>
        <time>2013-03-10T08:32:44Z</time>
      </trkpt>
      <trkpt lat="43.48718" lon="3.72693">
        <ele>149.7</ele>
        <time>2013-03-10T08:32:56Z</time>
      </trkpt>
      <trkpt lat="43.48718" lon="3.72681">
        <ele>150.3</ele>
        <time>2013-03-10T08:33:29Z</time>
      </trkpt>
      <trkpt lat="43.48719" lon="3.72681">
        <ele>150.5</ele>
        <time>2013-03-10T08:33:30Z</time>
      </trkpt>
      <trkpt lat="43.48727" lon="3.72676">
        <ele>150.1</ele>
        <time>2013-03-10T08:36:15Z</time>
      </trkpt>
      <trkpt lat="43.48741" lon="3.72663">
        <ele>149.6</ele>
        <time>2013-03-10T08:36:40Z</time>
      </trkpt>
      <trkpt lat="43.48748" lon="3.72656">
        <ele>149.3</ele>
        <time>2013-03-10T08:36:50Z</time>
      </trkpt>
      <trkpt lat="43.48751" lon="3.72645">
        <ele>150.4</ele>
        <time>2013-03-10T08:37:05Z</time>
      </trkpt>
      <trkpt lat="43.48744" lon="3.72641">
        <ele>153.2</ele>
        <time>2013-03-10T08:37:26Z</time>
      </trkpt>
      <trkpt lat="43.48742" lon="3.72641">
        <ele>153.3</ele>
        <time>2013-03-10T08:37:27Z</time>
      </trkpt>
      <trkpt lat="43.48731" lon="3.72643">
        <ele>154.2</ele>
        <time>2013-03-10T08:38:14Z</time>
      </trkpt>
      <trkpt lat="43.48723" lon="3.72647">
        <ele>153.9</ele>
        <time>2013-03-10T08:38:24Z</time>
      </trkpt>
      <trkpt lat="43.48714" lon="3.72647">
        <ele>155.6</ele>
        <time>2013-03-10T08:38:32Z</time>
      </trkpt>
      <trkpt lat="43.48713" lon="3.72646">
        <ele>156.1</ele>
        <time>2013-03-10T08:38:33Z</time>
      </trkpt>
      <trkpt lat="43.48698" lon="3.72642">
        <ele>154.4</ele>
        <time>2013-03-10T08:38:47Z</time>
      </trkpt>
      <trkpt lat="43.48691" lon="3.72638">
        <ele>154.7</ele>
        <time>2013-03-10T08:38:54Z</time>
      </trkpt>
      <trkpt lat="43.48686" lon="3.72627">
        <ele>154.8</ele>
        <time>2013-03-10T08:39:03Z</time>
      </trkpt>
      <trkpt lat="43.48689" lon="3.72616">
        <ele>154</ele>
        <time>2013-03-10T08:39:23Z</time>
      </trkpt>
      <trkpt lat="43.48697" lon="3.72613">
        <ele>154.4</ele>
        <time>2013-03-10T08:39:32Z</time>
      </trkpt>
      <trkpt lat="43.48706" lon="3.7261">
        <ele>155.6</ele>
        <time>2013-03-10T08:39:44Z</time>
      </trkpt>
      <trkpt lat="43.48706" lon="3.7261">
        <ele>155.8</ele>
        <time>2013-03-10T08:39:45Z</time>
      </trkpt>
      <trkpt lat="43.48724" lon="3.72608">
        <ele>155.8</ele>
        <time>2013-03-10T08:40:09Z</time>
      </trkpt>
      <trkpt lat="43.48727" lon="3.72619">
        <ele>153.9</ele>
        <time>2013-03-10T08:40:29Z</time>
      </trkpt>
      <trkpt lat="43.48718" lon="3.72621">
        <ele>156.6</ele>
        <time>2013-03-10T08:40:53Z</time>
      </trkpt>
      <trkpt lat="43.48718" lon="3.72621">
        <ele>156.9</ele>
        <time>2013-03-10T08:40:54Z</time>
      </trkpt>
      <trkpt lat="43.48727" lon="3.72625">
        <ele>157.2</ele>
        <time>2013-03-10T08:42:30Z</time>
      </trkpt>
      <trkpt lat="43.4874" lon="3.7264">
        <ele>153.3</ele>
        <time>2013-03-10T08:42:57Z</time>
      </trkpt>
      <trkpt lat="43.48748" lon="3.72637">
        <ele>152.9</ele>
        <time>2013-03-10T08:43:09Z</time>
      </trkpt>
      <trkpt lat="43.48755" lon="3.72644">
        <ele>150.2</ele>
        <time>2013-03-10T08:43:21Z</time>
      </trkpt>
      <trkpt lat="43.4875" lon="3.72654">
        <ele>148.4</ele>
        <time>2013-03-10T08:43:30Z</time>
      </trkpt>
      <trkpt lat="43.4875" lon="3.72655">
        <ele>149</ele>
        <time>2013-03-10T08:43:31Z</time>
      </trkpt>
      <trkpt lat="43.48739" lon="3.7267">
        <ele>149.5</ele>
        <time>2013-03-10T08:43:48Z</time>
      </trkpt>
      <trkpt lat="43.48737" lon="3.72682">
        <ele>149.5</ele>
        <time>2013-03-10T08:43:56Z</time>
      </trkpt>
      <trkpt lat="43.48736" lon="3.72693">
        <ele>148.6</ele>
        <time>2013-03-10T08:44:05Z</time>
      </trkpt>
      <trkpt lat="43.48732" lon="3.72704">
        <ele>148.2</ele>
        <time>2013-03-10T08:44:14Z</time>
      </trkpt>
      <trkpt lat="43.48727" lon="3.72714">
        <ele>147.7</ele>
        <time>2013-03-10T08:44:21Z</time>
      </trkpt>
      <trkpt lat="43.48719" lon="3.72718">
        <ele>146.6</ele>
        <time>2013-03-10T08:44:39Z</time>
      </trkpt>
      <trkpt lat="43.48719" lon="3.72719">
        <ele>146.6</ele>
        <time>2013-03-10T08:44:40Z</time>
      </trkpt>
      <trkpt lat="43.48702" lon="3.72721">
        <ele>144.3</ele>
        <time>2013-03-10T08:44:56Z</time>
      </trkpt>
      <trkpt lat="43.48694" lon="3.72723">
        <ele>141.4</ele>
        <time>2013-03-10T08:45:11Z</time>
      </trkpt>
      <trkpt lat="43.48685" lon="3.72727">
        <ele>140</ele>
        <time>2013-03-10T08:45:26Z</time>
      </trkpt>
      <trkpt lat="43.48677" lon="3.72729">
        <ele>140.5</ele>
        <time>2013-03-10T08:45:35Z</time>
      </trkpt>
      <trkpt lat="43.48668" lon="3.7273">
        <ele>138.4</ele>
        <time>2013-03-10T08:45:45Z</time>
      </trkpt>
      <trkpt lat="43.48667" lon="3.7273">
        <ele>137.9</ele>
        <time>2013-03-10T08:45:46Z</time>
      </trkpt>
      <trkpt lat="43.48652" lon="3.72728">
        <ele>135.4</ele>
        <time>2013-03-10T08:46:01Z</time>
      </trkpt>
      <trkpt lat="43.48644" lon="3.7273">
        <ele>134.5</ele>
        <time>2013-03-10T08:46:08Z</time>
      </trkpt>
      <trkpt lat="43.48636" lon="3.72731">
        <ele>132.6</ele>
        <time>2013-03-10T08:46:16Z</time>
      </trkpt>
      <trkpt lat="43.48627" lon="3.72729">
        <ele>131</ele>
        <time>2013-03-10T08:46:24Z</time>
      </trkpt>
      <trkpt lat="43.4862" lon="3.72723">
        <ele>129.7</ele>
        <time>2013-03-10T08:46:31Z</time>
      </trkpt>
      <trkpt lat="43.48611" lon="3.72723">
        <ele>127.3</ele>
        <time>2013-03-10T08:46:41Z</time>
      </trkpt>
      <trkpt lat="43.48607" lon="3.72732">
        <ele>128.1</ele>
        <time>2013-03-10T08:46:52Z</time>
      </trkpt>
      <trkpt lat="43.48606" lon="3.72733">
        <ele>128.4</ele>
        <time>2013-03-10T08:46:53Z</time>
      </trkpt>
      <trkpt lat="43.48593" lon="3.72746">
        <ele>129.1</ele>
        <time>2013-03-10T08:47:25Z</time>
      </trkpt>
      <trkpt lat="43.48585" lon="3.72749">
        <ele>127.5</ele>
        <time>2013-03-10T08:47:37Z</time>
      </trkpt>
      <trkpt lat="43.48577" lon="3.7275">
        <ele>125.1</ele>
        <time>2013-03-10T08:47:45Z</time>
      </trkpt>
      <trkpt lat="43.4857" lon="3.72758">
        <ele>123.2</ele>
        <time>2013-03-10T08:47:55Z</time>
      </trkpt>
      <trkpt lat="43.48569" lon="3.72759">
        <ele>123</ele>
        <time>2013-03-10T08:47:56Z</time>
      </trkpt>
      <trkpt lat="43.48561" lon="3.72777">
        <ele>125.4</ele>
        <time>2013-03-10T08:48:12Z</time>
      </trkpt>
      <trkpt lat="43.48558" lon="3.72789">
        <ele>128.3</ele>
        <time>2013-03-10T08:48:24Z</time>
      </trkpt>
      <trkpt lat="43.48559" lon="3.72776">
        <ele>126.9</ele>
        <time>2013-03-10T08:48:54Z</time>
      </trkpt>
      <trkpt lat="43.48558" lon="3.72788">
        <ele>127.2</ele>
        <time>2013-03-10T08:49:15Z</time>
      </trkpt>
      <trkpt lat="43.48559" lon="3.7279">
        <ele>127.6</ele>
        <time>2013-03-10T08:49:16Z</time>
      </trkpt>
      <trkpt lat="43.48557" lon="3.72812">
        <ele>131.3</ele>
        <time>2013-03-10T08:49:29Z</time>
      </trkpt>
      <trkpt lat="43.4856" lon="3.72822">
        <ele>132.9</ele>
        <time>2013-03-10T08:49:36Z</time>
      </trkpt>
      <trkpt lat="43.4856" lon="3.72834">
        <ele>134.9</ele>
        <time>2013-03-10T08:49:44Z</time>
      </trkpt>
      <trkpt lat="43.48559" lon="3.72845">
        <ele>136.4</ele>
        <time>2013-03-10T08:51:06Z</time>
      </trkpt>
      <trkpt lat="43.48559" lon="3.72847">
        <ele>136.7</ele>
        <time>2013-03-10T08:51:07Z</time>
      </trkpt>
      <trkpt lat="43.48555" lon="3.72868">
        <ele>141.3</ele>
        <time>2013-03-10T08:53:05Z</time>
      </trkpt>
      <trkpt lat="43.48555" lon="3.72869">
        <ele>141.6</ele>
        <time>2013-03-10T08:53:06Z</time>
      </trkpt>
      <trkpt lat="43.4855" lon="3.72891">
        <ele>143.9</ele>
        <time>2013-03-10T08:53:22Z</time>
      </trkpt>
      <trkpt lat="43.48555" lon="3.72902">
        <ele>146.9</ele>
        <time>2013-03-10T08:54:39Z</time>
      </trkpt>
      <trkpt lat="43.48555" lon="3.72902">
        <ele>146.9</ele>
        <time>2013-03-10T08:54:40Z</time>
      </trkpt>
      <trkpt lat="43.48558" lon="3.72914">
        <ele>148.1</ele>
        <time>2013-03-10T08:55:46Z</time>
      </trkpt>
      <trkpt lat="43.48562" lon="3.72937">
        <ele>154.4</ele>
        <time>2013-03-10T08:56:09Z</time>
      </trkpt>
      <trkpt lat="43.48565" lon="3.72948">
        <ele>156.8</ele>
        <time>2013-03-10T08:56:22Z</time>
      </trkpt>
      <trkpt lat="43.48568" lon="3.72959">
        <ele>160.2</ele>
        <time>2013-03-10T08:56:34Z</time>
      </trkpt>
      <trkpt lat="43.48562" lon="3.72968">
        <ele>163.2</ele>
        <time>2013-03-10T08:56:49Z</time>
      </trkpt>
      <trkpt lat="43.48561" lon="3.72969">
        <ele>163.3</ele>
        <time>2013-03-10T08:56:50Z</time>
      </trkpt>
      <trkpt lat="43.48562" lon="3.72992">
        <ele>171.1</ele>
        <time>2013-03-10T08:57:41Z</time>
      </trkpt>
      <trkpt lat="43.48561" lon="3.73004">
        <ele>175</ele>
        <time>2013-03-10T08:57:52Z</time>
      </trkpt>
      <trkpt lat="43.4856" lon="3.73005">
        <ele>175.7</ele>
        <time>2013-03-10T08:57:53Z</time>
      </trkpt>
      <trkpt lat="43.48546" lon="3.73013">
        <ele>179.8</ele>
        <time>2013-03-10T08:58:17Z</time>
      </trkpt>
      <trkpt lat="43.4854" lon="3.73022">
        <ele>184.4</ele>
        <time>2013-03-10T08:58:32Z</time>
      </trkpt>
      <trkpt lat="43.48543" lon="3.73032">
        <ele>185.5</ele>
        <time>2013-03-10T08:58:42Z</time>
      </trkpt>
      <trkpt lat="43.48545" lon="3.73044">
        <ele>188.3</ele>
        <time>2013-03-10T08:58:56Z</time>
      </trkpt>
      <trkpt lat="43.48545" lon="3.73046">
        <ele>188.9</ele>
        <time>2013-03-10T08:58:57Z</time>
      </trkpt>
      <trkpt lat="43.48546" lon="3.73069">
        <ele>192.8</ele>
        <time>2013-03-10T09:00:08Z</time>
      </trkpt>
      <trkpt lat="43.48545" lon="3.73069">
        <ele>193.2</ele>
        <time>2013-03-10T09:00:09Z</time>
      </trkpt>
      <trkpt lat="43.48539" lon="3.73091">
        <ele>197.6</ele>
        <time>2013-03-10T09:00:26Z</time>
      </trkpt>
      <trkpt lat="43.48537" lon="3.73102">
        <ele>199.6</ele>
        <time>2013-03-10T09:00:34Z</time>
      </trkpt>
      <trkpt lat="43.48537" lon="3.73114">
        <ele>199.9</ele>
        <time>2013-03-10T09:00:41Z</time>
      </trkpt>
      <trkpt lat="43.48538" lon="3.73125">
        <ele>201.4</ele>
        <time>2013-03-10T09:00:48Z</time>
      </trkpt>
      <trkpt lat="43.48541" lon="3.73137">
        <ele>202.3</ele>
        <time>2013-03-10T09:00:55Z</time>
      </trkpt>
      <trkpt lat="43.48542" lon="3.73148">
        <ele>203.5</ele>
        <time>2013-03-10T09:01:02Z</time>
      </trkpt>
      <trkpt lat="43.48541" lon="3.7316">
        <ele>203.4</ele>
        <time>2013-03-10T09:01:10Z</time>
      </trkpt>
      <trkpt lat="43.48541" lon="3.73162">
        <ele>203.4</ele>
        <time>2013-03-10T09:01:11Z</time>
      </trkpt>
      <trkpt lat="43.48556" lon="3.73151">
        <ele>205.7</ele>
        <time>2013-03-10T09:01:36Z</time>
      </trkpt>
      <trkpt lat="43.48564" lon="3.73146">
        <ele>205.4</ele>
        <time>2013-03-10T09:01:43Z</time>
      </trkpt>
      <trkpt lat="43.48572" lon="3.73142">
        <ele>204.7</ele>
        <time>2013-03-10T09:01:51Z</time>
      </trkpt>
      <trkpt lat="43.48578" lon="3.73133">
        <ele>203.1</ele>
        <time>2013-03-10T09:02:15Z</time>
      </trkpt>
      <trkpt lat="43.48578" lon="3.73133">
        <ele>202.7</ele>
        <time>2013-03-10T09:02:16Z</time>
      </trkpt>
      <trkpt lat="43.48586" lon="3.73128">
        <ele>203.4</ele>
        <time>2013-03-10T09:03:51Z</time>
      </trkpt>
      <trkpt lat="43.48603" lon="3.73124">
        <ele>202.7</ele>
        <time>2013-03-10T09:04:09Z</time>
      </trkpt>
      <trkpt lat="43.48611" lon="3.73123">
        <ele>202.8</ele>
        <time>2013-03-10T09:04:15Z</time>
      </trkpt>
      <trkpt lat="43.48619" lon="3.73119">
        <ele>202.1</ele>
        <time>2013-03-10T09:04:23Z</time>
      </trkpt>
      <trkpt lat="43.48627" lon="3.73114">
        <ele>201.7</ele>
        <time>2013-03-10T09:04:31Z</time>
      </trkpt>
      <trkpt lat="43.48635" lon="3.73108">
        <ele>201.4</ele>
        <time>2013-03-10T09:05:33Z</time>
      </trkpt>
      <trkpt lat="43.48635" lon="3.73108">
        <ele>201.1</ele>
        <time>2013-03-10T09:05:34Z</time>
      </trkpt>
      <trkpt lat="43.48652" lon="3.73102">
        <ele>200.4</ele>
        <time>2013-03-10T09:05:53Z</time>
      </trkpt>
      <trkpt lat="43.4866" lon="3.73098">
        <ele>200.2</ele>
        <time>2013-03-10T09:06:03Z</time>
      </trkpt>
      <trkpt lat="43.48668" lon="3.73095">
        <ele>200.3</ele>
        <time>2013-03-10T09:06:11Z</time>
      </trkpt>
      <trkpt lat="43.48676" lon="3.73092">
        <ele>200</ele>
        <time>2013-03-10T09:06:20Z</time>
      </trkpt>
      <trkpt lat="43.48685" lon="3.73091">
        <ele>199.5</ele>
        <time>2013-03-10T09:06:29Z</time>
      </trkpt>
      <trkpt lat="43.48694" lon="3.73091">
        <ele>198.7</ele>
        <time>2013-03-10T09:06:39Z</time>
      </trkpt>
      <trkpt lat="43.48694" lon="3.73091">
        <ele>198.7</ele>
        <time>2013-03-10T09:06:40Z</time>
      </trkpt>
      <trkpt lat="43.4871" lon="3.7309">
        <ele>198</ele>
        <time>2013-03-10T09:06:57Z</time>
      </trkpt>
      <trkpt lat="43.48718" lon="3.73092">
        <ele>197.9</ele>
        <time>2013-03-10T09:07:06Z</time>
      </trkpt>
      <trkpt lat="43.48726" lon="3.73096">
        <ele>196.9</ele>
        <time>2013-03-10T09:07:14Z</time>
      </trkpt>
      <trkpt lat="43.48734" lon="3.73101">
        <ele>197.3</ele>
        <time>2013-03-10T09:07:26Z</time>
      </trkpt>
      <trkpt lat="43.4874" lon="3.73107">
        <ele>197</ele>
        <time>2013-03-10T09:07:33Z</time>
      </trkpt>
      <trkpt lat="43.48746" lon="3.73116">
        <ele>197.3</ele>
        <time>2013-03-10T09:07:40Z</time>
      </trkpt>
      <trkpt lat="43.48747" lon="3.73117">
        <ele>197.1</ele>
        <time>2013-03-10T09:07:41Z</time>
      </trkpt>
      <trkpt lat="43.48758" lon="3.73132">
        <ele>196.5</ele>
        <time>2013-03-10T09:07:56Z</time>
      </trkpt>
      <trkpt lat="43.48765" lon="3.73139">
        <ele>195.4</ele>
        <time>2013-03-10T09:08:03Z</time>
      </trkpt>
      <trkpt lat="43.48771" lon="3.73146">
        <ele>194.8</ele>
        <time>2013-03-10T09:08:10Z</time>
      </trkpt>
      <trkpt lat="43.48779" lon="3.73153">
        <ele>194.7</ele>
        <time>2013-03-10T09:08:17Z</time>
      </trkpt>
      <trkpt lat="43.48786" lon="3.73158">
        <ele>195.2</ele>
        <time>2013-03-10T09:08:24Z</time>
      </trkpt>
      <trkpt lat="43.48794" lon="3.73162">
        <ele>194.6</ele>
        <time>2013-03-10T09:08:31Z</time>
      </trkpt>
      <trkpt lat="43.48803" lon="3.73163">
        <ele>194.2</ele>
        <time>2013-03-10T09:08:38Z</time>
      </trkpt>
      <trkpt lat="43.48811" lon="3.73164">
        <ele>193.9</ele>
        <time>2013-03-10T09:08:45Z</time>
      </trkpt>
      <trkpt lat="43.48812" lon="3.73164">
        <ele>193.8</ele>
        <time>2013-03-10T09:08:46Z</time>
      </trkpt>
      <trkpt lat="43.48827" lon="3.7317">
        <ele>193.6</ele>
        <time>2013-03-10T09:09:00Z</time>
      </trkpt>
      <trkpt lat="43.48834" lon="3.73176">
        <ele>193.1</ele>
        <time>2013-03-10T09:09:07Z</time>
      </trkpt>
      <trkpt lat="43.48842" lon="3.73179">
        <ele>194.2</ele>
        <time>2013-03-10T09:09:19Z</time>
      </trkpt>
      <trkpt lat="43.4885" lon="3.73184">
        <ele>192.9</ele>
        <time>2013-03-10T09:09:26Z</time>
      </trkpt>
      <trkpt lat="43.48857" lon="3.73186">
        <ele>192</ele>
        <time>2013-03-10T09:09:32Z</time>
      </trkpt>
      <trkpt lat="43.48865" lon="3.73188">
        <ele>191.5</ele>
        <time>2013-03-10T09:09:38Z</time>
      </trkpt>
      <trkpt lat="43.48873" lon="3.73185">
        <ele>192</ele>
        <time>2013-03-10T09:12:38Z</time>
      </trkpt>
      <trkpt lat="43.48874" lon="3.73185">
        <ele>192.1</ele>
        <time>2013-03-10T09:12:39Z</time>
      </trkpt>
      <trkpt lat="43.48889" lon="3.7319">
        <ele>190.5</ele>
        <time>2013-03-10T09:12:52Z</time>
      </trkpt>
      <trkpt lat="43.48897" lon="3.73195">
        <ele>190.3</ele>
        <time>2013-03-10T09:12:58Z</time>
      </trkpt>
      <trkpt lat="43.48905" lon="3.73199">
        <ele>189</ele>
        <time>2013-03-10T09:13:28Z</time>
      </trkpt>
      <trkpt lat="43.48912" lon="3.73204">
        <ele>188</ele>
        <time>2013-03-10T09:13:37Z</time>
      </trkpt>
      <trkpt lat="43.48919" lon="3.73211">
        <ele>187.8</ele>
        <time>2013-03-10T09:13:46Z</time>
      </trkpt>
      <trkpt lat="43.4892" lon="3.73212">
        <ele>187.5</ele>
        <time>2013-03-10T09:13:47Z</time>
      </trkpt>
      <trkpt lat="43.48933" lon="3.73223">
        <ele>184.9</ele>
        <time>2013-03-10T09:14:01Z</time>
      </trkpt>
      <trkpt lat="43.4894" lon="3.7323">
        <ele>184</ele>
        <time>2013-03-10T09:14:08Z</time>
      </trkpt>
      <trkpt lat="43.48947" lon="3.73237">
        <ele>183.9</ele>
        <time>2013-03-10T09:14:21Z</time>
      </trkpt>
      <trkpt lat="43.48955" lon="3.73243">
        <ele>182.8</ele>
        <time>2013-03-10T09:14:29Z</time>
      </trkpt>
      <trkpt lat="43.48961" lon="3.73251">
        <ele>181.4</ele>
        <time>2013-03-10T09:14:37Z</time>
      </trkpt>
      <trkpt lat="43.48968" lon="3.73257">
        <ele>180.1</ele>
        <time>2013-03-10T09:14:47Z</time>
      </trkpt>
      <trkpt lat="43.48969" lon="3.73258">
        <ele>180.1</ele>
        <time>2013-03-10T09:14:48Z</time>
      </trkpt>
      <trkpt lat="43.48984" lon="3.73269">
        <ele>177.8</ele>
        <time>2013-03-10T09:15:05Z</time>
      </trkpt>
      <trkpt lat="43.48992" lon="3.73274">
        <ele>176.6</ele>
        <time>2013-03-10T09:15:13Z</time>
      </trkpt>
      <trkpt lat="43.48987" lon="3.73284">
        <ele>175</ele>
        <time>2013-03-10T09:15:36Z</time>
      </trkpt>
      <trkpt lat="43.48979" lon="3.73287">
        <ele>174.4</ele>
        <time>2013-03-10T09:15:43Z</time>
      </trkpt>
      <trkpt lat="43.4897" lon="3.73288">
        <ele>172.4</ele>
        <time>2013-03-10T09:15:55Z</time>
      </trkpt>
      <trkpt lat="43.48969" lon="3.73288">
        <ele>172.4</ele>
        <time>2013-03-10T09:15:56Z</time>
      </trkpt>
      <trkpt lat="43.48954" lon="3.73295">
        <ele>171.7</ele>
        <time>2013-03-10T09:16:12Z</time>
      </trkpt>
      <trkpt lat="43.48945" lon="3.73296">
        <ele>170.5</ele>
        <time>2013-03-10T09:16:20Z</time>
      </trkpt>
      <trkpt lat="43.48937" lon="3.73298">
        <ele>171.4</ele>
        <time>2013-03-10T09:16:27Z</time>
      </trkpt>
      <trkpt lat="43.48928" lon="3.73296">
        <ele>171.6</ele>
        <time>2013-03-10T09:18:32Z</time>
      </trkpt>
      <trkpt lat="43.48927" lon="3.73296">
        <ele>171.6</ele>
        <time>2013-03-10T09:18:33Z</time>
      </trkpt>
      <trkpt lat="43.48912" lon="3.73296">
        <ele>169.6</ele>
        <time>2013-03-10T09:18:50Z</time>
      </trkpt>
      <trkpt lat="43.48904" lon="3.73295">
        <ele>167.8</ele>
        <time>2013-03-10T09:18:57Z</time>
      </trkpt>
      <trkpt lat="43.48896" lon="3.73293">
        <ele>167.4</ele>
        <time>2013-03-10T09:19:04Z</time>
      </trkpt>
      <trkpt lat="43.48887" lon="3.73292">
        <ele>166.5</ele>
        <time>2013-03-10T09:19:11Z</time>
      </trkpt>
      <trkpt lat="43.48879" lon="3.73292">
        <ele>166.1</ele>
        <time>2013-03-10T09:19:20Z</time>
      </trkpt>
      <trkpt lat="43.48871" lon="3.73293">
        <ele>165.9</ele>
        <time>2013-03-10T09:19:27Z</time>
      </trkpt>
      <trkpt lat="43.48863" lon="3.73294">
        <ele>166.6</ele>
        <time>2013-03-10T09:19:33Z</time>
      </trkpt>
      <trkpt lat="43.48862" lon="3.73294">
        <ele>166.3</ele>
        <time>2013-03-10T09:19:34Z</time>
      </trkpt>
      <trkpt lat="43.48846" lon="3.73299">
        <ele>166.1</ele>
        <time>2013-03-10T09:19:54Z</time>
      </trkpt>
      <trkpt lat="43.48838" lon="3.73299">
        <ele>166.7</ele>
        <time>2013-03-10T09:20:07Z</time>
      </trkpt>
      <trkpt lat="43.4883" lon="3.73298">
        <ele>164.7</ele>
        <time>2013-03-10T09:20:15Z</time>
      </trkpt>
      <trkpt lat="43.48822" lon="3.73298">
        <ele>167.7</ele>
        <time>2013-03-10T09:20:22Z</time>
      </trkpt>
      <trkpt lat="43.48814" lon="3.73302">
        <ele>166.8</ele>
        <time>2013-03-10T09:20:30Z</time>
      </trkpt>
      <trkpt lat="43.48806" lon="3.73305">
        <ele>167.6</ele>
        <time>2013-03-10T09:20:38Z</time>
      </trkpt>
      <trkpt lat="43.48805" lon="3.73305">
        <ele>167.8</ele>
        <time>2013-03-10T09:20:39Z</time>
      </trkpt>
      <trkpt lat="43.48793" lon="3.73321">
        <ele>165.7</ele>
        <time>2013-03-10T09:21:10Z</time>
      </trkpt>
      <trkpt lat="43.48788" lon="3.73331">
        <ele>165.7</ele>
        <time>2013-03-10T09:21:18Z</time>
      </trkpt>
      <trkpt lat="43.48783" lon="3.7334">
        <ele>165.7</ele>
        <time>2013-03-10T09:21:26Z</time>
      </trkpt>
      <trkpt lat="43.48777" lon="3.73348">
        <ele>168</ele>
        <time>2013-03-10T09:21:38Z</time>
      </trkpt>
      <trkpt lat="43.4877" lon="3.73353">
        <ele>168.1</ele>
        <time>2013-03-10T09:21:45Z</time>
      </trkpt>
      <trkpt lat="43.48769" lon="3.73354">
        <ele>168.5</ele>
        <time>2013-03-10T09:21:46Z</time>
      </trkpt>
      <trkpt lat="43.48758" lon="3.7337">
        <ele>168.7</ele>
        <time>2013-03-10T09:22:01Z</time>
      </trkpt>
      <trkpt lat="43.48751" lon="3.73376">
        <ele>169.1</ele>
        <time>2013-03-10T09:22:09Z</time>
      </trkpt>
      <trkpt lat="43.48743" lon="3.73377">
        <ele>169.9</ele>
        <time>2013-03-10T09:22:16Z</time>
      </trkpt>
      <trkpt lat="43.48735" lon="3.73379">
        <ele>170.7</ele>
        <time>2013-03-10T09:22:23Z</time>
      </trkpt>
      <trkpt lat="43.48726" lon="3.7338">
        <ele>172.2</ele>
        <time>2013-03-10T09:22:33Z</time>
      </trkpt>
      <trkpt lat="43.48718" lon="3.73385">
        <ele>172.9</ele>
        <time>2013-03-10T09:22:40Z</time>
      </trkpt>
      <trkpt lat="43.48712" lon="3.73394">
        <ele>172.9</ele>
        <time>2013-03-10T09:22:51Z</time>
      </trkpt>
      <trkpt lat="43.48712" lon="3.73395">
        <ele>173.3</ele>
        <time>2013-03-10T09:22:52Z</time>
      </trkpt>
      <trkpt lat="43.48702" lon="3.73411">
        <ele>171.9</ele>
        <time>2013-03-10T09:23:25Z</time>
      </trkpt>
      <trkpt lat="43.48695" lon="3.73415">
        <ele>172.3</ele>
        <time>2013-03-10T09:23:54Z</time>
      </trkpt>
      <trkpt lat="43.48694" lon="3.73416">
        <ele>172.4</ele>
        <time>2013-03-10T09:23:55Z</time>
      </trkpt>
      <trkpt lat="43.48693" lon="3.73437">
        <ele>171.9</ele>
        <time>2013-03-10T09:24:15Z</time>
      </trkpt>
      <trkpt lat="43.48697" lon="3.73446">
        <ele>170.8</ele>
        <time>2013-03-10T09:24:21Z</time>
      </trkpt>
      <trkpt lat="43.48704" lon="3.73453">
        <ele>168.9</ele>
        <time>2013-03-10T09:24:29Z</time>
      </trkpt>
      <trkpt lat="43.48712" lon="3.73456">
        <ele>166.3</ele>
        <time>2013-03-10T09:24:35Z</time>
      </trkpt>
      <trkpt lat="43.48719" lon="3.7346">
        <ele>166.4</ele>
        <time>2013-03-10T09:24:52Z</time>
      </trkpt>
      <trkpt lat="43.48723" lon="3.73469">
        <ele>165.6</ele>
        <time>2013-03-10T09:24:58Z</time>
      </trkpt>
      <trkpt lat="43.48724" lon="3.73471">
        <ele>165.3</ele>
        <time>2013-03-10T09:24:59Z</time>
      </trkpt>
      <trkpt lat="43.4872" lon="3.73491">
        <ele>162.1</ele>
        <time>2013-03-10T09:25:11Z</time>
      </trkpt>
      <trkpt lat="43.48713" lon="3.73499">
        <ele>160.9</ele>
        <time>2013-03-10T09:25:18Z</time>
      </trkpt>
      <trkpt lat="43.48707" lon="3.73507">
        <ele>162.1</ele>
        <time>2013-03-10T09:25:30Z</time>
      </trkpt>
      <trkpt lat="43.48705" lon="3.73519">
        <ele>162.1</ele>
        <time>2013-03-10T09:25:38Z</time>
      </trkpt>
      <trkpt lat="43.48702" lon="3.7353">
        <ele>161.6</ele>
        <time>2013-03-10T09:26:21Z</time>
      </trkpt>
      <trkpt lat="43.48702" lon="3.73531">
        <ele>161.7</ele>
        <time>2013-03-10T09:26:22Z</time>
      </trkpt>
      <trkpt lat="43.48703" lon="3.73553">
        <ele>161.2</ele>
        <time>2013-03-10T09:26:43Z</time>
      </trkpt>
      <trkpt lat="43.48708" lon="3.73563">
        <ele>160</ele>
        <time>2013-03-10T09:26:57Z</time>
      </trkpt>
      <trkpt lat="43.48706" lon="3.73575">
        <ele>159.7</ele>
        <time>2013-03-10T09:27:07Z</time>
      </trkpt>
      <trkpt lat="43.48699" lon="3.73582">
        <ele>161.5</ele>
        <time>2013-03-10T09:27:21Z</time>
      </trkpt>
      <trkpt lat="43.48691" lon="3.73587">
        <ele>162.7</ele>
        <time>2013-03-10T09:27:40Z</time>
      </trkpt>
      <trkpt lat="43.4869" lon="3.73588">
        <ele>162.8</ele>
        <time>2013-03-10T09:27:41Z</time>
      </trkpt>
      <trkpt lat="43.48677" lon="3.73597">
        <ele>165.7</ele>
        <time>2013-03-10T09:27:56Z</time>
      </trkpt>
      <trkpt lat="43.48668" lon="3.736">
        <ele>167.7</ele>
        <time>2013-03-10T09:28:04Z</time>
      </trkpt>
      <trkpt lat="43.48659" lon="3.73598">
        <ele>168.7</ele>
        <time>2013-03-10T09:28:12Z</time>
      </trkpt>
      <trkpt lat="43.48651" lon="3.73597">
        <ele>170.9</ele>
        <time>2013-03-10T09:28:26Z</time>
      </trkpt>
      <trkpt lat="43.48642" lon="3.73597">
        <ele>172.5</ele>
        <time>2013-03-10T09:28:38Z</time>
      </trkpt>
      <trkpt lat="43.48633" lon="3.73596">
        <ele>174.2</ele>
        <time>2013-03-10T09:28:50Z</time>
      </trkpt>
      <trkpt lat="43.48632" lon="3.73596">
        <ele>174.2</ele>
        <time>2013-03-10T09:28:51Z</time>
      </trkpt>
      <trkpt lat="43.48618" lon="3.73586">
        <ele>178.9</ele>
        <time>2013-03-10T09:29:23Z</time>
      </trkpt>
      <trkpt lat="43.4861" lon="3.73584">
        <ele>178.6</ele>
        <time>2013-03-10T09:29:51Z</time>
      </trkpt>
      <trkpt lat="43.48609" lon="3.73584">
        <ele>178.8</ele>
        <time>2013-03-10T09:29:52Z</time>
      </trkpt>
      <trkpt lat="43.48594" lon="3.73575">
        <ele>183</ele>
        <time>2013-03-10T09:30:10Z</time>
      </trkpt>
      <trkpt lat="43.48588" lon="3.73567">
        <ele>184.8</ele>
        <time>2013-03-10T09:30:21Z</time>
      </trkpt>
      <trkpt lat="43.4858" lon="3.73564">
        <ele>186.8</ele>
        <time>2013-03-10T09:30:30Z</time>
      </trkpt>
      <trkpt lat="43.48571" lon="3.73565">
        <ele>188.7</ele>
        <time>2013-03-10T09:30:38Z</time>
      </trkpt>
      <trkpt lat="43.48563" lon="3.73566">
        <ele>189.2</ele>
        <time>2013-03-10T09:30:48Z</time>
      </trkpt>
      <trkpt lat="43.48554" lon="3.73567">
        <ele>191.5</ele>
        <time>2013-03-10T09:30:58Z</time>
      </trkpt>
      <trkpt lat="43.48553" lon="3.73567">
        <ele>191.4</ele>
        <time>2013-03-10T09:30:59Z</time>
      </trkpt>
      <trkpt lat="43.48538" lon="3.73564">
        <ele>192.9</ele>
        <time>2013-03-10T09:31:16Z</time>
      </trkpt>
      <trkpt lat="43.4853" lon="3.7356">
        <ele>194</ele>
        <time>2013-03-10T09:31:30Z</time>
      </trkpt>
      <trkpt lat="43.48522" lon="3.73562">
        <ele>196.1</ele>
        <time>2013-03-10T09:38:01Z</time>
      </trkpt>
      <trkpt lat="43.4852" lon="3.73562">
        <ele>196.2</ele>
        <time>2013-03-10T09:38:02Z</time>
      </trkpt>
      <trkpt lat="43.48506" lon="3.73565">
        <ele>195.7</ele>
        <time>2013-03-10T09:38:20Z</time>
      </trkpt>
      <trkpt lat="43.48498" lon="3.73564">
        <ele>194.3</ele>
        <time>2013-03-10T09:38:29Z</time>
      </trkpt>
      <trkpt lat="43.48489" lon="3.73562">
        <ele>194.4</ele>
        <time>2013-03-10T09:38:37Z</time>
      </trkpt>
      <trkpt lat="43.4848" lon="3.73561">
        <ele>194.6</ele>
        <time>2013-03-10T09:38:45Z</time>
      </trkpt>
      <trkpt lat="43.48472" lon="3.73559">
        <ele>194.4</ele>
        <time>2013-03-10T09:38:53Z</time>
      </trkpt>
      <trkpt lat="43.48463" lon="3.7356">
        <ele>194.1</ele>
        <time>2013-03-10T09:39:03Z</time>
      </trkpt>
      <trkpt lat="43.48462" lon="3.7356">
        <ele>194</ele>
        <time>2013-03-10T09:39:04Z</time>
      </trkpt>
      <trkpt lat="43.48446" lon="3.73563">
        <ele>193.4</ele>
        <time>2013-03-10T09:39:19Z</time>
      </trkpt>
      <trkpt lat="43.48439" lon="3.73567">
        <ele>191.7</ele>
        <time>2013-03-10T09:39:26Z</time>
      </trkpt>
      <trkpt lat="43.48431" lon="3.7357">
        <ele>191</ele>
        <time>2013-03-10T09:39:32Z</time>
      </trkpt>
      <trkpt lat="43.48422" lon="3.73572">
        <ele>191.4</ele>
        <time>2013-03-10T09:39:39Z</time>
      </trkpt>
      <trkpt lat="43.48414" lon="3.73571">
        <ele>189.6</ele>
        <time>2013-03-10T09:39:59Z</time>
      </trkpt>
      <trkpt lat="43.48406" lon="3.7357">
        <ele>190.2</ele>
        <time>2013-03-10T09:40:08Z</time>
      </trkpt>
      <trkpt lat="43.48404" lon="3.7357">
        <ele>190.3</ele>
        <time>2013-03-10T09:40:09Z</time>
      </trkpt>
      <trkpt lat="43.4839" lon="3.73571">
        <ele>189.3</ele>
        <time>2013-03-10T09:40:23Z</time>
      </trkpt>
      <trkpt lat="43.48381" lon="3.73568">
        <ele>189.1</ele>
        <time>2013-03-10T09:40:31Z</time>
      </trkpt>
      <trkpt lat="43.48373" lon="3.73565">
        <ele>189.5</ele>
        <time>2013-03-10T09:40:39Z</time>
      </trkpt>
      <trkpt lat="43.48364" lon="3.73564">
        <ele>188.4</ele>
        <time>2013-03-10T09:40:48Z</time>
      </trkpt>
      <trkpt lat="43.48358" lon="3.73555">
        <ele>188.9</ele>
        <time>2013-03-10T09:40:57Z</time>
      </trkpt>
      <trkpt lat="43.4835" lon="3.73552">
        <ele>190.5</ele>
        <time>2013-03-10T09:41:09Z</time>
      </trkpt>
      <trkpt lat="43.48349" lon="3.73552">
        <ele>190.8</ele>
        <time>2013-03-10T09:41:10Z</time>
      </trkpt>
      <trkpt lat="43.48334" lon="3.73553">
        <ele>193</ele>
        <time>2013-03-10T09:41:28Z</time>
      </trkpt>
      <trkpt lat="43.48325" lon="3.73551">
        <ele>195.6</ele>
        <time>2013-03-10T09:42:06Z</time>
      </trkpt>
      <trkpt lat="43.48318" lon="3.73557">
        <ele>196.8</ele>
        <time>2013-03-10T09:42:14Z</time>
      </trkpt>
      <trkpt lat="43.48317" lon="3.73558">
        <ele>196.9</ele>
        <time>2013-03-10T09:42:15Z</time>
      </trkpt>
      <trkpt lat="43.48302" lon="3.73567">
        <ele>199.9</ele>
        <time>2013-03-10T09:42:32Z</time>
      </trkpt>
      <trkpt lat="43.48294" lon="3.73565">
        <ele>203.3</ele>
        <time>2013-03-10T09:42:44Z</time>
      </trkpt>
      <trkpt lat="43.48286" lon="3.7356">
        <ele>204.6</ele>
        <time>2013-03-10T09:42:53Z</time>
      </trkpt>
      <trkpt lat="43.48279" lon="3.73553">
        <ele>209</ele>
        <time>2013-03-10T09:43:03Z</time>
      </trkpt>
      <trkpt lat="43.48273" lon="3.73545">
        <ele>209.7</ele>
        <time>2013-03-10T09:43:11Z</time>
      </trkpt>
      <trkpt lat="43.48265" lon="3.73542">
        <ele>210.1</ele>
        <time>2013-03-10T09:43:21Z</time>
      </trkpt>
      <trkpt lat="43.48264" lon="3.73542">
        <ele>210.5</ele>
        <time>2013-03-10T09:43:22Z</time>
      </trkpt>
      <trkpt lat="43.48251" lon="3.7353">
        <ele>211.3</ele>
        <time>2013-03-10T09:43:37Z</time>
      </trkpt>
      <trkpt lat="43.48246" lon="3.7352">
        <ele>211.5</ele>
        <time>2013-03-10T09:43:45Z</time>
      </trkpt>
      <trkpt lat="43.48239" lon="3.73513">
        <ele>212.1</ele>
        <time>2013-03-10T09:43:53Z</time>
      </trkpt>
      <trkpt lat="43.48236" lon="3.73502">
        <ele>211.6</ele>
        <time>2013-03-10T09:44:09Z</time>
      </trkpt>
      <trkpt lat="43.48232" lon="3.73492">
        <ele>212.1</ele>
        <time>2013-03-10T09:44:17Z</time>
      </trkpt>
      <trkpt lat="43.4823" lon="3.73481">
        <ele>212.2</ele>
        <time>2013-03-10T09:44:24Z</time>
      </trkpt>
      <trkpt lat="43.4823" lon="3.7348">
        <ele>212.4</ele>
        <time>2013-03-10T09:44:25Z</time>
      </trkpt>
      <trkpt lat="43.48231" lon="3.73458">
        <ele>213</ele>
        <time>2013-03-10T09:44:40Z</time>
      </trkpt>
      <trkpt lat="43.48223" lon="3.73451">
        <ele>213.8</ele>
        <time>2013-03-10T09:46:08Z</time>
      </trkpt>
      <trkpt lat="43.48222" lon="3.7345">
        <ele>213.9</ele>
        <time>2013-03-10T09:46:09Z</time>
      </trkpt>
      <trkpt lat="43.48207" lon="3.73442">
        <ele>214</ele>
        <time>2013-03-10T09:46:27Z</time>
      </trkpt>
      <trkpt lat="43.48199" lon="3.73436">
        <ele>214.2</ele>
        <time>2013-03-10T09:46:36Z</time>
      </trkpt>
      <trkpt lat="43.48191" lon="3.73433">
        <ele>215.2</ele>
        <time>2013-03-10T09:46:49Z</time>
      </trkpt>
      <trkpt lat="43.48182" lon="3.7343">
        <ele>214.4</ele>
        <time>2013-03-10T09:46:57Z</time>
      </trkpt>
      <trkpt lat="43.48175" lon="3.73425">
        <ele>215</ele>
        <time>2013-03-10T09:47:05Z</time>
      </trkpt>
      <trkpt lat="43.48167" lon="3.7342">
        <ele>215.5</ele>
        <time>2013-03-10T09:47:13Z</time>
      </trkpt>
      <trkpt lat="43.48166" lon="3.73419">
        <ele>215.6</ele>
        <time>2013-03-10T09:47:14Z</time>
      </trkpt>
      <trkpt lat="43.48154" lon="3.73409">
        <ele>215.6</ele>
        <time>2013-03-10T09:47:35Z</time>
      </trkpt>
      <trkpt lat="43.48148" lon="3.734">
        <ele>215.7</ele>
        <time>2013-03-10T09:47:44Z</time>
      </trkpt>
      <trkpt lat="43.48142" lon="3.73391">
        <ele>215.7</ele>
        <time>2013-03-10T09:47:53Z</time>
      </trkpt>
      <trkpt lat="43.48136" lon="3.73385">
        <ele>216.5</ele>
        <time>2013-03-10T09:48:01Z</time>
      </trkpt>
      <trkpt lat="43.48127" lon="3.73383">
        <ele>216.3</ele>
        <time>2013-03-10T09:48:08Z</time>
      </trkpt>
      <trkpt lat="43.48119" lon="3.73378">
        <ele>214.9</ele>
        <time>2013-03-10T09:48:16Z</time>
      </trkpt>
      <trkpt lat="43.48118" lon="3.73378">
        <ele>214.7</ele>
        <time>2013-03-10T09:48:17Z</time>
      </trkpt>
      <trkpt lat="43.48105" lon="3.73367">
        <ele>215.3</ele>
        <time>2013-03-10T09:48:30Z</time>
      </trkpt>
      <trkpt lat="43.48099" lon="3.73359">
        <ele>214.5</ele>
        <time>2013-03-10T09:48:38Z</time>
      </trkpt>
      <trkpt lat="43.48094" lon="3.7335">
        <ele>215.8</ele>
        <time>2013-03-10T09:48:46Z</time>
      </trkpt>
      <trkpt lat="43.48088" lon="3.7334">
        <ele>215.5</ele>
        <time>2013-03-10T09:48:54Z</time>
      </trkpt>
      <trkpt lat="43.48082" lon="3.73332">
        <ele>215.4</ele>
        <time>2013-03-10T09:49:02Z</time>
      </trkpt>
      <trkpt lat="43.48075" lon="3.73325">
        <ele>215.6</ele>
        <time>2013-03-10T09:49:13Z</time>
      </trkpt>
      <trkpt lat="43.48067" lon="3.73325">
        <ele>215.5</ele>
        <time>2013-03-10T09:49:19Z</time>
      </trkpt>
      <trkpt lat="43.48066" lon="3.73325">
        <ele>215.1</ele>
        <time>2013-03-10T09:49:20Z</time>
      </trkpt>
      <trkpt lat="43.4805" lon="3.73326">
        <ele>212.7</ele>
        <time>2013-03-10T09:49:32Z</time>
      </trkpt>
      <trkpt lat="43.48041" lon="3.73324">
        <ele>213.3</ele>
        <time>2013-03-10T09:49:39Z</time>
      </trkpt>
      <trkpt lat="43.48035" lon="3.73317">
        <ele>211.8</ele>
        <time>2013-03-10T09:49:47Z</time>
      </trkpt>
      <trkpt lat="43.48032" lon="3.73306">
        <ele>211.9</ele>
        <time>2013-03-10T09:49:59Z</time>
      </trkpt>
      <trkpt lat="43.48029" lon="3.73294">
        <ele>212.7</ele>
        <time>2013-03-10T09:50:09Z</time>
      </trkpt>
      <trkpt lat="43.48022" lon="3.73287">
        <ele>212.5</ele>
        <time>2013-03-10T09:50:16Z</time>
      </trkpt>
      <trkpt lat="43.48015" lon="3.73282">
        <ele>212</ele>
        <time>2013-03-10T09:50:22Z</time>
      </trkpt>
      <trkpt lat="43.48014" lon="3.73281">
        <ele>212.1</ele>
        <time>2013-03-10T09:50:23Z</time>
      </trkpt>
      <trkpt lat="43.48" lon="3.73271">
        <ele>211.5</ele>
        <time>2013-03-10T09:50:34Z</time>
      </trkpt>
      <trkpt lat="43.47995" lon="3.73261">
        <ele>209.8</ele>
        <time>2013-03-10T09:50:41Z</time>
      </trkpt>
      <trkpt lat="43.47988" lon="3.73255">
        <ele>208.3</ele>
        <time>2013-03-10T09:50:48Z</time>
      </trkpt>
      <trkpt lat="43.4798" lon="3.73249">
        <ele>207.6</ele>
        <time>2013-03-10T09:50:56Z</time>
      </trkpt>
      <trkpt lat="43.47972" lon="3.73245">
        <ele>206.8</ele>
        <time>2013-03-10T09:51:05Z</time>
      </trkpt>
      <trkpt lat="43.47964" lon="3.73241">
        <ele>207.1</ele>
        <time>2013-03-10T09:51:13Z</time>
      </trkpt>
      <trkpt lat="43.47956" lon="3.73237">
        <ele>206.2</ele>
        <time>2013-03-10T09:51:26Z</time>
      </trkpt>
      <trkpt lat="43.47955" lon="3.73236">
        <ele>206.2</ele>
        <time>2013-03-10T09:51:27Z</time>
      </trkpt>
      <trkpt lat="43.47941" lon="3.73228">
        <ele>205.4</ele>
        <time>2013-03-10T09:51:41Z</time>
      </trkpt>
      <trkpt lat="43.47933" lon="3.73223">
        <ele>204.9</ele>
        <time>2013-03-10T09:51:48Z</time>
      </trkpt>
      <trkpt lat="43.47926" lon="3.73219">
        <ele>203.9</ele>
        <time>2013-03-10T09:51:56Z</time>
      </trkpt>
      <trkpt lat="43.47919" lon="3.73214">
        <ele>204.5</ele>
        <time>2013-03-10T09:52:04Z</time>
      </trkpt>
      <trkpt lat="43.47911" lon="3.73208">
        <ele>203.7</ele>
        <time>2013-03-10T09:52:12Z</time>
      </trkpt>
      <trkpt lat="43.47904" lon="3.73204">
        <ele>203.2</ele>
        <time>2013-03-10T09:52:20Z</time>
      </trkpt>
      <trkpt lat="43.47896" lon="3.73199">
        <ele>202.7</ele>
        <time>2013-03-10T09:52:28Z</time>
      </trkpt>
      <trkpt lat="43.47895" lon="3.73199">
        <ele>202.5</ele>
        <time>2013-03-10T09:52:29Z</time>
      </trkpt>
      <trkpt lat="43.4788" lon="3.73192">
        <ele>201.7</ele>
        <time>2013-03-10T09:52:45Z</time>
      </trkpt>
      <trkpt lat="43.47871" lon="3.7319">
        <ele>201.5</ele>
        <time>2013-03-10T09:52:54Z</time>
      </trkpt>
      <trkpt lat="43.47863" lon="3.7319">
        <ele>201</ele>
        <time>2013-03-10T09:53:02Z</time>
      </trkpt>
      <trkpt lat="43.47855" lon="3.73189">
        <ele>200.4</ele>
        <time>2013-03-10T09:53:09Z</time>
      </trkpt>
      <trkpt lat="43.47846" lon="3.73188">
        <ele>200.2</ele>
        <time>2013-03-10T09:53:17Z</time>
      </trkpt>
      <trkpt lat="43.47838" lon="3.73186">
        <ele>200.9</ele>
        <time>2013-03-10T09:53:24Z</time>
      </trkpt>
      <trkpt lat="43.4783" lon="3.73183">
        <ele>201</ele>
        <time>2013-03-10T09:53:30Z</time>
      </trkpt>
      <trkpt lat="43.47829" lon="3.73183">
        <ele>201.1</ele>
        <time>2013-03-10T09:53:31Z</time>
      </trkpt>
      <trkpt lat="43.47813" lon="3.73181">
        <ele>200.9</ele>
        <time>2013-03-10T09:53:48Z</time>
      </trkpt>
      <trkpt lat="43.47805" lon="3.73177">
        <ele>201.8</ele>
        <time>2013-03-10T09:53:55Z</time>
      </trkpt>
      <trkpt lat="43.47797" lon="3.73175">
        <ele>201.3</ele>
        <time>2013-03-10T09:54:03Z</time>
      </trkpt>
      <trkpt lat="43.47788" lon="3.73173">
        <ele>202.7</ele>
        <time>2013-03-10T09:54:11Z</time>
      </trkpt>
      <trkpt lat="43.47781" lon="3.7317">
        <ele>202</ele>
        <time>2013-03-10T09:54:18Z</time>
      </trkpt>
      <trkpt lat="43.47773" lon="3.73167">
        <ele>201.3</ele>
        <time>2013-03-10T09:54:26Z</time>
      </trkpt>
      <trkpt lat="43.47765" lon="3.73163">
        <ele>202.1</ele>
        <time>2013-03-10T09:54:33Z</time>
      </trkpt>
      <trkpt lat="43.47764" lon="3.73163">
        <ele>202</ele>
        <time>2013-03-10T09:54:34Z</time>
      </trkpt>
      <trkpt lat="43.47748" lon="3.73159">
        <ele>201.9</ele>
        <time>2013-03-10T09:54:48Z</time>
      </trkpt>
      <trkpt lat="43.4774" lon="3.73155">
        <ele>200.8</ele>
        <time>2013-03-10T09:54:56Z</time>
      </trkpt>
      <trkpt lat="43.47735" lon="3.73147">
        <ele>201.1</ele>
        <time>2013-03-10T09:55:05Z</time>
      </trkpt>
      <trkpt lat="43.4773" lon="3.73137">
        <ele>200.7</ele>
        <time>2013-03-10T09:55:12Z</time>
      </trkpt>
      <trkpt lat="43.47725" lon="3.73128">
        <ele>200.9</ele>
        <time>2013-03-10T09:55:19Z</time>
      </trkpt>
      <trkpt lat="43.4772" lon="3.73119">
        <ele>199.6</ele>
        <time>2013-03-10T09:55:26Z</time>
      </trkpt>
      <trkpt lat="43.47715" lon="3.73111">
        <ele>200.7</ele>
        <time>2013-03-10T09:55:33Z</time>
      </trkpt>
      <trkpt lat="43.47708" lon="3.73103">
        <ele>200.6</ele>
        <time>2013-03-10T09:55:41Z</time>
      </trkpt>
      <trkpt lat="43.47707" lon="3.73102">
        <ele>200.7</ele>
        <time>2013-03-10T09:55:42Z</time>
      </trkpt>
      <trkpt lat="43.47695" lon="3.73087">
        <ele>200.5</ele>
        <time>2013-03-10T09:56:27Z</time>
      </trkpt>
      <trkpt lat="43.47689" lon="3.73078">
        <ele>200.5</ele>
        <time>2013-03-10T09:56:41Z</time>
      </trkpt>
      <trkpt lat="43.47684" lon="3.73069">
        <ele>196.9</ele>
        <time>2013-03-10T09:56:50Z</time>
      </trkpt>
      <trkpt lat="43.47683" lon="3.73068">
        <ele>198</ele>
        <time>2013-03-10T09:56:51Z</time>
      </trkpt>
      <trkpt lat="43.47672" lon="3.73051">
        <ele>198.2</ele>
        <time>2013-03-10T09:57:06Z</time>
      </trkpt>
      <trkpt lat="43.47666" lon="3.73044">
        <ele>198.9</ele>
        <time>2013-03-10T09:57:14Z</time>
      </trkpt>
      <trkpt lat="43.4766" lon="3.73034">
        <ele>198.3</ele>
        <time>2013-03-10T09:57:22Z</time>
      </trkpt>
      <trkpt lat="43.47654" lon="3.73026">
        <ele>197.2</ele>
        <time>2013-03-10T09:57:29Z</time>
      </trkpt>
      <trkpt lat="43.47649" lon="3.73016">
        <ele>196.7</ele>
        <time>2013-03-10T09:57:37Z</time>
      </trkpt>
      <trkpt lat="43.47648" lon="3.73004">
        <ele>197</ele>
        <time>2013-03-10T09:57:45Z</time>
      </trkpt>
      <trkpt lat="43.47643" lon="3.72994">
        <ele>196.3</ele>
        <time>2013-03-10T09:57:54Z</time>
      </trkpt>
      <trkpt lat="43.47643" lon="3.72992">
        <ele>196.2</ele>
        <time>2013-03-10T09:57:55Z</time>
      </trkpt>
      <trkpt lat="43.47633" lon="3.72976">
        <ele>195.3</ele>
        <time>2013-03-10T09:58:10Z</time>
      </trkpt>
      <trkpt lat="43.47626" lon="3.72968">
        <ele>195.5</ele>
        <time>2013-03-10T09:58:20Z</time>
      </trkpt>
      <trkpt lat="43.47622" lon="3.72959">
        <ele>194.4</ele>
        <time>2013-03-10T09:58:29Z</time>
      </trkpt>
      <trkpt lat="43.47615" lon="3.72952">
        <ele>193.4</ele>
        <time>2013-03-10T09:58:37Z</time>
      </trkpt>
      <trkpt lat="43.47608" lon="3.72945">
        <ele>192.5</ele>
        <time>2013-03-10T09:58:44Z</time>
      </trkpt>
      <trkpt lat="43.47604" lon="3.72935">
        <ele>192.5</ele>
        <time>2013-03-10T09:58:54Z</time>
      </trkpt>
      <trkpt lat="43.47599" lon="3.72926">
        <ele>190.5</ele>
        <time>2013-03-10T09:59:01Z</time>
      </trkpt>
      <trkpt lat="43.47598" lon="3.72924">
        <ele>190.2</ele>
        <time>2013-03-10T09:59:02Z</time>
      </trkpt>
      <trkpt lat="43.47588" lon="3.72906">
        <ele>188.9</ele>
        <time>2013-03-10T09:59:17Z</time>
      </trkpt>
      <trkpt lat="43.47582" lon="3.72899">
        <ele>189.5</ele>
        <time>2013-03-10T09:59:24Z</time>
      </trkpt>
      <trkpt lat="43.47576" lon="3.72892">
        <ele>189.2</ele>
        <time>2013-03-10T09:59:31Z</time>
      </trkpt>
      <trkpt lat="43.4757" lon="3.72885">
        <ele>189.5</ele>
        <time>2013-03-10T09:59:38Z</time>
      </trkpt>
      <trkpt lat="43.47563" lon="3.72877">
        <ele>189.3</ele>
        <time>2013-03-10T09:59:48Z</time>
      </trkpt>
      <trkpt lat="43.47559" lon="3.72866">
        <ele>190.6</ele>
        <time>2013-03-10T09:59:59Z</time>
      </trkpt>
      <trkpt lat="43.47553" lon="3.72858">
        <ele>190.5</ele>
        <time>2013-03-10T10:00:07Z</time>
      </trkpt>
      <trkpt lat="43.47552" lon="3.72856">
        <ele>190.3</ele>
        <time>2013-03-10T10:00:08Z</time>
      </trkpt>
      <trkpt lat="43.47541" lon="3.72842">
        <ele>190.9</ele>
        <time>2013-03-10T10:00:25Z</time>
      </trkpt>
      <trkpt lat="43.47534" lon="3.72836">
        <ele>191.3</ele>
        <time>2013-03-10T10:00:32Z</time>
      </trkpt>
      <trkpt lat="43.47526" lon="3.72833">
        <ele>190.5</ele>
        <time>2013-03-10T10:00:41Z</time>
      </trkpt>
      <trkpt lat="43.47518" lon="3.72836">
        <ele>189.3</ele>
        <time>2013-03-10T10:00:50Z</time>
      </trkpt>
      <trkpt lat="43.47509" lon="3.72839">
        <ele>187.5</ele>
        <time>2013-03-10T10:01:18Z</time>
      </trkpt>
      <trkpt lat="43.47508" lon="3.72839">
        <ele>187.4</ele>
        <time>2013-03-10T10:01:19Z</time>
      </trkpt>
      <trkpt lat="43.47493" lon="3.72845">
        <ele>182.7</ele>
        <time>2013-03-10T10:01:52Z</time>
      </trkpt>
      <trkpt lat="43.47488" lon="3.72836">
        <ele>183.6</ele>
        <time>2013-03-10T10:02:01Z</time>
      </trkpt>
      <trkpt lat="43.47483" lon="3.72827">
        <ele>183.1</ele>
        <time>2013-03-10T10:02:14Z</time>
      </trkpt>
      <trkpt lat="43.47478" lon="3.72818">
        <ele>183</ele>
        <time>2013-03-10T10:02:23Z</time>
      </trkpt>
      <trkpt lat="43.47478" lon="3.72816">
        <ele>183</ele>
        <time>2013-03-10T10:02:24Z</time>
      </trkpt>
      <trkpt lat="43.47464" lon="3.72802">
        <ele>178.7</ele>
        <time>2013-03-10T10:02:56Z</time>
      </trkpt>
      <trkpt lat="43.47457" lon="3.72796">
        <ele>176.4</ele>
        <time>2013-03-10T10:03:23Z</time>
      </trkpt>
      <trkpt lat="43.47448" lon="3.72795">
        <ele>171.8</ele>
        <time>2013-03-10T10:03:47Z</time>
      </trkpt>
      <trkpt lat="43.47448" lon="3.72795">
        <ele>171.7</ele>
        <time>2013-03-10T10:03:48Z</time>
      </trkpt>
      <trkpt lat="43.47431" lon="3.72795">
        <ele>164.8</ele>
        <time>2013-03-10T10:04:29Z</time>
      </trkpt>
      <trkpt lat="43.47424" lon="3.7279">
        <ele>160.6</ele>
        <time>2013-03-10T10:05:06Z</time>
      </trkpt>
      <trkpt lat="43.47423" lon="3.72789">
        <ele>160.4</ele>
        <time>2013-03-10T10:05:07Z</time>
      </trkpt>
      <trkpt lat="43.47408" lon="3.72783">
        <ele>159.1</ele>
        <time>2013-03-10T10:05:24Z</time>
      </trkpt>
      <trkpt lat="43.474" lon="3.72777">
        <ele>157.4</ele>
        <time>2013-03-10T10:05:32Z</time>
      </trkpt>
      <trkpt lat="43.47393" lon="3.72771">
        <ele>155.6</ele>
        <time>2013-03-10T10:05:41Z</time>
      </trkpt>
      <trkpt lat="43.47386" lon="3.72763">
        <ele>153.9</ele>
        <time>2013-03-10T10:05:50Z</time>
      </trkpt>
      <trkpt lat="43.4738" lon="3.72755">
        <ele>152.1</ele>
        <time>2013-03-10T10:05:58Z</time>
      </trkpt>
      <trkpt lat="43.47375" lon="3.72746">
        <ele>151.7</ele>
        <time>2013-03-10T10:06:09Z</time>
      </trkpt>
      <trkpt lat="43.47375" lon="3.72745">
        <ele>151.8</ele>
        <time>2013-03-10T10:06:10Z</time>
      </trkpt>
      <trkpt lat="43.47367" lon="3.72726">
        <ele>148.7</ele>
        <time>2013-03-10T10:06:27Z</time>
      </trkpt>
      <trkpt lat="43.47364" lon="3.72716">
        <ele>148.3</ele>
        <time>2013-03-10T10:06:34Z</time>
      </trkpt>
      <trkpt lat="43.47358" lon="3.72708">
        <ele>147.6</ele>
        <time>2013-03-10T10:06:46Z</time>
      </trkpt>
      <trkpt lat="43.47353" lon="3.727">
        <ele>146.3</ele>
        <time>2013-03-10T10:06:54Z</time>
      </trkpt>
      <trkpt lat="43.47347" lon="3.72691">
        <ele>144.2</ele>
        <time>2013-03-10T10:07:12Z</time>
      </trkpt>
      <trkpt lat="43.47346" lon="3.7269">
        <ele>144.2</ele>
        <time>2013-03-10T10:07:13Z</time>
      </trkpt>
      <trkpt lat="43.47329" lon="3.72688">
        <ele>138.5</ele>
        <time>2013-03-10T10:07:39Z</time>
      </trkpt>
      <trkpt lat="43.47321" lon="3.72687">
        <ele>136.6</ele>
        <time>2013-03-10T10:07:57Z</time>
      </trkpt>
      <trkpt lat="43.47312" lon="3.72686">
        <ele>133.5</ele>
        <time>2013-03-10T10:08:10Z</time>
      </trkpt>
      <trkpt lat="43.47304" lon="3.72684">
        <ele>131</ele>
        <time>2013-03-10T10:08:20Z</time>
      </trkpt>
      <trkpt lat="43.47303" lon="3.72683">
        <ele>130.9</ele>
        <time>2013-03-10T10:08:21Z</time>
      </trkpt>
      <trkpt lat="43.47287" lon="3.72683">
        <ele>124.8</ele>
        <time>2013-03-10T10:08:54Z</time>
      </trkpt>
      <trkpt lat="43.47279" lon="3.72688">
        <ele>122.9</ele>
        <time>2013-03-10T10:09:06Z</time>
      </trkpt>
      <trkpt lat="43.4727" lon="3.72687">
        <ele>119.8</ele>
        <time>2013-03-10T10:09:21Z</time>
      </trkpt>
      <trkpt lat="43.47263" lon="3.72682">
        <ele>118.1</ele>
        <time>2013-03-10T10:09:31Z</time>
      </trkpt>
      <trkpt lat="43.47262" lon="3.72681">
        <ele>117.6</ele>
        <time>2013-03-10T10:09:32Z</time>
      </trkpt>
      <trkpt lat="43.47247" lon="3.72672">
        <ele>115.5</ele>
        <time>2013-03-10T10:09:49Z</time>
      </trkpt>
      <trkpt lat="43.47239" lon="3.72673">
        <ele>112.2</ele>
        <time>2013-03-10T10:10:02Z</time>
      </trkpt>
      <trkpt lat="43.47232" lon="3.72675">
        <ele>109.8</ele>
        <time>2013-03-10T10:10:14Z</time>
      </trkpt>
      <trkpt lat="43.47223" lon="3.72677">
        <ele>108.7</ele>
        <time>2013-03-10T10:10:21Z</time>
      </trkpt>
      <trkpt lat="43.47215" lon="3.72678">
        <ele>106.4</ele>
        <time>2013-03-10T10:10:30Z</time>
      </trkpt>
      <trkpt lat="43.47206" lon="3.72679">
        <ele>104.2</ele>
        <time>2013-03-10T10:10:40Z</time>
      </trkpt>
      <trkpt lat="43.47205" lon="3.72679">
        <ele>104</ele>
        <time>2013-03-10T10:10:41Z</time>
      </trkpt>
      <trkpt lat="43.47189" lon="3.72683">
        <ele>104.4</ele>
        <time>2013-03-10T10:11:07Z</time>
      </trkpt>
      <trkpt lat="43.47183" lon="3.72692">
        <ele>107.5</ele>
        <time>2013-03-10T10:11:32Z</time>
      </trkpt>
      <trkpt lat="43.47175" lon="3.72698">
        <ele>108.1</ele>
        <time>2013-03-10T10:12:05Z</time>
      </trkpt>
      <trkpt lat="43.47175" lon="3.727">
        <ele>108.2</ele>
        <time>2013-03-10T10:12:06Z</time>
      </trkpt>
      <trkpt lat="43.47172" lon="3.72721">
        <ele>112.9</ele>
        <time>2013-03-10T10:12:32Z</time>
      </trkpt>
      <trkpt lat="43.47169" lon="3.72732">
        <ele>112.8</ele>
        <time>2013-03-10T10:12:55Z</time>
      </trkpt>
      <trkpt lat="43.47165" lon="3.72743">
        <ele>114.2</ele>
        <time>2013-03-10T10:13:07Z</time>
      </trkpt>
      <trkpt lat="43.47165" lon="3.72744">
        <ele>114.5</ele>
        <time>2013-03-10T10:13:08Z</time>
      </trkpt>
      <trkpt lat="43.47154" lon="3.72762">
        <ele>117.7</ele>
        <time>2013-03-10T10:13:38Z</time>
      </trkpt>
      <trkpt lat="43.47147" lon="3.72769">
        <ele>120.6</ele>
        <time>2013-03-10T10:13:55Z</time>
      </trkpt>
      <trkpt lat="43.4714" lon="3.72776">
        <ele>122.5</ele>
        <time>2013-03-10T10:14:07Z</time>
      </trkpt>
      <trkpt lat="43.47132" lon="3.72782">
        <ele>123.9</ele>
        <time>2013-03-10T10:14:19Z</time>
      </trkpt>
      <trkpt lat="43.47132" lon="3.72782">
        <ele>124.2</ele>
        <time>2013-03-10T10:14:20Z</time>
      </trkpt>
      <trkpt lat="43.47119" lon="3.72796">
        <ele>126.4</ele>
        <time>2013-03-10T10:14:42Z</time>
      </trkpt>
      <trkpt lat="43.47112" lon="3.72804">
        <ele>127.9</ele>
        <time>2013-03-10T10:14:53Z</time>
      </trkpt>
      <trkpt lat="43.47107" lon="3.72813">
        <ele>129.5</ele>
        <time>2013-03-10T10:15:05Z</time>
      </trkpt>
      <trkpt lat="43.471" lon="3.72821">
        <ele>132.7</ele>
        <time>2013-03-10T10:15:18Z</time>
      </trkpt>
      <trkpt lat="43.47092" lon="3.72826">
        <ele>135.2</ele>
        <time>2013-03-10T10:15:35Z</time>
      </trkpt>
      <trkpt lat="43.47092" lon="3.72826">
        <ele>135.4</ele>
        <time>2013-03-10T10:15:36Z</time>
      </trkpt>
      <trkpt lat="43.47075" lon="3.72828">
        <ele>134.8</ele>
        <time>2013-03-10T10:15:57Z</time>
      </trkpt>
      <trkpt lat="43.47067" lon="3.72827">
        <ele>134.6</ele>
        <time>2013-03-10T10:17:37Z</time>
      </trkpt>
      <trkpt lat="43.47065" lon="3.72827">
        <ele>134.8</ele>
        <time>2013-03-10T10:17:38Z</time>
      </trkpt>
      <trkpt lat="43.47051" lon="3.72822">
        <ele>132.2</ele>
        <time>2013-03-10T10:17:53Z</time>
      </trkpt>
      <trkpt lat="43.47043" lon="3.72819">
        <ele>129.9</ele>
        <time>2013-03-10T10:18:02Z</time>
      </trkpt>
      <trkpt lat="43.47035" lon="3.72822">
        <ele>127.2</ele>
        <time>2013-03-10T10:18:18Z</time>
      </trkpt>
      <trkpt lat="43.47026" lon="3.72822">
        <ele>126.4</ele>
        <time>2013-03-10T10:18:27Z</time>
      </trkpt>
      <trkpt lat="43.47019" lon="3.72819">
        <ele>125.4</ele>
        <time>2013-03-10T10:18:34Z</time>
      </trkpt>
      <trkpt lat="43.4701" lon="3.72817">
        <ele>122.3</ele>
        <time>2013-03-10T10:18:42Z</time>
      </trkpt>
      <trkpt lat="43.47009" lon="3.72817">
        <ele>121.8</ele>
        <time>2013-03-10T10:18:43Z</time>
      </trkpt>
      <trkpt lat="43.46993" lon="3.72815">
        <ele>120.9</ele>
        <time>2013-03-10T10:19:01Z</time>
      </trkpt>
      <trkpt lat="43.46985" lon="3.72817">
        <ele>119.9</ele>
        <time>2013-03-10T10:19:09Z</time>
      </trkpt>
      <trkpt lat="43.46977" lon="3.72817">
        <ele>118.9</ele>
        <time>2013-03-10T10:19:16Z</time>
      </trkpt>
      <trkpt lat="43.46968" lon="3.72819">
        <ele>119</ele>
        <time>2013-03-10T10:19:26Z</time>
      </trkpt>
      <trkpt lat="43.4696" lon="3.72823">
        <ele>118.1</ele>
        <time>2013-03-10T10:19:35Z</time>
      </trkpt>
      <trkpt lat="43.46953" lon="3.72829">
        <ele>117.3</ele>
        <time>2013-03-10T10:19:44Z</time>
      </trkpt>
      <trkpt lat="43.46952" lon="3.7283">
        <ele>117.1</ele>
        <time>2013-03-10T10:19:45Z</time>
      </trkpt>
      <trkpt lat="43.46936" lon="3.72834">
        <ele>116</ele>
        <time>2013-03-10T10:20:01Z</time>
      </trkpt>
      <trkpt lat="43.46927" lon="3.72837">
        <ele>115.6</ele>
        <time>2013-03-10T10:20:10Z</time>
      </trkpt>
      <trkpt lat="43.46919" lon="3.72836">
        <ele>114.9</ele>
        <time>2013-03-10T10:20:18Z</time>
      </trkpt>
      <trkpt lat="43.4691" lon="3.72839">
        <ele>114.2</ele>
        <time>2013-03-10T10:20:25Z</time>
      </trkpt>
      <trkpt lat="43.46903" lon="3.72844">
        <ele>112.3</ele>
        <time>2013-03-10T10:20:32Z</time>
      </trkpt>
      <trkpt lat="43.46895" lon="3.72847">
        <ele>112.3</ele>
        <time>2013-03-10T10:20:39Z</time>
      </trkpt>
      <trkpt lat="43.46888" lon="3.72849">
        <ele>112.5</ele>
        <time>2013-03-10T10:20:45Z</time>
      </trkpt>
      <trkpt lat="43.46879" lon="3.72851">
        <ele>112.7</ele>
        <time>2013-03-10T10:20:51Z</time>
      </trkpt>
      <trkpt lat="43.46878" lon="3.72852">
        <ele>112.3</ele>
        <time>2013-03-10T10:20:52Z</time>
      </trkpt>
      <trkpt lat="43.46864" lon="3.7286">
        <ele>111.4</ele>
        <time>2013-03-10T10:21:04Z</time>
      </trkpt>
      <trkpt lat="43.46857" lon="3.72865">
        <ele>111.4</ele>
        <time>2013-03-10T10:21:11Z</time>
      </trkpt>
      <trkpt lat="43.4685" lon="3.72872">
        <ele>110.6</ele>
        <time>2013-03-10T10:21:18Z</time>
      </trkpt>
      <trkpt lat="43.46846" lon="3.72882">
        <ele>110.5</ele>
        <time>2013-03-10T10:21:26Z</time>
      </trkpt>
      <trkpt lat="43.46839" lon="3.72889">
        <ele>109.7</ele>
        <time>2013-03-10T10:21:35Z</time>
      </trkpt>
      <trkpt lat="43.46831" lon="3.72893">
        <ele>109.2</ele>
        <time>2013-03-10T10:21:42Z</time>
      </trkpt>
      <trkpt lat="43.46825" lon="3.72902">
        <ele>108.7</ele>
        <time>2013-03-10T10:21:49Z</time>
      </trkpt>
      <trkpt lat="43.46818" lon="3.72909">
        <ele>108.7</ele>
        <time>2013-03-10T10:21:56Z</time>
      </trkpt>
      <trkpt lat="43.46817" lon="3.7291">
        <ele>108.9</ele>
        <time>2013-03-10T10:21:57Z</time>
      </trkpt>
      <trkpt lat="43.46804" lon="3.72922">
        <ele>105.6</ele>
        <time>2013-03-10T10:22:16Z</time>
      </trkpt>
      <trkpt lat="43.46799" lon="3.72932">
        <ele>104.1</ele>
        <time>2013-03-10T10:22:25Z</time>
      </trkpt>
      <trkpt lat="43.46796" lon="3.72942">
        <ele>104</ele>
        <time>2013-03-10T10:22:31Z</time>
      </trkpt>
      <trkpt lat="43.46793" lon="3.72953">
        <ele>102.1</ele>
        <time>2013-03-10T10:22:38Z</time>
      </trkpt>
      <trkpt lat="43.4679" lon="3.72963">
        <ele>102.1</ele>
        <time>2013-03-10T10:22:45Z</time>
      </trkpt>
      <trkpt lat="43.46786" lon="3.72974">
        <ele>102.8</ele>
        <time>2013-03-10T10:22:52Z</time>
      </trkpt>
      <trkpt lat="43.46784" lon="3.72985">
        <ele>101.8</ele>
        <time>2013-03-10T10:23:00Z</time>
      </trkpt>
      <trkpt lat="43.46784" lon="3.72987">
        <ele>101.8</ele>
        <time>2013-03-10T10:23:01Z</time>
      </trkpt>
      <trkpt lat="43.4678" lon="3.73008">
        <ele>100.5</ele>
        <time>2013-03-10T10:23:16Z</time>
      </trkpt>
      <trkpt lat="43.46777" lon="3.73018">
        <ele>100.3</ele>
        <time>2013-03-10T10:23:24Z</time>
      </trkpt>
      <trkpt lat="43.46774" lon="3.73029">
        <ele>98.5</ele>
        <time>2013-03-10T10:23:33Z</time>
      </trkpt>
      <trkpt lat="43.46773" lon="3.7304">
        <ele>97.6</ele>
        <time>2013-03-10T10:23:42Z</time>
      </trkpt>
      <trkpt lat="43.46769" lon="3.73051">
        <ele>97.9</ele>
        <time>2013-03-10T10:23:51Z</time>
      </trkpt>
      <trkpt lat="43.46766" lon="3.73061">
        <ele>96.6</ele>
        <time>2013-03-10T10:23:59Z</time>
      </trkpt>
      <trkpt lat="43.46763" lon="3.73071">
        <ele>97.4</ele>
        <time>2013-03-10T10:24:06Z</time>
      </trkpt>
      <trkpt lat="43.46763" lon="3.73073">
        <ele>97.3</ele>
        <time>2013-03-10T10:24:07Z</time>
      </trkpt>
      <trkpt lat="43.46758" lon="3.73094">
        <ele>96.2</ele>
        <time>2013-03-10T10:24:23Z</time>
      </trkpt>
      <trkpt lat="43.46755" lon="3.73105">
        <ele>95.3</ele>
        <time>2013-03-10T10:24:32Z</time>
      </trkpt>
      <trkpt lat="43.46752" lon="3.73116">
        <ele>93.4</ele>
        <time>2013-03-10T10:24:41Z</time>
      </trkpt>
      <trkpt lat="43.46751" lon="3.73128">
        <ele>94.4</ele>
        <time>2013-03-10T10:24:50Z</time>
      </trkpt>
      <trkpt lat="43.46748" lon="3.73139">
        <ele>92.5</ele>
        <time>2013-03-10T10:24:58Z</time>
      </trkpt>
      <trkpt lat="43.46748" lon="3.73151">
        <ele>92.7</ele>
        <time>2013-03-10T10:25:05Z</time>
      </trkpt>
      <trkpt lat="43.46746" lon="3.73163">
        <ele>92.4</ele>
        <time>2013-03-10T10:25:12Z</time>
      </trkpt>
      <trkpt lat="43.46746" lon="3.73165">
        <ele>92.6</ele>
        <time>2013-03-10T10:25:13Z</time>
      </trkpt>
      <trkpt lat="43.46743" lon="3.73187">
        <ele>91</ele>
        <time>2013-03-10T10:25:28Z</time>
      </trkpt>
      <trkpt lat="43.4674" lon="3.73198">
        <ele>91.7</ele>
        <time>2013-03-10T10:25:35Z</time>
      </trkpt>
      <trkpt lat="43.4674" lon="3.73209">
        <ele>91.3</ele>
        <time>2013-03-10T10:25:42Z</time>
      </trkpt>
      <trkpt lat="43.4674" lon="3.7322">
        <ele>91.1</ele>
        <time>2013-03-10T10:25:49Z</time>
      </trkpt>
      <trkpt lat="43.46742" lon="3.73231">
        <ele>89.6</ele>
        <time>2013-03-10T10:25:56Z</time>
      </trkpt>
      <trkpt lat="43.46747" lon="3.73242">
        <ele>90.2</ele>
        <time>2013-03-10T10:26:04Z</time>
      </trkpt>
      <trkpt lat="43.46744" lon="3.73254">
        <ele>89.3</ele>
        <time>2013-03-10T10:26:12Z</time>
      </trkpt>
      <trkpt lat="43.46743" lon="3.73265">
        <ele>87.9</ele>
        <time>2013-03-10T10:26:19Z</time>
      </trkpt>
      <trkpt lat="43.46742" lon="3.73266">
        <ele>88</ele>
        <time>2013-03-10T10:26:20Z</time>
      </trkpt>
      <trkpt lat="43.4674" lon="3.73288">
        <ele>88.8</ele>
        <time>2013-03-10T10:26:34Z</time>
      </trkpt>
      <trkpt lat="43.4674" lon="3.73299">
        <ele>88.9</ele>
        <time>2013-03-10T10:26:41Z</time>
      </trkpt>
      <trkpt lat="43.4674" lon="3.73311">
        <ele>88.2</ele>
        <time>2013-03-10T10:26:48Z</time>
      </trkpt>
      <trkpt lat="43.46741" lon="3.73322">
        <ele>88.2</ele>
        <time>2013-03-10T10:26:55Z</time>
      </trkpt>
      <trkpt lat="43.46742" lon="3.73334">
        <ele>87.5</ele>
        <time>2013-03-10T10:27:04Z</time>
      </trkpt>
      <trkpt lat="43.46744" lon="3.73345">
        <ele>87</ele>
        <time>2013-03-10T10:27:30Z</time>
      </trkpt>
      <trkpt lat="43.46744" lon="3.73346">
        <ele>87.2</ele>
        <time>2013-03-10T10:27:31Z</time>
      </trkpt>
      <trkpt lat="43.46746" lon="3.73357">
        <ele>87.4</ele>
        <time>2013-03-10T10:28:43Z</time>
      </trkpt>
      <trkpt lat="43.46749" lon="3.7337">
        <ele>87.6</ele>
        <time>2013-03-10T10:29:47Z</time>
      </trkpt>
      <trkpt lat="43.46763" lon="3.73388">
        <ele>87.9</ele>
        <time>2013-03-10T10:30:39Z</time>
      </trkpt>
      <trkpt lat="43.4677" lon="3.73393">
        <ele>88.3</ele>
        <time>2013-03-10T10:30:46Z</time>
      </trkpt>
      <trkpt lat="43.46777" lon="3.73401">
        <ele>89.7</ele>
        <time>2013-03-10T10:30:54Z</time>
      </trkpt>
      <trkpt lat="43.46778" lon="3.73402">
        <ele>89.7</ele>
        <time>2013-03-10T10:30:55Z</time>
      </trkpt>
      <trkpt lat="43.46792" lon="3.73411">
        <ele>91.6</ele>
        <time>2013-03-10T10:31:13Z</time>
      </trkpt>
      <trkpt lat="43.468" lon="3.73418">
        <ele>94.8</ele>
        <time>2013-03-10T10:31:43Z</time>
      </trkpt>
      <trkpt lat="43.46808" lon="3.73419">
        <ele>94.9</ele>
        <time>2013-03-10T10:31:51Z</time>
      </trkpt>
      <trkpt lat="43.46816" lon="3.73422">
        <ele>96.4</ele>
        <time>2013-03-10T10:31:58Z</time>
      </trkpt>
      <trkpt lat="43.46817" lon="3.73423">
        <ele>96.6</ele>
        <time>2013-03-10T10:31:59Z</time>
      </trkpt>
      <trkpt lat="43.46831" lon="3.73431">
        <ele>97.8</ele>
        <time>2013-03-10T10:32:13Z</time>
      </trkpt>
      <trkpt lat="43.46839" lon="3.73435">
        <ele>100.1</ele>
        <time>2013-03-10T10:32:22Z</time>
      </trkpt>
      <trkpt lat="43.46847" lon="3.73438">
        <ele>101.6</ele>
        <time>2013-03-10T10:32:32Z</time>
      </trkpt>
      <trkpt lat="43.46855" lon="3.73437">
        <ele>105.4</ele>
        <time>2013-03-10T10:32:48Z</time>
      </trkpt>
      <trkpt lat="43.46864" lon="3.73439">
        <ele>107</ele>
        <time>2013-03-10T10:32:58Z</time>
      </trkpt>
      <trkpt lat="43.46872" lon="3.73441">
        <ele>109.2</ele>
        <time>2013-03-10T10:33:09Z</time>
      </trkpt>
      <trkpt lat="43.46873" lon="3.73441">
        <ele>109.5</ele>
        <time>2013-03-10T10:33:10Z</time>
      </trkpt>
      <trkpt lat="43.46881" lon="3.73459">
        <ele>110.3</ele>
        <time>2013-03-10T10:35:02Z</time>
      </trkpt>
      <trkpt lat="43.46882" lon="3.73461">
        <ele>110.1</ele>
        <time>2013-03-10T10:35:03Z</time>
      </trkpt>
      <trkpt lat="43.46893" lon="3.73476">
        <ele>108.6</ele>
        <time>2013-03-10T10:35:15Z</time>
      </trkpt>
      <trkpt lat="43.46897" lon="3.73486">
        <ele>108.5</ele>
        <time>2013-03-10T10:35:23Z</time>
      </trkpt>
      <trkpt lat="43.46902" lon="3.73494">
        <ele>108.3</ele>
        <time>2013-03-10T10:35:29Z</time>
      </trkpt>
      <trkpt lat="43.46907" lon="3.73503">
        <ele>108.2</ele>
        <time>2013-03-10T10:35:36Z</time>
      </trkpt>
      <trkpt lat="43.46912" lon="3.73513">
        <ele>109.1</ele>
        <time>2013-03-10T10:35:44Z</time>
      </trkpt>
      <trkpt lat="43.46917" lon="3.73522">
        <ele>108.3</ele>
        <time>2013-03-10T10:35:52Z</time>
      </trkpt>
      <trkpt lat="43.4692" lon="3.73534">
        <ele>106.8</ele>
        <time>2013-03-10T10:36:02Z</time>
      </trkpt>
      <trkpt lat="43.46924" lon="3.73544">
        <ele>106.7</ele>
        <time>2013-03-10T10:36:10Z</time>
      </trkpt>
      <trkpt lat="43.46924" lon="3.73545">
        <ele>106.9</ele>
        <time>2013-03-10T10:36:11Z</time>
      </trkpt>
      <trkpt lat="43.46934" lon="3.73563">
        <ele>106</ele>
        <time>2013-03-10T10:36:25Z</time>
      </trkpt>
      <trkpt lat="43.46941" lon="3.73569">
        <ele>106.8</ele>
        <time>2013-03-10T10:36:45Z</time>
      </trkpt>
      <trkpt lat="43.46947" lon="3.73577">
        <ele>105.1</ele>
        <time>2013-03-10T10:36:52Z</time>
      </trkpt>
      <trkpt lat="43.46948" lon="3.73589">
        <ele>102.4</ele>
        <time>2013-03-10T10:37:03Z</time>
      </trkpt>
      <trkpt lat="43.46957" lon="3.73586">
        <ele>103.4</ele>
        <time>2013-03-10T10:38:12Z</time>
      </trkpt>
      <trkpt lat="43.46957" lon="3.73586">
        <ele>103.4</ele>
        <time>2013-03-10T10:38:13Z</time>
      </trkpt>
      <trkpt lat="43.46973" lon="3.73593">
        <ele>106.4</ele>
        <time>2013-03-10T10:38:33Z</time>
      </trkpt>
      <trkpt lat="43.46981" lon="3.73592">
        <ele>108.5</ele>
        <time>2013-03-10T10:38:44Z</time>
      </trkpt>
      <trkpt lat="43.4699" lon="3.73594">
        <ele>109.9</ele>
        <time>2013-03-10T10:38:55Z</time>
      </trkpt>
      <trkpt lat="43.46999" lon="3.73594">
        <ele>111.5</ele>
        <time>2013-03-10T10:39:08Z</time>
      </trkpt>
      <trkpt lat="43.47007" lon="3.73595">
        <ele>111.7</ele>
        <time>2013-03-10T10:39:20Z</time>
      </trkpt>
      <trkpt lat="43.47008" lon="3.73595">
        <ele>111.8</ele>
        <time>2013-03-10T10:39:21Z</time>
      </trkpt>
      <trkpt lat="43.47024" lon="3.73595">
        <ele>115</ele>
        <time>2013-03-10T10:39:41Z</time>
      </trkpt>
      <trkpt lat="43.47033" lon="3.73595">
        <ele>116.6</ele>
        <time>2013-03-10T10:39:50Z</time>
      </trkpt>
      <trkpt lat="43.47041" lon="3.736">
        <ele>117.2</ele>
        <time>2013-03-10T10:39:59Z</time>
      </trkpt>
      <trkpt lat="43.47049" lon="3.73602">
        <ele>117.9</ele>
        <time>2013-03-10T10:40:07Z</time>
      </trkpt>
      <trkpt lat="43.47057" lon="3.73604">
        <ele>119.4</ele>
        <time>2013-03-10T10:40:13Z</time>
      </trkpt>
      <trkpt lat="43.47065" lon="3.73606">
        <ele>120.1</ele>
        <time>2013-03-10T10:40:20Z</time>
      </trkpt>
      <trkpt lat="43.47074" lon="3.73607">
        <ele>120.1</ele>
        <time>2013-03-10T10:40:27Z</time>
      </trkpt>
      <trkpt lat="43.47075" lon="3.73607">
        <ele>120.1</ele>
        <time>2013-03-10T10:40:28Z</time>
      </trkpt>
      <trkpt lat="43.47091" lon="3.73609">
        <ele>120.4</ele>
        <time>2013-03-10T10:40:55Z</time>
      </trkpt>
      <trkpt lat="43.471" lon="3.73609">
        <ele>121.1</ele>
        <time>2013-03-10T10:41:03Z</time>
      </trkpt>
      <trkpt lat="43.47107" lon="3.73609">
        <ele>120.8</ele>
        <time>2013-03-10T10:41:09Z</time>
      </trkpt>
      <trkpt lat="43.47116" lon="3.73608">
        <ele>121.7</ele>
        <time>2013-03-10T10:41:18Z</time>
      </trkpt>
      <trkpt lat="43.47124" lon="3.73607">
        <ele>121.6</ele>
        <time>2013-03-10T10:41:26Z</time>
      </trkpt>
      <trkpt lat="43.47132" lon="3.73603">
        <ele>123.1</ele>
        <time>2013-03-10T10:41:44Z</time>
      </trkpt>
      <trkpt lat="43.47133" lon="3.73602">
        <ele>123.3</ele>
        <time>2013-03-10T10:41:45Z</time>
      </trkpt>
      <trkpt lat="43.47149" lon="3.73597">
        <ele>123.4</ele>
        <time>2013-03-10T10:42:08Z</time>
      </trkpt>
      <trkpt lat="43.47157" lon="3.73596">
        <ele>123.8</ele>
        <time>2013-03-10T10:42:18Z</time>
      </trkpt>
      <trkpt lat="43.47166" lon="3.73596">
        <ele>125</ele>
        <time>2013-03-10T10:42:28Z</time>
      </trkpt>
      <trkpt lat="43.47174" lon="3.73595">
        <ele>124.5</ele>
        <time>2013-03-10T10:42:37Z</time>
      </trkpt>
      <trkpt lat="43.47183" lon="3.73594">
        <ele>124.7</ele>
        <time>2013-03-10T10:42:45Z</time>
      </trkpt>
      <trkpt lat="43.47183" lon="3.73594">
        <ele>124.8</ele>
        <time>2013-03-10T10:42:46Z</time>
      </trkpt>
      <trkpt lat="43.47198" lon="3.73604">
        <ele>125.4</ele>
        <time>2013-03-10T10:43:03Z</time>
      </trkpt>
      <trkpt lat="43.47204" lon="3.73612">
        <ele>125.8</ele>
        <time>2013-03-10T10:43:13Z</time>
      </trkpt>
      <trkpt lat="43.4721" lon="3.7362">
        <ele>126.8</ele>
        <time>2013-03-10T10:43:23Z</time>
      </trkpt>
      <trkpt lat="43.47217" lon="3.73626">
        <ele>127.9</ele>
        <time>2013-03-10T10:43:30Z</time>
      </trkpt>
      <trkpt lat="43.47224" lon="3.73633">
        <ele>128.6</ele>
        <time>2013-03-10T10:43:39Z</time>
      </trkpt>
      <trkpt lat="43.47231" lon="3.7364">
        <ele>128.1</ele>
        <time>2013-03-10T10:43:48Z</time>
      </trkpt>
      <trkpt lat="43.47232" lon="3.7364">
        <ele>128.1</ele>
        <time>2013-03-10T10:43:49Z</time>
      </trkpt>
      <trkpt lat="43.47247" lon="3.73651">
        <ele>129.7</ele>
        <time>2013-03-10T10:44:10Z</time>
      </trkpt>
      <trkpt lat="43.47255" lon="3.73653">
        <ele>130.7</ele>
        <time>2013-03-10T10:44:25Z</time>
      </trkpt>
      <trkpt lat="43.47263" lon="3.73654">
        <ele>131</ele>
        <time>2013-03-10T10:44:33Z</time>
      </trkpt>
      <trkpt lat="43.47271" lon="3.73654">
        <ele>133.1</ele>
        <time>2013-03-10T10:44:42Z</time>
      </trkpt>
      <trkpt lat="43.4728" lon="3.73653">
        <ele>134.3</ele>
        <time>2013-03-10T10:44:51Z</time>
      </trkpt>
      <trkpt lat="43.4728" lon="3.73653">
        <ele>134.8</ele>
        <time>2013-03-10T10:44:52Z</time>
      </trkpt>
      <trkpt lat="43.47296" lon="3.73653">
        <ele>136</ele>
        <time>2013-03-10T10:45:12Z</time>
      </trkpt>
      <trkpt lat="43.47304" lon="3.73654">
        <ele>137.6</ele>
        <time>2013-03-10T10:45:20Z</time>
      </trkpt>
      <trkpt lat="43.47312" lon="3.73654">
        <ele>137.8</ele>
        <time>2013-03-10T10:45:27Z</time>
      </trkpt>
      <trkpt lat="43.4732" lon="3.73652">
        <ele>138.6</ele>
        <time>2013-03-10T10:45:34Z</time>
      </trkpt>
      <trkpt lat="43.47328" lon="3.7365">
        <ele>140.1</ele>
        <time>2013-03-10T10:45:42Z</time>
      </trkpt>
      <trkpt lat="43.47336" lon="3.73652">
        <ele>141</ele>
        <time>2013-03-10T10:45:50Z</time>
      </trkpt>
      <trkpt lat="43.47343" lon="3.73659">
        <ele>141.9</ele>
        <time>2013-03-10T10:46:00Z</time>
      </trkpt>
      <trkpt lat="43.47344" lon="3.73659">
        <ele>142</ele>
        <time>2013-03-10T10:46:01Z</time>
      </trkpt>
      <trkpt lat="43.47359" lon="3.7367">
        <ele>145.7</ele>
        <time>2013-03-10T10:46:16Z</time>
      </trkpt>
      <trkpt lat="43.47366" lon="3.73675">
        <ele>146.5</ele>
        <time>2013-03-10T10:46:22Z</time>
      </trkpt>
      <trkpt lat="43.47374" lon="3.73681">
        <ele>146.5</ele>
        <time>2013-03-10T10:46:28Z</time>
      </trkpt>
      <trkpt lat="43.47381" lon="3.73688">
        <ele>148.2</ele>
        <time>2013-03-10T10:46:35Z</time>
      </trkpt>
      <trkpt lat="43.47387" lon="3.73696">
        <ele>149.9</ele>
        <time>2013-03-10T10:47:02Z</time>
      </trkpt>
      <trkpt lat="43.47388" lon="3.73697">
        <ele>149.9</ele>
        <time>2013-03-10T10:47:03Z</time>
      </trkpt>
      <trkpt lat="43.47396" lon="3.73702">
        <ele>150.8</ele>
        <time>2013-03-10T10:49:46Z</time>
      </trkpt>
      <trkpt lat="43.47407" lon="3.73719">
        <ele>152.3</ele>
        <time>2013-03-10T10:50:02Z</time>
      </trkpt>
      <trkpt lat="43.47412" lon="3.73728">
        <ele>154</ele>
        <time>2013-03-10T10:50:09Z</time>
      </trkpt>
      <trkpt lat="43.47415" lon="3.73739">
        <ele>154.8</ele>
        <time>2013-03-10T10:50:16Z</time>
      </trkpt>
      <trkpt lat="43.47418" lon="3.7375">
        <ele>155.7</ele>
        <time>2013-03-10T10:50:23Z</time>
      </trkpt>
      <trkpt lat="43.47423" lon="3.73759">
        <ele>157.5</ele>
        <time>2013-03-10T10:50:30Z</time>
      </trkpt>
      <trkpt lat="43.47429" lon="3.73768">
        <ele>157.8</ele>
        <time>2013-03-10T10:50:37Z</time>
      </trkpt>
      <trkpt lat="43.47433" lon="3.73777">
        <ele>159.9</ele>
        <time>2013-03-10T10:50:43Z</time>
      </trkpt>
      <trkpt lat="43.47437" lon="3.73787">
        <ele>160.3</ele>
        <time>2013-03-10T10:50:49Z</time>
      </trkpt>
      <trkpt lat="43.47437" lon="3.73788">
        <ele>160.2</ele>
        <time>2013-03-10T10:50:50Z</time>
      </trkpt>
      <trkpt lat="43.47445" lon="3.73806">
        <ele>162.2</ele>
        <time>2013-03-10T10:51:02Z</time>
      </trkpt>
      <trkpt lat="43.4745" lon="3.73816">
        <ele>163.1</ele>
        <time>2013-03-10T10:51:09Z</time>
      </trkpt>
      <trkpt lat="43.47453" lon="3.73826">
        <ele>164.5</ele>
        <time>2013-03-10T10:51:16Z</time>
      </trkpt>
      <trkpt lat="43.47452" lon="3.73838">
        <ele>165.2</ele>
        <time>2013-03-10T10:51:22Z</time>
      </trkpt>
      <trkpt lat="43.47454" lon="3.73849">
        <ele>166.9</ele>
        <time>2013-03-10T10:51:30Z</time>
      </trkpt>
      <trkpt lat="43.47459" lon="3.73859">
        <ele>169.9</ele>
        <time>2013-03-10T10:51:40Z</time>
      </trkpt>
      <trkpt lat="43.47463" lon="3.73869">
        <ele>171.4</ele>
        <time>2013-03-10T10:51:49Z</time>
      </trkpt>
      <trkpt lat="43.4747" lon="3.73877">
        <ele>174.7</ele>
        <time>2013-03-10T10:51:57Z</time>
      </trkpt>
      <trkpt lat="43.47471" lon="3.73877">
        <ele>175.1</ele>
        <time>2013-03-10T10:51:58Z</time>
      </trkpt>
      <trkpt lat="43.47484" lon="3.73889">
        <ele>179.3</ele>
        <time>2013-03-10T10:52:18Z</time>
      </trkpt>
      <trkpt lat="43.47492" lon="3.73886">
        <ele>180.2</ele>
        <time>2013-03-10T10:52:26Z</time>
      </trkpt>
      <trkpt lat="43.47501" lon="3.73883">
        <ele>181.1</ele>
        <time>2013-03-10T10:52:45Z</time>
      </trkpt>
      <trkpt lat="43.47507" lon="3.73875">
        <ele>182.9</ele>
        <time>2013-03-10T10:56:16Z</time>
      </trkpt>
      <trkpt lat="43.47508" lon="3.73874">
        <ele>182.8</ele>
        <time>2013-03-10T10:56:17Z</time>
      </trkpt>
      <trkpt lat="43.47522" lon="3.73865">
        <ele>183.8</ele>
        <time>2013-03-10T10:56:35Z</time>
      </trkpt>
      <trkpt lat="43.47529" lon="3.73857">
        <ele>183.9</ele>
        <time>2013-03-10T10:56:48Z</time>
      </trkpt>
      <trkpt lat="43.47536" lon="3.73851">
        <ele>184</ele>
        <time>2013-03-10T10:57:02Z</time>
      </trkpt>
      <trkpt lat="43.47544" lon="3.73846">
        <ele>185.3</ele>
        <time>2013-03-10T10:57:13Z</time>
      </trkpt>
      <trkpt lat="43.47551" lon="3.73838">
        <ele>187.3</ele>
        <time>2013-03-10T10:57:32Z</time>
      </trkpt>
      <trkpt lat="43.47552" lon="3.73837">
        <ele>187.8</ele>
        <time>2013-03-10T10:57:33Z</time>
      </trkpt>
      <trkpt lat="43.47566" lon="3.7383">
        <ele>189.8</ele>
        <time>2013-03-10T10:57:49Z</time>
      </trkpt>
      <trkpt lat="43.47574" lon="3.73829">
        <ele>190.5</ele>
        <time>2013-03-10T10:57:57Z</time>
      </trkpt>
      <trkpt lat="43.47583" lon="3.7383">
        <ele>189.2</ele>
        <time>2013-03-10T10:58:05Z</time>
      </trkpt>
      <trkpt lat="43.47591" lon="3.73833">
        <ele>191</ele>
        <time>2013-03-10T10:58:21Z</time>
      </trkpt>
      <trkpt lat="43.47599" lon="3.73838">
        <ele>191.3</ele>
        <time>2013-03-10T10:58:32Z</time>
      </trkpt>
      <trkpt lat="43.47606" lon="3.73842">
        <ele>191.5</ele>
        <time>2013-03-10T10:58:39Z</time>
      </trkpt>
      <trkpt lat="43.47608" lon="3.73843">
        <ele>191.4</ele>
        <time>2013-03-10T10:58:40Z</time>
      </trkpt>
      <trkpt lat="43.47621" lon="3.73856">
        <ele>190.9</ele>
        <time>2013-03-10T10:59:06Z</time>
      </trkpt>
      <trkpt lat="43.47628" lon="3.73862">
        <ele>190.1</ele>
        <time>2013-03-10T10:59:19Z</time>
      </trkpt>
      <trkpt lat="43.47632" lon="3.73871">
        <ele>190.2</ele>
        <time>2013-03-10T10:59:27Z</time>
      </trkpt>
      <trkpt lat="43.47639" lon="3.73879">
        <ele>190.7</ele>
        <time>2013-03-10T10:59:44Z</time>
      </trkpt>
      <trkpt lat="43.4764" lon="3.73879">
        <ele>190.4</ele>
        <time>2013-03-10T10:59:45Z</time>
      </trkpt>
      <trkpt lat="43.47653" lon="3.73894">
        <ele>191.7</ele>
        <time>2013-03-10T11:00:18Z</time>
      </trkpt>
      <trkpt lat="43.47659" lon="3.73902">
        <ele>192.3</ele>
        <time>2013-03-10T11:00:37Z</time>
      </trkpt>
      <trkpt lat="43.47668" lon="3.73904">
        <ele>193.2</ele>
        <time>2013-03-10T11:01:33Z</time>
      </trkpt>
      <trkpt lat="43.47668" lon="3.73904">
        <ele>193.2</ele>
        <time>2013-03-10T11:01:34Z</time>
      </trkpt>
      <trkpt lat="43.4768" lon="3.73918">
        <ele>193</ele>
        <time>2013-03-10T11:02:32Z</time>
      </trkpt>
      <trkpt lat="43.47688" lon="3.73923">
        <ele>192.2</ele>
        <time>2013-03-10T11:02:39Z</time>
      </trkpt>
      <trkpt lat="43.47689" lon="3.73923">
        <ele>192</ele>
        <time>2013-03-10T11:02:40Z</time>
      </trkpt>
      <trkpt lat="43.47702" lon="3.73911">
        <ele>193.2</ele>
        <time>2013-03-10T11:02:53Z</time>
      </trkpt>
      <trkpt lat="43.47708" lon="3.73903">
        <ele>193.7</ele>
        <time>2013-03-10T11:03:05Z</time>
      </trkpt>
      <trkpt lat="43.47712" lon="3.73895">
        <ele>195.5</ele>
        <time>2013-03-10T11:03:18Z</time>
      </trkpt>
      <trkpt lat="43.47717" lon="3.73885">
        <ele>195.4</ele>
        <time>2013-03-10T11:03:28Z</time>
      </trkpt>
      <trkpt lat="43.47721" lon="3.73874">
        <ele>198</ele>
        <time>2013-03-10T11:03:39Z</time>
      </trkpt>
      <trkpt lat="43.47728" lon="3.73867">
        <ele>198.7</ele>
        <time>2013-03-10T11:03:47Z</time>
      </trkpt>
      <trkpt lat="43.47729" lon="3.73866">
        <ele>198.7</ele>
        <time>2013-03-10T11:03:48Z</time>
      </trkpt>
      <trkpt lat="43.47743" lon="3.73869">
        <ele>202</ele>
        <time>2013-03-10T11:04:08Z</time>
      </trkpt>
      <trkpt lat="43.4775" lon="3.73875">
        <ele>201.2</ele>
        <time>2013-03-10T11:04:42Z</time>
      </trkpt>
      <trkpt lat="43.47756" lon="3.73882">
        <ele>201.7</ele>
        <time>2013-03-10T11:04:50Z</time>
      </trkpt>
      <trkpt lat="43.47757" lon="3.73883">
        <ele>201.8</ele>
        <time>2013-03-10T11:04:51Z</time>
      </trkpt>
      <trkpt lat="43.47771" lon="3.73894">
        <ele>202.6</ele>
        <time>2013-03-10T11:05:06Z</time>
      </trkpt>
      <trkpt lat="43.47777" lon="3.73903">
        <ele>202.6</ele>
        <time>2013-03-10T11:05:13Z</time>
      </trkpt>
      <trkpt lat="43.47784" lon="3.73911">
        <ele>202.3</ele>
        <time>2013-03-10T11:05:23Z</time>
      </trkpt>
      <trkpt lat="43.47789" lon="3.7392">
        <ele>202.7</ele>
        <time>2013-03-10T11:05:33Z</time>
      </trkpt>
      <trkpt lat="43.47794" lon="3.7393">
        <ele>202.4</ele>
        <time>2013-03-10T11:05:41Z</time>
      </trkpt>
      <trkpt lat="43.478" lon="3.73939">
        <ele>202.3</ele>
        <time>2013-03-10T11:05:50Z</time>
      </trkpt>
      <trkpt lat="43.47805" lon="3.73949">
        <ele>203.7</ele>
        <time>2013-03-10T11:05:58Z</time>
      </trkpt>
      <trkpt lat="43.47805" lon="3.7395">
        <ele>203.7</ele>
        <time>2013-03-10T11:05:59Z</time>
      </trkpt>
      <trkpt lat="43.47813" lon="3.7397">
        <ele>205.5</ele>
        <time>2013-03-10T11:06:18Z</time>
      </trkpt>
      <trkpt lat="43.4782" lon="3.73978">
        <ele>206.2</ele>
        <time>2013-03-10T11:06:36Z</time>
      </trkpt>
      <trkpt lat="43.47826" lon="3.73985">
        <ele>206.6</ele>
        <time>2013-03-10T11:06:43Z</time>
      </trkpt>
      <trkpt lat="43.47832" lon="3.73993">
        <ele>206.6</ele>
        <time>2013-03-10T11:06:51Z</time>
      </trkpt>
      <trkpt lat="43.47838" lon="3.74002">
        <ele>208</ele>
        <time>2013-03-10T11:07:02Z</time>
      </trkpt>
      <trkpt lat="43.47839" lon="3.74003">
        <ele>208.2</ele>
        <time>2013-03-10T11:07:03Z</time>
      </trkpt>
      <trkpt lat="43.47848" lon="3.7402">
        <ele>207.8</ele>
        <time>2013-03-10T11:07:21Z</time>
      </trkpt>
      <trkpt lat="43.47856" lon="3.74026">
        <ele>207.9</ele>
        <time>2013-03-10T11:07:39Z</time>
      </trkpt>
      <trkpt lat="43.47863" lon="3.74032">
        <ele>208.6</ele>
        <time>2013-03-10T11:07:49Z</time>
      </trkpt>
      <trkpt lat="43.4787" lon="3.7404">
        <ele>209</ele>
        <time>2013-03-10T11:08:09Z</time>
      </trkpt>
      <trkpt lat="43.47871" lon="3.7404">
        <ele>208.8</ele>
        <time>2013-03-10T11:08:10Z</time>
      </trkpt>
      <trkpt lat="43.47884" lon="3.7405">
        <ele>208.5</ele>
        <time>2013-03-10T11:08:24Z</time>
      </trkpt>
      <trkpt lat="43.47891" lon="3.74058">
        <ele>209.4</ele>
        <time>2013-03-10T11:08:31Z</time>
      </trkpt>
      <trkpt lat="43.47898" lon="3.74065">
        <ele>208.4</ele>
        <time>2013-03-10T11:08:40Z</time>
      </trkpt>
      <trkpt lat="43.47905" lon="3.74071">
        <ele>208.7</ele>
        <time>2013-03-10T11:08:47Z</time>
      </trkpt>
      <trkpt lat="43.47913" lon="3.74075">
        <ele>208.8</ele>
        <time>2013-03-10T11:08:54Z</time>
      </trkpt>
      <trkpt lat="43.47921" lon="3.74078">
        <ele>208.9</ele>
        <time>2013-03-10T11:09:01Z</time>
      </trkpt>
      <trkpt lat="43.47929" lon="3.74081">
        <ele>207.9</ele>
        <time>2013-03-10T11:09:09Z</time>
      </trkpt>
      <trkpt lat="43.47937" lon="3.74082">
        <ele>208.7</ele>
        <time>2013-03-10T11:09:16Z</time>
      </trkpt>
      <trkpt lat="43.47939" lon="3.74082">
        <ele>208.6</ele>
        <time>2013-03-10T11:09:17Z</time>
      </trkpt>
      <trkpt lat="43.47953" lon="3.7409">
        <ele>208.2</ele>
        <time>2013-03-10T11:09:35Z</time>
      </trkpt>
      <trkpt lat="43.47961" lon="3.74095">
        <ele>207.8</ele>
        <time>2013-03-10T11:09:55Z</time>
      </trkpt>
      <trkpt lat="43.47968" lon="3.74097">
        <ele>208</ele>
        <time>2013-03-10T11:10:03Z</time>
      </trkpt>
      <trkpt lat="43.47977" lon="3.741">
        <ele>207.4</ele>
        <time>2013-03-10T11:10:11Z</time>
      </trkpt>
      <trkpt lat="43.47985" lon="3.74103">
        <ele>207.8</ele>
        <time>2013-03-10T11:10:18Z</time>
      </trkpt>
      <trkpt lat="43.47986" lon="3.74104">
        <ele>208.2</ele>
        <time>2013-03-10T11:10:19Z</time>
      </trkpt>
      <trkpt lat="43.48" lon="3.7411">
        <ele>207.3</ele>
        <time>2013-03-10T11:10:30Z</time>
      </trkpt>
      <trkpt lat="43.48008" lon="3.74114">
        <ele>206.1</ele>
        <time>2013-03-10T11:10:38Z</time>
      </trkpt>
      <trkpt lat="43.48016" lon="3.74116">
        <ele>206.7</ele>
        <time>2013-03-10T11:10:45Z</time>
      </trkpt>
      <trkpt lat="43.48024" lon="3.74122">
        <ele>207.1</ele>
        <time>2013-03-10T11:10:53Z</time>
      </trkpt>
      <trkpt lat="43.48032" lon="3.74126">
        <ele>206.9</ele>
        <time>2013-03-10T11:11:02Z</time>
      </trkpt>
      <trkpt lat="43.4804" lon="3.74131">
        <ele>207.9</ele>
        <time>2013-03-10T11:11:08Z</time>
      </trkpt>
      <trkpt lat="43.48048" lon="3.74135">
        <ele>208.2</ele>
        <time>2013-03-10T11:11:14Z</time>
      </trkpt>
      <trkpt lat="43.48056" lon="3.74139">
        <ele>207.2</ele>
        <time>2013-03-10T11:11:27Z</time>
      </trkpt>
      <trkpt lat="43.48056" lon="3.74139">
        <ele>208</ele>
        <time>2013-03-10T11:11:28Z</time>
      </trkpt>
      <trkpt lat="43.4807" lon="3.74151">
        <ele>209.6</ele>
        <time>2013-03-10T11:11:47Z</time>
      </trkpt>
      <trkpt lat="43.4807" lon="3.74163">
        <ele>208.8</ele>
        <time>2013-03-10T11:11:58Z</time>
      </trkpt>
      <trkpt lat="43.48065" lon="3.74173">
        <ele>206.5</ele>
        <time>2013-03-10T11:12:11Z</time>
      </trkpt>
      <trkpt lat="43.48061" lon="3.74183">
        <ele>207</ele>
        <time>2013-03-10T11:12:18Z</time>
      </trkpt>
      <trkpt lat="43.48056" lon="3.74193">
        <ele>206.8</ele>
        <time>2013-03-10T11:12:27Z</time>
      </trkpt>
      <trkpt lat="43.4805" lon="3.74201">
        <ele>206.7</ele>
        <time>2013-03-10T11:12:34Z</time>
      </trkpt>
      <trkpt lat="43.4805" lon="3.74203">
        <ele>206.8</ele>
        <time>2013-03-10T11:12:35Z</time>
      </trkpt>
      <trkpt lat="43.48041" lon="3.74221">
        <ele>206</ele>
        <time>2013-03-10T11:12:50Z</time>
      </trkpt>
      <trkpt lat="43.48037" lon="3.74232">
        <ele>207.9</ele>
        <time>2013-03-10T11:13:05Z</time>
      </trkpt>
      <trkpt lat="43.48033" lon="3.74242">
        <ele>207.4</ele>
        <time>2013-03-10T11:13:14Z</time>
      </trkpt>
      <trkpt lat="43.48028" lon="3.74252">
        <ele>207.6</ele>
        <time>2013-03-10T11:13:22Z</time>
      </trkpt>
      <trkpt lat="43.48025" lon="3.74262">
        <ele>208.3</ele>
        <time>2013-03-10T11:13:30Z</time>
      </trkpt>
      <trkpt lat="43.48019" lon="3.74271">
        <ele>209.1</ele>
        <time>2013-03-10T11:13:38Z</time>
      </trkpt>
      <trkpt lat="43.48019" lon="3.74273">
        <ele>209.1</ele>
        <time>2013-03-10T11:13:39Z</time>
      </trkpt>
      <trkpt lat="43.4801" lon="3.74291">
        <ele>210.3</ele>
        <time>2013-03-10T11:13:53Z</time>
      </trkpt>
      <trkpt lat="43.48006" lon="3.74301">
        <ele>211.2</ele>
        <time>2013-03-10T11:14:01Z</time>
      </trkpt>
      <trkpt lat="43.48001" lon="3.74309">
        <ele>210.7</ele>
        <time>2013-03-10T11:14:06Z</time>
      </trkpt>
      <trkpt lat="43.47997" lon="3.74318">
        <ele>211.5</ele>
        <time>2013-03-10T11:14:11Z</time>
      </trkpt>
      <trkpt lat="43.47992" lon="3.74327">
        <ele>211.7</ele>
        <time>2013-03-10T11:14:17Z</time>
      </trkpt>
      <trkpt lat="43.47988" lon="3.74337">
        <ele>211.9</ele>
        <time>2013-03-10T11:14:23Z</time>
      </trkpt>
      <trkpt lat="43.47982" lon="3.74346">
        <ele>212</ele>
        <time>2013-03-10T11:14:30Z</time>
      </trkpt>
      <trkpt lat="43.47978" lon="3.74355">
        <ele>212.2</ele>
        <time>2013-03-10T11:14:37Z</time>
      </trkpt>
      <trkpt lat="43.47972" lon="3.74364">
        <ele>211.6</ele>
        <time>2013-03-10T11:14:53Z</time>
      </trkpt>
      <trkpt lat="43.47971" lon="3.74364">
        <ele>211.5</ele>
        <time>2013-03-10T11:14:54Z</time>
      </trkpt>
      <trkpt lat="43.47965" lon="3.74377">
        <ele>211.5</ele>
        <time>2013-03-10T11:15:34Z</time>
      </trkpt>
      <trkpt lat="43.4796" lon="3.74386">
        <ele>208.2</ele>
        <time>2013-03-10T11:15:47Z</time>
      </trkpt>
      <trkpt lat="43.47953" lon="3.74392">
        <ele>205.8</ele>
        <time>2013-03-10T11:16:54Z</time>
      </trkpt>
      <trkpt lat="43.47949" lon="3.7439">
        <ele>203.5</ele>
        <time>2013-03-10T11:30:17Z</time>
      </trkpt>
      <trkpt lat="43.47948" lon="3.74389">
        <ele>203.5</ele>
        <time>2013-03-10T11:31:17Z</time>
      </trkpt>
      <trkpt lat="43.47951" lon="3.74386">
        <ele>208.2</ele>
        <time>2013-03-10T12:04:39Z</time>
      </trkpt>
      <trkpt lat="43.47951" lon="3.74386">
        <ele>208.2</ele>
        <time>2013-03-10T12:04:40Z</time>
      </trkpt>
      <trkpt lat="43.47942" lon="3.74389">
        <ele>207.7</ele>
        <time>2013-03-10T12:08:33Z</time>
      </trkpt>
      <trkpt lat="43.47951" lon="3.74387">
        <ele>209</ele>
        <time>2013-03-10T12:13:24Z</time>
      </trkpt>
      <trkpt lat="43.47959" lon="3.74383">
        <ele>211.1</ele>
        <time>2013-03-10T12:17:04Z</time>
      </trkpt>
      <trkpt lat="43.47958" lon="3.74367">
        <ele>214.6</ele>
        <time>2013-03-10T12:17:25Z</time>
      </trkpt>
      <trkpt lat="43.47951" lon="3.74361">
        <ele>212.3</ele>
        <time>2013-03-10T12:17:34Z</time>
      </trkpt>
      <trkpt lat="43.47945" lon="3.74352">
        <ele>210</ele>
        <time>2013-03-10T12:17:48Z</time>
      </trkpt>
      <trkpt lat="43.47941" lon="3.74342">
        <ele>209.4</ele>
        <time>2013-03-10T12:17:56Z</time>
      </trkpt>
      <trkpt lat="43.47937" lon="3.74333">
        <ele>207.9</ele>
        <time>2013-03-10T12:18:06Z</time>
      </trkpt>
      <trkpt lat="43.47936" lon="3.74331">
        <ele>207.8</ele>
        <time>2013-03-10T12:18:07Z</time>
      </trkpt>
      <trkpt lat="43.47925" lon="3.74317">
        <ele>203.8</ele>
        <time>2013-03-10T12:18:28Z</time>
      </trkpt>
      <trkpt lat="43.47918" lon="3.74315">
        <ele>203.1</ele>
        <time>2013-03-10T12:18:35Z</time>
      </trkpt>
      <trkpt lat="43.47909" lon="3.74314">
        <ele>200.4</ele>
        <time>2013-03-10T12:18:46Z</time>
      </trkpt>
      <trkpt lat="43.47901" lon="3.74317">
        <ele>200.2</ele>
        <time>2013-03-10T12:18:55Z</time>
      </trkpt>
      <trkpt lat="43.47893" lon="3.7432">
        <ele>199</ele>
        <time>2013-03-10T12:19:03Z</time>
      </trkpt>
      <trkpt lat="43.47885" lon="3.74326">
        <ele>198</ele>
        <time>2013-03-10T12:19:10Z</time>
      </trkpt>
      <trkpt lat="43.47884" lon="3.74327">
        <ele>197.9</ele>
        <time>2013-03-10T12:19:11Z</time>
      </trkpt>
      <trkpt lat="43.47872" lon="3.74339">
        <ele>194.5</ele>
        <time>2013-03-10T12:19:29Z</time>
      </trkpt>
      <trkpt lat="43.47864" lon="3.74342">
        <ele>193.3</ele>
        <time>2013-03-10T12:19:35Z</time>
      </trkpt>
      <trkpt lat="43.47857" lon="3.74345">
        <ele>192.5</ele>
        <time>2013-03-10T12:19:41Z</time>
      </trkpt>
      <trkpt lat="43.47849" lon="3.74349">
        <ele>192.4</ele>
        <time>2013-03-10T12:19:48Z</time>
      </trkpt>
      <trkpt lat="43.47842" lon="3.74352">
        <ele>191.3</ele>
        <time>2013-03-10T12:19:55Z</time>
      </trkpt>
      <trkpt lat="43.47833" lon="3.74354">
        <ele>188.1</ele>
        <time>2013-03-10T12:20:03Z</time>
      </trkpt>
      <trkpt lat="43.47828" lon="3.74364">
        <ele>186.6</ele>
        <time>2013-03-10T12:20:12Z</time>
      </trkpt>
      <trkpt lat="43.47827" lon="3.74366">
        <ele>186.4</ele>
        <time>2013-03-10T12:20:13Z</time>
      </trkpt>
      <trkpt lat="43.47831" lon="3.74387">
        <ele>183.2</ele>
        <time>2013-03-10T12:20:33Z</time>
      </trkpt>
      <trkpt lat="43.47835" lon="3.74396">
        <ele>182.6</ele>
        <time>2013-03-10T12:20:41Z</time>
      </trkpt>
      <trkpt lat="43.47841" lon="3.74404">
        <ele>182.7</ele>
        <time>2013-03-10T12:20:49Z</time>
      </trkpt>
      <trkpt lat="43.47848" lon="3.74411">
        <ele>182.4</ele>
        <time>2013-03-10T12:20:58Z</time>
      </trkpt>
      <trkpt lat="43.47855" lon="3.74417">
        <ele>182.4</ele>
        <time>2013-03-10T12:21:05Z</time>
      </trkpt>
      <trkpt lat="43.47863" lon="3.74421">
        <ele>182.7</ele>
        <time>2013-03-10T12:21:13Z</time>
      </trkpt>
      <trkpt lat="43.47863" lon="3.74422">
        <ele>182.6</ele>
        <time>2013-03-10T12:21:14Z</time>
      </trkpt>
      <trkpt lat="43.47877" lon="3.74432">
        <ele>182</ele>
        <time>2013-03-10T12:21:29Z</time>
      </trkpt>
      <trkpt lat="43.47883" lon="3.74441">
        <ele>182.3</ele>
        <time>2013-03-10T12:21:36Z</time>
      </trkpt>
      <trkpt lat="43.47889" lon="3.74449">
        <ele>183</ele>
        <time>2013-03-10T12:21:44Z</time>
      </trkpt>
      <trkpt lat="43.47894" lon="3.74458">
        <ele>182.3</ele>
        <time>2013-03-10T12:21:51Z</time>
      </trkpt>
      <trkpt lat="43.47899" lon="3.74468">
        <ele>182.1</ele>
        <time>2013-03-10T12:21:58Z</time>
      </trkpt>
      <trkpt lat="43.47904" lon="3.74478">
        <ele>182.5</ele>
        <time>2013-03-10T12:22:05Z</time>
      </trkpt>
      <trkpt lat="43.47908" lon="3.74488">
        <ele>181.9</ele>
        <time>2013-03-10T12:22:12Z</time>
      </trkpt>
      <trkpt lat="43.47912" lon="3.74497">
        <ele>181.1</ele>
        <time>2013-03-10T12:22:18Z</time>
      </trkpt>
      <trkpt lat="43.47913" lon="3.74499">
        <ele>181.4</ele>
        <time>2013-03-10T12:22:19Z</time>
      </trkpt>
      <trkpt lat="43.47919" lon="3.74519">
        <ele>178.9</ele>
        <time>2013-03-10T12:22:32Z</time>
      </trkpt>
      <trkpt lat="43.47915" lon="3.7453">
        <ele>179.3</ele>
        <time>2013-03-10T12:22:39Z</time>
      </trkpt>
      <trkpt lat="43.4791" lon="3.7454">
        <ele>179</ele>
        <time>2013-03-10T12:22:46Z</time>
      </trkpt>
      <trkpt lat="43.47907" lon="3.7455">
        <ele>178.4</ele>
        <time>2013-03-10T12:22:53Z</time>
      </trkpt>
      <trkpt lat="43.47905" lon="3.74561">
        <ele>177.7</ele>
        <time>2013-03-10T12:23:26Z</time>
      </trkpt>
      <trkpt lat="43.47905" lon="3.74563">
        <ele>178.1</ele>
        <time>2013-03-10T12:23:27Z</time>
      </trkpt>
      <trkpt lat="43.47902" lon="3.74583">
        <ele>178.7</ele>
        <time>2013-03-10T12:23:41Z</time>
      </trkpt>
      <trkpt lat="43.47902" lon="3.74595">
        <ele>177</ele>
        <time>2013-03-10T12:23:48Z</time>
      </trkpt>
      <trkpt lat="43.47904" lon="3.74606">
        <ele>176.3</ele>
        <time>2013-03-10T12:23:56Z</time>
      </trkpt>
      <trkpt lat="43.47904" lon="3.74617">
        <ele>175.2</ele>
        <time>2013-03-10T12:24:05Z</time>
      </trkpt>
      <trkpt lat="43.47905" lon="3.74629">
        <ele>173.8</ele>
        <time>2013-03-10T12:24:13Z</time>
      </trkpt>
      <trkpt lat="43.47908" lon="3.74639">
        <ele>172.5</ele>
        <time>2013-03-10T12:24:21Z</time>
      </trkpt>
      <trkpt lat="43.47915" lon="3.74646">
        <ele>172.7</ele>
        <time>2013-03-10T12:24:31Z</time>
      </trkpt>
      <trkpt lat="43.47916" lon="3.74647">
        <ele>172.6</ele>
        <time>2013-03-10T12:24:32Z</time>
      </trkpt>
      <trkpt lat="43.47931" lon="3.74657">
        <ele>172.5</ele>
        <time>2013-03-10T12:24:54Z</time>
      </trkpt>
      <trkpt lat="43.47938" lon="3.74663">
        <ele>175.4</ele>
        <time>2013-03-10T12:25:04Z</time>
      </trkpt>
      <trkpt lat="43.47946" lon="3.74668">
        <ele>175.1</ele>
        <time>2013-03-10T12:25:12Z</time>
      </trkpt>
      <trkpt lat="43.47953" lon="3.74675">
        <ele>173.9</ele>
        <time>2013-03-10T12:25:20Z</time>
      </trkpt>
      <trkpt lat="43.47962" lon="3.74678">
        <ele>172.7</ele>
        <time>2013-03-10T12:25:36Z</time>
      </trkpt>
      <trkpt lat="43.47962" lon="3.74679">
        <ele>172.6</ele>
        <time>2013-03-10T12:25:37Z</time>
      </trkpt>
      <trkpt lat="43.47977" lon="3.74683">
        <ele>171.5</ele>
        <time>2013-03-10T12:25:50Z</time>
      </trkpt>
      <trkpt lat="43.47985" lon="3.74688">
        <ele>170.3</ele>
        <time>2013-03-10T12:25:59Z</time>
      </trkpt>
      <trkpt lat="43.47994" lon="3.74692">
        <ele>168.4</ele>
        <time>2013-03-10T12:26:08Z</time>
      </trkpt>
      <trkpt lat="43.48001" lon="3.74695">
        <ele>167.2</ele>
        <time>2013-03-10T12:26:17Z</time>
      </trkpt>
      <trkpt lat="43.48009" lon="3.747">
        <ele>166.7</ele>
        <time>2013-03-10T12:26:23Z</time>
      </trkpt>
      <trkpt lat="43.48016" lon="3.74706">
        <ele>165.7</ele>
        <time>2013-03-10T12:26:30Z</time>
      </trkpt>
      <trkpt lat="43.48024" lon="3.74711">
        <ele>166.1</ele>
        <time>2013-03-10T12:26:37Z</time>
      </trkpt>
      <trkpt lat="43.4803" lon="3.74718">
        <ele>167.2</ele>
        <time>2013-03-10T12:26:43Z</time>
      </trkpt>
      <trkpt lat="43.48031" lon="3.74719">
        <ele>166.9</ele>
        <time>2013-03-10T12:26:44Z</time>
      </trkpt>
      <trkpt lat="43.48042" lon="3.74732">
        <ele>166</ele>
        <time>2013-03-10T12:26:56Z</time>
      </trkpt>
      <trkpt lat="43.48047" lon="3.74741">
        <ele>166.6</ele>
        <time>2013-03-10T12:27:02Z</time>
      </trkpt>
      <trkpt lat="43.48051" lon="3.7475">
        <ele>168.4</ele>
        <time>2013-03-10T12:27:09Z</time>
      </trkpt>
      <trkpt lat="43.48055" lon="3.74761">
        <ele>168.7</ele>
        <time>2013-03-10T12:27:16Z</time>
      </trkpt>
      <trkpt lat="43.48059" lon="3.74772">
        <ele>169.5</ele>
        <time>2013-03-10T12:27:23Z</time>
      </trkpt>
      <trkpt lat="43.48062" lon="3.74783">
        <ele>171.6</ele>
        <time>2013-03-10T12:27:34Z</time>
      </trkpt>
      <trkpt lat="43.48063" lon="3.74795">
        <ele>169.6</ele>
        <time>2013-03-10T12:27:51Z</time>
      </trkpt>
      <trkpt lat="43.48063" lon="3.74796">
        <ele>169.5</ele>
        <time>2013-03-10T12:27:52Z</time>
      </trkpt>
      <trkpt lat="43.48066" lon="3.74817">
        <ele>168.6</ele>
        <time>2013-03-10T12:28:11Z</time>
      </trkpt>
      <trkpt lat="43.48065" lon="3.74828">
        <ele>169.7</ele>
        <time>2013-03-10T12:28:18Z</time>
      </trkpt>
      <trkpt lat="43.48063" lon="3.7484">
        <ele>170.8</ele>
        <time>2013-03-10T12:28:28Z</time>
      </trkpt>
      <trkpt lat="43.48058" lon="3.7485">
        <ele>166.8</ele>
        <time>2013-03-10T12:28:40Z</time>
      </trkpt>
      <trkpt lat="43.48056" lon="3.74862">
        <ele>165.3</ele>
        <time>2013-03-10T12:28:52Z</time>
      </trkpt>
      <trkpt lat="43.48053" lon="3.74873">
        <ele>162.8</ele>
        <time>2013-03-10T12:29:09Z</time>
      </trkpt>
      <trkpt lat="43.48052" lon="3.74874">
        <ele>162.6</ele>
        <time>2013-03-10T12:29:10Z</time>
      </trkpt>
      <trkpt lat="43.48041" lon="3.74888">
        <ele>155.9</ele>
        <time>2013-03-10T12:29:28Z</time>
      </trkpt>
      <trkpt lat="43.48038" lon="3.74899">
        <ele>150.8</ele>
        <time>2013-03-10T12:29:36Z</time>
      </trkpt>
      <trkpt lat="43.4803" lon="3.74904">
        <ele>149.9</ele>
        <time>2013-03-10T12:29:42Z</time>
      </trkpt>
      <trkpt lat="43.48027" lon="3.74915">
        <ele>146.9</ele>
        <time>2013-03-10T12:29:51Z</time>
      </trkpt>
      <trkpt lat="43.48022" lon="3.74925">
        <ele>143.2</ele>
        <time>2013-03-10T12:30:01Z</time>
      </trkpt>
      <trkpt lat="43.4802" lon="3.74937">
        <ele>139.9</ele>
        <time>2013-03-10T12:30:10Z</time>
      </trkpt>
      <trkpt lat="43.48013" lon="3.74945">
        <ele>136</ele>
        <time>2013-03-10T12:30:22Z</time>
      </trkpt>
      <trkpt lat="43.48012" lon="3.74945">
        <ele>135.5</ele>
        <time>2013-03-10T12:30:23Z</time>
      </trkpt>
      <trkpt lat="43.47998" lon="3.74958">
        <ele>128.5</ele>
        <time>2013-03-10T12:30:42Z</time>
      </trkpt>
      <trkpt lat="43.47996" lon="3.74969">
        <ele>126.4</ele>
        <time>2013-03-10T12:30:49Z</time>
      </trkpt>
      <trkpt lat="43.47992" lon="3.74979">
        <ele>128.2</ele>
        <time>2013-03-10T12:30:54Z</time>
      </trkpt>
      <trkpt lat="43.47988" lon="3.74988">
        <ele>128.2</ele>
        <time>2013-03-10T12:31:00Z</time>
      </trkpt>
      <trkpt lat="43.47986" lon="3.75">
        <ele>129.2</ele>
        <time>2013-03-10T12:31:07Z</time>
      </trkpt>
      <trkpt lat="43.47982" lon="3.75009">
        <ele>132</ele>
        <time>2013-03-10T12:31:42Z</time>
      </trkpt>
      <trkpt lat="43.47982" lon="3.75011">
        <ele>131.8</ele>
        <time>2013-03-10T12:31:43Z</time>
      </trkpt>
      <trkpt lat="43.47975" lon="3.7503">
        <ele>133.7</ele>
        <time>2013-03-10T12:31:53Z</time>
      </trkpt>
      <trkpt lat="43.47971" lon="3.7504">
        <ele>134.6</ele>
        <time>2013-03-10T12:32:02Z</time>
      </trkpt>
      <trkpt lat="43.47967" lon="3.75051">
        <ele>138</ele>
        <time>2013-03-10T12:32:19Z</time>
      </trkpt>
      <trkpt lat="43.47961" lon="3.75059">
        <ele>137.3</ele>
        <time>2013-03-10T12:34:01Z</time>
      </trkpt>
      <trkpt lat="43.4796" lon="3.7506">
        <ele>137.3</ele>
        <time>2013-03-10T12:34:02Z</time>
      </trkpt>
      <trkpt lat="43.47953" lon="3.75079">
        <ele>140.1</ele>
        <time>2013-03-10T12:34:17Z</time>
      </trkpt>
      <trkpt lat="43.47949" lon="3.75089">
        <ele>141.3</ele>
        <time>2013-03-10T12:34:25Z</time>
      </trkpt>
      <trkpt lat="43.47945" lon="3.75099">
        <ele>141.9</ele>
        <time>2013-03-10T12:34:32Z</time>
      </trkpt>
      <trkpt lat="43.47942" lon="3.7511">
        <ele>142.7</ele>
        <time>2013-03-10T12:34:41Z</time>
      </trkpt>
      <trkpt lat="43.47936" lon="3.75118">
        <ele>141.7</ele>
        <time>2013-03-10T12:34:48Z</time>
      </trkpt>
      <trkpt lat="43.47932" lon="3.75126">
        <ele>139.1</ele>
        <time>2013-03-10T12:34:55Z</time>
      </trkpt>
      <trkpt lat="43.47929" lon="3.75137">
        <ele>138.3</ele>
        <time>2013-03-10T12:35:01Z</time>
      </trkpt>
      <trkpt lat="43.47927" lon="3.75149">
        <ele>138.2</ele>
        <time>2013-03-10T12:35:07Z</time>
      </trkpt>
      <trkpt lat="43.47927" lon="3.7515">
        <ele>138</ele>
        <time>2013-03-10T12:35:08Z</time>
      </trkpt>
      <trkpt lat="43.47919" lon="3.75169">
        <ele>136.2</ele>
        <time>2013-03-10T12:35:19Z</time>
      </trkpt>
      <trkpt lat="43.47915" lon="3.7518">
        <ele>134.2</ele>
        <time>2013-03-10T12:35:25Z</time>
      </trkpt>
      <trkpt lat="43.4791" lon="3.75188">
        <ele>131.4</ele>
        <time>2013-03-10T12:35:29Z</time>
      </trkpt>
      <trkpt lat="43.47907" lon="3.75198">
        <ele>129.5</ele>
        <time>2013-03-10T12:35:34Z</time>
      </trkpt>
      <trkpt lat="43.47903" lon="3.75206">
        <ele>127.7</ele>
        <time>2013-03-10T12:35:38Z</time>
      </trkpt>
      <trkpt lat="43.47899" lon="3.75215">
        <ele>125.8</ele>
        <time>2013-03-10T12:35:42Z</time>
      </trkpt>
      <trkpt lat="43.47893" lon="3.75224">
        <ele>124.1</ele>
        <time>2013-03-10T12:35:47Z</time>
      </trkpt>
      <trkpt lat="43.47889" lon="3.75234">
        <ele>123.4</ele>
        <time>2013-03-10T12:36:03Z</time>
      </trkpt>
      <trkpt lat="43.47889" lon="3.75245">
        <ele>118.7</ele>
        <time>2013-03-10T12:36:09Z</time>
      </trkpt>
      <trkpt lat="43.47889" lon="3.75247">
        <ele>119.6</ele>
        <time>2013-03-10T12:36:10Z</time>
      </trkpt>
      <trkpt lat="43.47892" lon="3.75268">
        <ele>118.4</ele>
        <time>2013-03-10T12:36:24Z</time>
      </trkpt>
      <trkpt lat="43.47893" lon="3.75281">
        <ele>116.3</ele>
        <time>2013-03-10T12:36:33Z</time>
      </trkpt>
      <trkpt lat="43.47893" lon="3.75291">
        <ele>115</ele>
        <time>2013-03-10T12:36:52Z</time>
      </trkpt>
      <trkpt lat="43.47895" lon="3.75303">
        <ele>114</ele>
        <time>2013-03-10T12:36:58Z</time>
      </trkpt>
      <trkpt lat="43.47896" lon="3.75315">
        <ele>111.8</ele>
        <time>2013-03-10T12:37:06Z</time>
      </trkpt>
      <trkpt lat="43.47895" lon="3.75326">
        <ele>109.2</ele>
        <time>2013-03-10T12:37:12Z</time>
      </trkpt>
      <trkpt lat="43.47895" lon="3.75328">
        <ele>108.9</ele>
        <time>2013-03-10T12:37:13Z</time>
      </trkpt>
      <trkpt lat="43.47897" lon="3.75348">
        <ele>105.9</ele>
        <time>2013-03-10T12:37:23Z</time>
      </trkpt>
      <trkpt lat="43.47898" lon="3.75359">
        <ele>107.6</ele>
        <time>2013-03-10T12:37:29Z</time>
      </trkpt>
      <trkpt lat="43.47892" lon="3.75368">
        <ele>106</ele>
        <time>2013-03-10T12:37:36Z</time>
      </trkpt>
      <trkpt lat="43.47885" lon="3.75374">
        <ele>102.3</ele>
        <time>2013-03-10T12:37:45Z</time>
      </trkpt>
      <trkpt lat="43.47877" lon="3.75376">
        <ele>100.2</ele>
        <time>2013-03-10T12:37:52Z</time>
      </trkpt>
      <trkpt lat="43.47868" lon="3.75379">
        <ele>98.9</ele>
        <time>2013-03-10T12:39:42Z</time>
      </trkpt>
      <trkpt lat="43.47868" lon="3.75379">
        <ele>98.9</ele>
        <time>2013-03-10T12:39:43Z</time>
      </trkpt>
      <trkpt lat="43.47853" lon="3.75381">
        <ele>97.6</ele>
        <time>2013-03-10T12:40:05Z</time>
      </trkpt>
      <trkpt lat="43.47845" lon="3.75386">
        <ele>96</ele>
        <time>2013-03-10T12:40:14Z</time>
      </trkpt>
      <trkpt lat="43.4784" lon="3.75395">
        <ele>92.6</ele>
        <time>2013-03-10T12:40:25Z</time>
      </trkpt>
      <trkpt lat="43.47843" lon="3.75407">
        <ele>91.2</ele>
        <time>2013-03-10T12:40:32Z</time>
      </trkpt>
      <trkpt lat="43.47843" lon="3.75419">
        <ele>87.9</ele>
        <time>2013-03-10T12:40:43Z</time>
      </trkpt>
      <trkpt lat="43.47843" lon="3.7542">
        <ele>88</ele>
        <time>2013-03-10T12:40:44Z</time>
      </trkpt>
      <trkpt lat="43.47848" lon="3.75441">
        <ele>87.7</ele>
        <time>2013-03-10T12:41:00Z</time>
      </trkpt>
      <trkpt lat="43.47855" lon="3.75446">
        <ele>86.7</ele>
        <time>2013-03-10T12:41:22Z</time>
      </trkpt>
      <trkpt lat="43.47862" lon="3.75455">
        <ele>87.2</ele>
        <time>2013-03-10T12:41:29Z</time>
      </trkpt>
      <trkpt lat="43.47867" lon="3.75464">
        <ele>86.9</ele>
        <time>2013-03-10T12:41:36Z</time>
      </trkpt>
      <trkpt lat="43.4787" lon="3.75475">
        <ele>86</ele>
        <time>2013-03-10T12:41:45Z</time>
      </trkpt>
      <trkpt lat="43.47871" lon="3.75476">
        <ele>85.8</ele>
        <time>2013-03-10T12:41:46Z</time>
      </trkpt>
      <trkpt lat="43.4788" lon="3.75494">
        <ele>85.1</ele>
        <time>2013-03-10T12:42:00Z</time>
      </trkpt>
      <trkpt lat="43.47884" lon="3.75503">
        <ele>84.5</ele>
        <time>2013-03-10T12:42:08Z</time>
      </trkpt>
      <trkpt lat="43.47891" lon="3.75511">
        <ele>82.4</ele>
        <time>2013-03-10T12:42:20Z</time>
      </trkpt>
      <trkpt lat="43.47899" lon="3.75516">
        <ele>82.8</ele>
        <time>2013-03-10T12:42:28Z</time>
      </trkpt>
      <trkpt lat="43.4789" lon="3.75513">
        <ele>82.8</ele>
        <time>2013-03-10T12:45:43Z</time>
      </trkpt>
      <trkpt lat="43.4789" lon="3.75513">
        <ele>82.9</ele>
        <time>2013-03-10T12:45:44Z</time>
      </trkpt>
      <trkpt lat="43.47905" lon="3.75525">
        <ele>82.4</ele>
        <time>2013-03-10T12:46:31Z</time>
      </trkpt>
      <trkpt lat="43.47912" lon="3.75532">
        <ele>82.7</ele>
        <time>2013-03-10T12:46:42Z</time>
      </trkpt>
      <trkpt lat="43.47918" lon="3.75541">
        <ele>81.4</ele>
        <time>2013-03-10T12:46:57Z</time>
      </trkpt>
      <trkpt lat="43.47918" lon="3.75543">
        <ele>81.4</ele>
        <time>2013-03-10T12:46:58Z</time>
      </trkpt>
      <trkpt lat="43.47917" lon="3.75563">
        <ele>79</ele>
        <time>2013-03-10T12:47:22Z</time>
      </trkpt>
      <trkpt lat="43.47916" lon="3.75575">
        <ele>77.8</ele>
        <time>2013-03-10T12:47:31Z</time>
      </trkpt>
      <trkpt lat="43.47918" lon="3.75587">
        <ele>77.6</ele>
        <time>2013-03-10T12:47:46Z</time>
      </trkpt>
      <trkpt lat="43.47921" lon="3.75598">
        <ele>75.7</ele>
        <time>2013-03-10T12:47:56Z</time>
      </trkpt>
      <trkpt lat="43.47924" lon="3.75609">
        <ele>75.4</ele>
        <time>2013-03-10T12:48:04Z</time>
      </trkpt>
      <trkpt lat="43.47924" lon="3.7561">
        <ele>75.1</ele>
        <time>2013-03-10T12:48:05Z</time>
      </trkpt>
      <trkpt lat="43.47925" lon="3.75632">
        <ele>72.6</ele>
        <time>2013-03-10T12:48:19Z</time>
      </trkpt>
      <trkpt lat="43.47925" lon="3.75644">
        <ele>67.8</ele>
        <time>2013-03-10T12:48:31Z</time>
      </trkpt>
      <trkpt lat="43.47924" lon="3.75655">
        <ele>69.1</ele>
        <time>2013-03-10T12:48:39Z</time>
      </trkpt>
      <trkpt lat="43.47924" lon="3.75666">
        <ele>68.2</ele>
        <time>2013-03-10T12:48:46Z</time>
      </trkpt>
      <trkpt lat="43.47928" lon="3.75677">
        <ele>67.6</ele>
        <time>2013-03-10T12:48:53Z</time>
      </trkpt>
      <trkpt lat="43.47934" lon="3.75685">
        <ele>67.2</ele>
        <time>2013-03-10T12:49:02Z</time>
      </trkpt>
      <trkpt lat="43.47941" lon="3.75693">
        <ele>67.2</ele>
        <time>2013-03-10T12:49:13Z</time>
      </trkpt>
      <trkpt lat="43.47941" lon="3.75693">
        <ele>67.5</ele>
        <time>2013-03-10T12:49:14Z</time>
      </trkpt>
      <trkpt lat="43.47954" lon="3.75708">
        <ele>69</ele>
        <time>2013-03-10T12:49:51Z</time>
      </trkpt>
      <trkpt lat="43.47961" lon="3.75716">
        <ele>69</ele>
        <time>2013-03-10T12:49:59Z</time>
      </trkpt>
      <trkpt lat="43.47967" lon="3.75724">
        <ele>67.7</ele>
        <time>2013-03-10T12:50:06Z</time>
      </trkpt>
      <trkpt lat="43.47973" lon="3.75729">
        <ele>68.2</ele>
        <time>2013-03-10T12:50:12Z</time>
      </trkpt>
      <trkpt lat="43.47981" lon="3.75734">
        <ele>68.7</ele>
        <time>2013-03-10T12:50:19Z</time>
      </trkpt>
      <trkpt lat="43.47982" lon="3.75735">
        <ele>68.7</ele>
        <time>2013-03-10T12:50:20Z</time>
      </trkpt>
      <trkpt lat="43.47997" lon="3.75744">
        <ele>69.7</ele>
        <time>2013-03-10T12:50:36Z</time>
      </trkpt>
      <trkpt lat="43.48005" lon="3.75748">
        <ele>69.4</ele>
        <time>2013-03-10T12:50:47Z</time>
      </trkpt>
      <trkpt lat="43.48013" lon="3.75753">
        <ele>70.8</ele>
        <time>2013-03-10T12:50:57Z</time>
      </trkpt>
      <trkpt lat="43.48022" lon="3.75754">
        <ele>71.1</ele>
        <time>2013-03-10T12:51:06Z</time>
      </trkpt>
      <trkpt lat="43.4803" lon="3.75755">
        <ele>69.9</ele>
        <time>2013-03-10T12:51:14Z</time>
      </trkpt>
      <trkpt lat="43.48039" lon="3.75754">
        <ele>71.8</ele>
        <time>2013-03-10T12:51:28Z</time>
      </trkpt>
      <trkpt lat="43.48039" lon="3.75754">
        <ele>71.6</ele>
        <time>2013-03-10T12:51:29Z</time>
      </trkpt>
      <trkpt lat="43.48056" lon="3.75752">
        <ele>73.6</ele>
        <time>2013-03-10T12:51:50Z</time>
      </trkpt>
      <trkpt lat="43.48064" lon="3.75753">
        <ele>74.2</ele>
        <time>2013-03-10T12:51:58Z</time>
      </trkpt>
      <trkpt lat="43.48072" lon="3.75752">
        <ele>74.8</ele>
        <time>2013-03-10T12:52:05Z</time>
      </trkpt>
      <trkpt lat="43.4808" lon="3.75751">
        <ele>74.9</ele>
        <time>2013-03-10T12:52:13Z</time>
      </trkpt>
      <trkpt lat="43.48089" lon="3.7575">
        <ele>76.1</ele>
        <time>2013-03-10T12:52:23Z</time>
      </trkpt>
      <trkpt lat="43.48096" lon="3.75745">
        <ele>76.6</ele>
        <time>2013-03-10T12:52:30Z</time>
      </trkpt>
      <trkpt lat="43.48097" lon="3.75744">
        <ele>76.5</ele>
        <time>2013-03-10T12:52:31Z</time>
      </trkpt>
      <trkpt lat="43.48112" lon="3.75735">
        <ele>76.9</ele>
        <time>2013-03-10T12:52:46Z</time>
      </trkpt>
      <trkpt lat="43.48118" lon="3.75727">
        <ele>77.2</ele>
        <time>2013-03-10T12:52:54Z</time>
      </trkpt>
      <trkpt lat="43.48124" lon="3.7572">
        <ele>77.5</ele>
        <time>2013-03-10T12:53:01Z</time>
      </trkpt>
      <trkpt lat="43.4813" lon="3.75712">
        <ele>77.1</ele>
        <time>2013-03-10T12:53:08Z</time>
      </trkpt>
      <trkpt lat="43.48136" lon="3.75703">
        <ele>76.9</ele>
        <time>2013-03-10T12:53:16Z</time>
      </trkpt>
      <trkpt lat="43.48142" lon="3.75695">
        <ele>73.6</ele>
        <time>2013-03-10T12:53:24Z</time>
      </trkpt>
      <trkpt lat="43.4815" lon="3.75691">
        <ele>76.7</ele>
        <time>2013-03-10T12:53:33Z</time>
      </trkpt>
      <trkpt lat="43.48151" lon="3.75692">
        <ele>76.8</ele>
        <time>2013-03-10T12:53:34Z</time>
      </trkpt>
      <trkpt lat="43.48159" lon="3.75709">
        <ele>77.6</ele>
        <time>2013-03-10T12:54:06Z</time>
      </trkpt>
      <trkpt lat="43.48162" lon="3.7572">
        <ele>78.1</ele>
        <time>2013-03-10T12:54:17Z</time>
      </trkpt>
      <trkpt lat="43.48167" lon="3.75731">
        <ele>79.3</ele>
        <time>2013-03-10T12:54:29Z</time>
      </trkpt>
      <trkpt lat="43.48171" lon="3.75741">
        <ele>78.9</ele>
        <time>2013-03-10T12:54:39Z</time>
      </trkpt>
      <trkpt lat="43.48171" lon="3.75742">
        <ele>79.1</ele>
        <time>2013-03-10T12:54:40Z</time>
      </trkpt>
      <trkpt lat="43.48178" lon="3.75761">
        <ele>80.1</ele>
        <time>2013-03-10T12:54:56Z</time>
      </trkpt>
      <trkpt lat="43.48185" lon="3.75768">
        <ele>80.6</ele>
        <time>2013-03-10T12:55:03Z</time>
      </trkpt>
      <trkpt lat="43.4819" lon="3.75778">
        <ele>79.7</ele>
        <time>2013-03-10T12:55:12Z</time>
      </trkpt>
      <trkpt lat="43.48195" lon="3.75788">
        <ele>80.9</ele>
        <time>2013-03-10T12:55:21Z</time>
      </trkpt>
      <trkpt lat="43.48201" lon="3.75795">
        <ele>81.4</ele>
        <time>2013-03-10T12:55:28Z</time>
      </trkpt>
      <trkpt lat="43.48208" lon="3.75801">
        <ele>81.4</ele>
        <time>2013-03-10T12:55:39Z</time>
      </trkpt>
      <trkpt lat="43.48215" lon="3.75808">
        <ele>82</ele>
        <time>2013-03-10T12:55:48Z</time>
      </trkpt>
      <trkpt lat="43.48216" lon="3.75808">
        <ele>82.2</ele>
        <time>2013-03-10T12:55:49Z</time>
      </trkpt>
      <trkpt lat="43.48231" lon="3.75819">
        <ele>83.2</ele>
        <time>2013-03-10T12:56:06Z</time>
      </trkpt>
      <trkpt lat="43.48239" lon="3.75823">
        <ele>82.6</ele>
        <time>2013-03-10T12:56:15Z</time>
      </trkpt>
      <trkpt lat="43.48248" lon="3.75825">
        <ele>83</ele>
        <time>2013-03-10T12:56:25Z</time>
      </trkpt>
      <trkpt lat="43.48256" lon="3.75826">
        <ele>84.2</ele>
        <time>2013-03-10T12:56:32Z</time>
      </trkpt>
      <trkpt lat="43.48265" lon="3.75827">
        <ele>83.4</ele>
        <time>2013-03-10T12:56:40Z</time>
      </trkpt>
      <trkpt lat="43.48273" lon="3.75825">
        <ele>84.7</ele>
        <time>2013-03-10T12:56:49Z</time>
      </trkpt>
      <trkpt lat="43.48274" lon="3.75825">
        <ele>84.9</ele>
        <time>2013-03-10T12:56:50Z</time>
      </trkpt>
      <trkpt lat="43.4829" lon="3.75824">
        <ele>85.2</ele>
        <time>2013-03-10T12:57:06Z</time>
      </trkpt>
      <trkpt lat="43.48299" lon="3.75822">
        <ele>85</ele>
        <time>2013-03-10T12:57:13Z</time>
      </trkpt>
      <trkpt lat="43.48306" lon="3.75818">
        <ele>84.8</ele>
        <time>2013-03-10T12:57:20Z</time>
      </trkpt>
      <trkpt lat="43.48314" lon="3.75811">
        <ele>86.1</ele>
        <time>2013-03-10T12:57:28Z</time>
      </trkpt>
      <trkpt lat="43.48322" lon="3.75808">
        <ele>85.1</ele>
        <time>2013-03-10T12:57:46Z</time>
      </trkpt>
      <trkpt lat="43.48329" lon="3.758">
        <ele>84.4</ele>
        <time>2013-03-10T12:58:22Z</time>
      </trkpt>
      <trkpt lat="43.48329" lon="3.75799">
        <ele>84.3</ele>
        <time>2013-03-10T12:58:23Z</time>
      </trkpt>
      <trkpt lat="43.48345" lon="3.7579">
        <ele>84.6</ele>
        <time>2013-03-10T12:58:44Z</time>
      </trkpt>
      <trkpt lat="43.48352" lon="3.75784">
        <ele>83.6</ele>
        <time>2013-03-10T12:58:54Z</time>
      </trkpt>
      <trkpt lat="43.48361" lon="3.75785">
        <ele>81.8</ele>
        <time>2013-03-10T12:59:07Z</time>
      </trkpt>
      <trkpt lat="43.48364" lon="3.75796">
        <ele>83.9</ele>
        <time>2013-03-10T12:59:19Z</time>
      </trkpt>
      <trkpt lat="43.48367" lon="3.75807">
        <ele>84.5</ele>
        <time>2013-03-10T12:59:29Z</time>
      </trkpt>
      <trkpt lat="43.48368" lon="3.75808">
        <ele>84.3</ele>
        <time>2013-03-10T12:59:30Z</time>
      </trkpt>
      <trkpt lat="43.48372" lon="3.7583">
        <ele>86.6</ele>
        <time>2013-03-10T12:59:50Z</time>
      </trkpt>
      <trkpt lat="43.48374" lon="3.75842">
        <ele>87.2</ele>
        <time>2013-03-10T13:00:01Z</time>
      </trkpt>
      <trkpt lat="43.48379" lon="3.75852">
        <ele>87.5</ele>
        <time>2013-03-10T13:00:13Z</time>
      </trkpt>
      <trkpt lat="43.48385" lon="3.75859">
        <ele>87.9</ele>
        <time>2013-03-10T13:00:42Z</time>
      </trkpt>
      <trkpt lat="43.48385" lon="3.75861">
        <ele>88.1</ele>
        <time>2013-03-10T13:00:43Z</time>
      </trkpt>
      <trkpt lat="43.48392" lon="3.75881">
        <ele>90.5</ele>
        <time>2013-03-10T13:01:05Z</time>
      </trkpt>
      <trkpt lat="43.48396" lon="3.75891">
        <ele>92</ele>
        <time>2013-03-10T13:01:14Z</time>
      </trkpt>
      <trkpt lat="43.48402" lon="3.75899">
        <ele>93</ele>
        <time>2013-03-10T13:01:21Z</time>
      </trkpt>
      <trkpt lat="43.48409" lon="3.75905">
        <ele>92.3</ele>
        <time>2013-03-10T13:01:40Z</time>
      </trkpt>
      <trkpt lat="43.48416" lon="3.75912">
        <ele>93.2</ele>
        <time>2013-03-10T13:01:52Z</time>
      </trkpt>
      <trkpt lat="43.48416" lon="3.75912">
        <ele>93</ele>
        <time>2013-03-10T13:01:53Z</time>
      </trkpt>
      <trkpt lat="43.48431" lon="3.75921">
        <ele>95.2</ele>
        <time>2013-03-10T13:02:07Z</time>
      </trkpt>
      <trkpt lat="43.48439" lon="3.75924">
        <ele>95.1</ele>
        <time>2013-03-10T13:02:14Z</time>
      </trkpt>
      <trkpt lat="43.48447" lon="3.75928">
        <ele>96.4</ele>
        <time>2013-03-10T13:02:21Z</time>
      </trkpt>
      <trkpt lat="43.48455" lon="3.75929">
        <ele>95.5</ele>
        <time>2013-03-10T13:02:29Z</time>
      </trkpt>
      <trkpt lat="43.48464" lon="3.75929">
        <ele>95.9</ele>
        <time>2013-03-10T13:02:37Z</time>
      </trkpt>
      <trkpt lat="43.48472" lon="3.75927">
        <ele>95.3</ele>
        <time>2013-03-10T13:02:45Z</time>
      </trkpt>
      <trkpt lat="43.4848" lon="3.75924">
        <ele>96.5</ele>
        <time>2013-03-10T13:02:52Z</time>
      </trkpt>
      <trkpt lat="43.48488" lon="3.7592">
        <ele>97.9</ele>
        <time>2013-03-10T13:03:00Z</time>
      </trkpt>
      <trkpt lat="43.48489" lon="3.75919">
        <ele>97.8</ele>
        <time>2013-03-10T13:03:01Z</time>
      </trkpt>
      <trkpt lat="43.48503" lon="3.75929">
        <ele>99.2</ele>
        <time>2013-03-10T13:03:15Z</time>
      </trkpt>
      <trkpt lat="43.48508" lon="3.75938">
        <ele>99.3</ele>
        <time>2013-03-10T13:03:23Z</time>
      </trkpt>
      <trkpt lat="43.48514" lon="3.75947">
        <ele>99.4</ele>
        <time>2013-03-10T13:03:29Z</time>
      </trkpt>
      <trkpt lat="43.4852" lon="3.75955">
        <ele>99.1</ele>
        <time>2013-03-10T13:03:36Z</time>
      </trkpt>
      <trkpt lat="43.48525" lon="3.75964">
        <ele>99.2</ele>
        <time>2013-03-10T13:03:42Z</time>
      </trkpt>
      <trkpt lat="43.48532" lon="3.7597">
        <ele>99.6</ele>
        <time>2013-03-10T13:03:47Z</time>
      </trkpt>
      <trkpt lat="43.48539" lon="3.75977">
        <ele>100.2</ele>
        <time>2013-03-10T13:03:52Z</time>
      </trkpt>
      <trkpt lat="43.48546" lon="3.75982">
        <ele>100.2</ele>
        <time>2013-03-10T13:04:02Z</time>
      </trkpt>
      <trkpt lat="43.48548" lon="3.75983">
        <ele>100.4</ele>
        <time>2013-03-10T13:04:03Z</time>
      </trkpt>
      <trkpt lat="43.48558" lon="3.75996">
        <ele>99.8</ele>
        <time>2013-03-10T13:04:14Z</time>
      </trkpt>
      <trkpt lat="43.48565" lon="3.76002">
        <ele>99.7</ele>
        <time>2013-03-10T13:04:20Z</time>
      </trkpt>
      <trkpt lat="43.4857" lon="3.7601">
        <ele>99.3</ele>
        <time>2013-03-10T13:04:27Z</time>
      </trkpt>
      <trkpt lat="43.48578" lon="3.76016">
        <ele>98</ele>
        <time>2013-03-10T13:04:32Z</time>
      </trkpt>
      <trkpt lat="43.48586" lon="3.7602">
        <ele>97.8</ele>
        <time>2013-03-10T13:04:38Z</time>
      </trkpt>
      <trkpt lat="43.48593" lon="3.76025">
        <ele>97.5</ele>
        <time>2013-03-10T13:04:44Z</time>
      </trkpt>
      <trkpt lat="43.486" lon="3.76031">
        <ele>97.5</ele>
        <time>2013-03-10T13:04:50Z</time>
      </trkpt>
      <trkpt lat="43.48606" lon="3.76038">
        <ele>97.1</ele>
        <time>2013-03-10T13:04:57Z</time>
      </trkpt>
      <trkpt lat="43.48612" lon="3.76044">
        <ele>96.8</ele>
        <time>2013-03-10T13:05:04Z</time>
      </trkpt>
      <trkpt lat="43.48613" lon="3.76045">
        <ele>96.9</ele>
        <time>2013-03-10T13:05:05Z</time>
      </trkpt>
      <trkpt lat="43.48627" lon="3.76053">
        <ele>97.7</ele>
        <time>2013-03-10T13:05:17Z</time>
      </trkpt>
      <trkpt lat="43.48634" lon="3.76058">
        <ele>98.4</ele>
        <time>2013-03-10T13:05:24Z</time>
      </trkpt>
      <trkpt lat="43.48642" lon="3.76062">
        <ele>98.4</ele>
        <time>2013-03-10T13:05:30Z</time>
      </trkpt>
      <trkpt lat="43.4865" lon="3.76067">
        <ele>99.5</ele>
        <time>2013-03-10T13:05:38Z</time>
      </trkpt>
      <trkpt lat="43.48658" lon="3.7607">
        <ele>99.5</ele>
        <time>2013-03-10T13:05:45Z</time>
      </trkpt>
      <trkpt lat="43.48666" lon="3.76074">
        <ele>100</ele>
        <time>2013-03-10T13:05:54Z</time>
      </trkpt>
      <trkpt lat="43.48674" lon="3.76075">
        <ele>99.9</ele>
        <time>2013-03-10T13:06:04Z</time>
      </trkpt>
      <trkpt lat="43.48682" lon="3.76077">
        <ele>100.6</ele>
        <time>2013-03-10T13:06:11Z</time>
      </trkpt>
      <trkpt lat="43.48683" lon="3.76077">
        <ele>100.4</ele>
        <time>2013-03-10T13:06:12Z</time>
      </trkpt>
      <trkpt lat="43.48699" lon="3.76077">
        <ele>100.5</ele>
        <time>2013-03-10T13:06:26Z</time>
      </trkpt>
      <trkpt lat="43.48708" lon="3.76075">
        <ele>100.1</ele>
        <time>2013-03-10T13:06:34Z</time>
      </trkpt>
      <trkpt lat="43.48716" lon="3.76072">
        <ele>100.3</ele>
        <time>2013-03-10T13:06:42Z</time>
      </trkpt>
      <trkpt lat="43.48723" lon="3.7607">
        <ele>98.8</ele>
        <time>2013-03-10T13:06:49Z</time>
      </trkpt>
      <trkpt lat="43.48732" lon="3.76069">
        <ele>100.3</ele>
        <time>2013-03-10T13:06:57Z</time>
      </trkpt>
      <trkpt lat="43.4874" lon="3.76073">
        <ele>100.4</ele>
        <time>2013-03-10T13:07:06Z</time>
      </trkpt>
      <trkpt lat="43.48747" lon="3.76079">
        <ele>101.1</ele>
        <time>2013-03-10T13:07:14Z</time>
      </trkpt>
      <trkpt lat="43.48748" lon="3.76079">
        <ele>101</ele>
        <time>2013-03-10T13:07:15Z</time>
      </trkpt>
      <trkpt lat="43.48759" lon="3.76095">
        <ele>102</ele>
        <time>2013-03-10T13:07:30Z</time>
      </trkpt>
      <trkpt lat="43.48763" lon="3.76106">
        <ele>101.3</ele>
        <time>2013-03-10T13:07:37Z</time>
      </trkpt>
      <trkpt lat="43.48767" lon="3.76116">
        <ele>102.8</ele>
        <time>2013-03-10T13:07:43Z</time>
      </trkpt>
      <trkpt lat="43.4877" lon="3.76127">
        <ele>101.6</ele>
        <time>2013-03-10T13:07:50Z</time>
      </trkpt>
      <trkpt lat="43.48774" lon="3.76137">
        <ele>101.8</ele>
        <time>2013-03-10T13:07:57Z</time>
      </trkpt>
      <trkpt lat="43.4878" lon="3.76145">
        <ele>101.8</ele>
        <time>2013-03-10T13:08:03Z</time>
      </trkpt>
      <trkpt lat="43.48787" lon="3.76152">
        <ele>101.8</ele>
        <time>2013-03-10T13:08:09Z</time>
      </trkpt>
      <trkpt lat="43.48794" lon="3.76158">
        <ele>101</ele>
        <time>2013-03-10T13:08:14Z</time>
      </trkpt>
      <trkpt lat="43.48801" lon="3.76162">
        <ele>100.8</ele>
        <time>2013-03-10T13:08:20Z</time>
      </trkpt>
      <trkpt lat="43.48802" lon="3.76163">
        <ele>100.8</ele>
        <time>2013-03-10T13:08:21Z</time>
      </trkpt>
      <trkpt lat="43.48817" lon="3.76169">
        <ele>100.7</ele>
        <time>2013-03-10T13:08:30Z</time>
      </trkpt>
      <trkpt lat="43.48823" lon="3.76174">
        <ele>101</ele>
        <time>2013-03-10T13:08:35Z</time>
      </trkpt>
      <trkpt lat="43.48831" lon="3.76179">
        <ele>100.7</ele>
        <time>2013-03-10T13:08:41Z</time>
      </trkpt>
      <trkpt lat="43.48837" lon="3.76185">
        <ele>101.5</ele>
        <time>2013-03-10T13:08:47Z</time>
      </trkpt>
      <trkpt lat="43.48843" lon="3.76193">
        <ele>100.6</ele>
        <time>2013-03-10T13:08:54Z</time>
      </trkpt>
      <trkpt lat="43.4885" lon="3.76201">
        <ele>99.6</ele>
        <time>2013-03-10T13:09:00Z</time>
      </trkpt>
      <trkpt lat="43.48857" lon="3.76208">
        <ele>99.6</ele>
        <time>2013-03-10T13:09:05Z</time>
      </trkpt>
      <trkpt lat="43.48863" lon="3.76216">
        <ele>98.8</ele>
        <time>2013-03-10T13:09:10Z</time>
      </trkpt>
      <trkpt lat="43.4887" lon="3.76223">
        <ele>98.7</ele>
        <time>2013-03-10T13:09:15Z</time>
      </trkpt>
      <trkpt lat="43.48877" lon="3.7623">
        <ele>98.7</ele>
        <time>2013-03-10T13:09:21Z</time>
      </trkpt>
      <trkpt lat="43.48878" lon="3.76231">
        <ele>98.7</ele>
        <time>2013-03-10T13:09:22Z</time>
      </trkpt>
      <trkpt lat="43.4889" lon="3.7624">
        <ele>97.9</ele>
        <time>2013-03-10T13:09:30Z</time>
      </trkpt>
      <trkpt lat="43.48898" lon="3.76244">
        <ele>98.8</ele>
        <time>2013-03-10T13:09:34Z</time>
      </trkpt>
      <trkpt lat="43.48906" lon="3.76247">
        <ele>99.5</ele>
        <time>2013-03-10T13:09:39Z</time>
      </trkpt>
      <trkpt lat="43.48913" lon="3.7625">
        <ele>101</ele>
        <time>2013-03-10T13:09:44Z</time>
      </trkpt>
      <trkpt lat="43.48921" lon="3.76255">
        <ele>102.1</ele>
        <time>2013-03-10T13:09:48Z</time>
      </trkpt>
      <trkpt lat="43.48927" lon="3.76261">
        <ele>101.5</ele>
        <time>2013-03-10T13:09:52Z</time>
      </trkpt>
      <trkpt lat="43.48934" lon="3.76267">
        <ele>101</ele>
        <time>2013-03-10T13:09:57Z</time>
      </trkpt>
      <trkpt lat="43.48941" lon="3.7627">
        <ele>100.3</ele>
        <time>2013-03-10T13:10:01Z</time>
      </trkpt>
      <trkpt lat="43.48948" lon="3.76276">
        <ele>101.3</ele>
        <time>2013-03-10T13:10:06Z</time>
      </trkpt>
      <trkpt lat="43.48955" lon="3.76279">
        <ele>101</ele>
        <time>2013-03-10T13:10:11Z</time>
      </trkpt>
      <trkpt lat="43.48963" lon="3.7628">
        <ele>101.2</ele>
        <time>2013-03-10T13:10:16Z</time>
      </trkpt>
      <trkpt lat="43.48971" lon="3.7628">
        <ele>101.1</ele>
        <time>2013-03-10T13:10:36Z</time>
      </trkpt>
      <trkpt lat="43.48972" lon="3.7628">
        <ele>100.6</ele>
        <time>2013-03-10T13:10:37Z</time>
      </trkpt>
      <trkpt lat="43.48987" lon="3.76281">
        <ele>101.7</ele>
        <time>2013-03-10T13:10:55Z</time>
      </trkpt>
      <trkpt lat="43.48993" lon="3.76287">
        <ele>101.5</ele>
        <time>2013-03-10T13:11:00Z</time>
      </trkpt>
      <trkpt lat="43.48998" lon="3.76296">
        <ele>100.4</ele>
        <time>2013-03-10T13:11:06Z</time>
      </trkpt>
      <trkpt lat="43.48999" lon="3.76308">
        <ele>101.1</ele>
        <time>2013-03-10T13:11:13Z</time>
      </trkpt>
      <trkpt lat="43.48998" lon="3.76319">
        <ele>101.2</ele>
        <time>2013-03-10T13:11:19Z</time>
      </trkpt>
      <trkpt lat="43.48997" lon="3.7633">
        <ele>100.1</ele>
        <time>2013-03-10T13:11:25Z</time>
      </trkpt>
      <trkpt lat="43.48998" lon="3.76342">
        <ele>99.3</ele>
        <time>2013-03-10T13:11:31Z</time>
      </trkpt>
      <trkpt lat="43.48999" lon="3.76353">
        <ele>99.2</ele>
        <time>2013-03-10T13:11:37Z</time>
      </trkpt>
      <trkpt lat="43.49" lon="3.76364">
        <ele>98</ele>
        <time>2013-03-10T13:11:44Z</time>
      </trkpt>
      <trkpt lat="43.49" lon="3.76365">
        <ele>98</ele>
        <time>2013-03-10T13:11:45Z</time>
      </trkpt>
      <trkpt lat="43.49007" lon="3.76385">
        <ele>95.8</ele>
        <time>2013-03-10T13:11:57Z</time>
      </trkpt>
      <trkpt lat="43.4901" lon="3.76396">
        <ele>96.5</ele>
        <time>2013-03-10T13:12:03Z</time>
      </trkpt>
      <trkpt lat="43.49014" lon="3.76408">
        <ele>94.8</ele>
        <time>2013-03-10T13:12:12Z</time>
      </trkpt>
      <trkpt lat="43.49018" lon="3.76418">
        <ele>94.6</ele>
        <time>2013-03-10T13:12:20Z</time>
      </trkpt>
      <trkpt lat="43.49021" lon="3.7643">
        <ele>94.9</ele>
        <time>2013-03-10T13:12:27Z</time>
      </trkpt>
      <trkpt lat="43.49022" lon="3.76441">
        <ele>94.8</ele>
        <time>2013-03-10T13:12:33Z</time>
      </trkpt>
      <trkpt lat="43.49024" lon="3.76452">
        <ele>93.7</ele>
        <time>2013-03-10T13:12:39Z</time>
      </trkpt>
      <trkpt lat="43.49028" lon="3.76463">
        <ele>93.7</ele>
        <time>2013-03-10T13:12:46Z</time>
      </trkpt>
      <trkpt lat="43.49028" lon="3.76465">
        <ele>93.5</ele>
        <time>2013-03-10T13:12:47Z</time>
      </trkpt>
      <trkpt lat="43.49035" lon="3.76486">
        <ele>92.6</ele>
        <time>2013-03-10T13:13:00Z</time>
      </trkpt>
      <trkpt lat="43.49039" lon="3.76495">
        <ele>92.7</ele>
        <time>2013-03-10T13:13:06Z</time>
      </trkpt>
      <trkpt lat="43.49044" lon="3.76505">
        <ele>92.2</ele>
        <time>2013-03-10T13:13:13Z</time>
      </trkpt>
      <trkpt lat="43.4905" lon="3.76512">
        <ele>92.4</ele>
        <time>2013-03-10T13:13:18Z</time>
      </trkpt>
      <trkpt lat="43.49055" lon="3.76522">
        <ele>92.5</ele>
        <time>2013-03-10T13:13:25Z</time>
      </trkpt>
      <trkpt lat="43.4906" lon="3.76531">
        <ele>91.9</ele>
        <time>2013-03-10T13:13:32Z</time>
      </trkpt>
      <trkpt lat="43.49064" lon="3.7654">
        <ele>91.4</ele>
        <time>2013-03-10T13:13:39Z</time>
      </trkpt>
      <trkpt lat="43.4907" lon="3.76548">
        <ele>92.2</ele>
        <time>2013-03-10T13:13:46Z</time>
      </trkpt>
      <trkpt lat="43.49077" lon="3.76554">
        <ele>92.1</ele>
        <time>2013-03-10T13:13:53Z</time>
      </trkpt>
      <trkpt lat="43.49078" lon="3.76555">
        <ele>92.3</ele>
        <time>2013-03-10T13:13:54Z</time>
      </trkpt>
      <trkpt lat="43.49091" lon="3.76564">
        <ele>91.8</ele>
        <time>2013-03-10T13:14:05Z</time>
      </trkpt>
      <trkpt lat="43.49099" lon="3.76568">
        <ele>92.3</ele>
        <time>2013-03-10T13:14:11Z</time>
      </trkpt>
      <trkpt lat="43.49107" lon="3.76572">
        <ele>92</ele>
        <time>2013-03-10T13:14:18Z</time>
      </trkpt>
      <trkpt lat="43.49114" lon="3.76576">
        <ele>90.9</ele>
        <time>2013-03-10T13:14:24Z</time>
      </trkpt>
      <trkpt lat="43.49122" lon="3.7658">
        <ele>91.1</ele>
        <time>2013-03-10T13:14:30Z</time>
      </trkpt>
      <trkpt lat="43.4913" lon="3.76583">
        <ele>91.2</ele>
        <time>2013-03-10T13:14:36Z</time>
      </trkpt>
      <trkpt lat="43.49137" lon="3.76587">
        <ele>91.2</ele>
        <time>2013-03-10T13:14:42Z</time>
      </trkpt>
      <trkpt lat="43.49145" lon="3.76592">
        <ele>91.7</ele>
        <time>2013-03-10T13:14:49Z</time>
      </trkpt>
      <trkpt lat="43.49153" lon="3.76596">
        <ele>92.4</ele>
        <time>2013-03-10T13:14:56Z</time>
      </trkpt>
      <trkpt lat="43.49155" lon="3.76597">
        <ele>91.8</ele>
        <time>2013-03-10T13:14:57Z</time>
      </trkpt>
      <trkpt lat="43.49168" lon="3.76606">
        <ele>91</ele>
        <time>2013-03-10T13:15:09Z</time>
      </trkpt>
      <trkpt lat="43.49175" lon="3.76612">
        <ele>91.5</ele>
        <time>2013-03-10T13:15:16Z</time>
      </trkpt>
      <trkpt lat="43.49183" lon="3.76616">
        <ele>92</ele>
        <time>2013-03-10T13:15:23Z</time>
      </trkpt>
      <trkpt lat="43.49191" lon="3.76621">
        <ele>92</ele>
        <time>2013-03-10T13:15:31Z</time>
      </trkpt>
      <trkpt lat="43.49198" lon="3.76628">
        <ele>92</ele>
        <time>2013-03-10T13:15:38Z</time>
      </trkpt>
      <trkpt lat="43.49205" lon="3.76635">
        <ele>92.4</ele>
        <time>2013-03-10T13:15:45Z</time>
      </trkpt>
      <trkpt lat="43.49212" lon="3.76641">
        <ele>91.6</ele>
        <time>2013-03-10T13:15:52Z</time>
      </trkpt>
      <trkpt lat="43.49219" lon="3.76648">
        <ele>90.9</ele>
        <time>2013-03-10T13:15:59Z</time>
      </trkpt>
      <trkpt lat="43.4922" lon="3.76649">
        <ele>91.1</ele>
        <time>2013-03-10T13:16:00Z</time>
      </trkpt>
      <trkpt lat="43.49235" lon="3.76657">
        <ele>91.3</ele>
        <time>2013-03-10T13:16:14Z</time>
      </trkpt>
      <trkpt lat="43.49243" lon="3.76661">
        <ele>89</ele>
        <time>2013-03-10T13:16:21Z</time>
      </trkpt>
      <trkpt lat="43.49251" lon="3.76662">
        <ele>93.5</ele>
        <time>2013-03-10T13:16:27Z</time>
      </trkpt>
      <trkpt lat="43.49259" lon="3.76663">
        <ele>91.7</ele>
        <time>2013-03-10T13:16:33Z</time>
      </trkpt>
      <trkpt lat="43.49267" lon="3.76664">
        <ele>91.7</ele>
        <time>2013-03-10T13:16:39Z</time>
      </trkpt>
      <trkpt lat="43.49275" lon="3.76663">
        <ele>92.3</ele>
        <time>2013-03-10T13:16:45Z</time>
      </trkpt>
      <trkpt lat="43.49283" lon="3.76661">
        <ele>91.2</ele>
        <time>2013-03-10T13:16:52Z</time>
      </trkpt>
      <trkpt lat="43.49291" lon="3.76659">
        <ele>91.6</ele>
        <time>2013-03-10T13:16:58Z</time>
      </trkpt>
      <trkpt lat="43.493" lon="3.76656">
        <ele>91.5</ele>
        <time>2013-03-10T13:17:05Z</time>
      </trkpt>
      <trkpt lat="43.49301" lon="3.76656">
        <ele>91.7</ele>
        <time>2013-03-10T13:17:06Z</time>
      </trkpt>
      <trkpt lat="43.49315" lon="3.76662">
        <ele>90.9</ele>
        <time>2013-03-10T13:17:18Z</time>
      </trkpt>
      <trkpt lat="43.49321" lon="3.7667">
        <ele>90.9</ele>
        <time>2013-03-10T13:17:25Z</time>
      </trkpt>
      <trkpt lat="43.49327" lon="3.76679">
        <ele>91</ele>
        <time>2013-03-10T13:17:33Z</time>
      </trkpt>
      <trkpt lat="43.49334" lon="3.76688">
        <ele>90.8</ele>
        <time>2013-03-10T13:17:41Z</time>
      </trkpt>
      <trkpt lat="43.4934" lon="3.76696">
        <ele>90.1</ele>
        <time>2013-03-10T13:17:48Z</time>
      </trkpt>
      <trkpt lat="43.49345" lon="3.76704">
        <ele>89.3</ele>
        <time>2013-03-10T13:17:55Z</time>
      </trkpt>
      <trkpt lat="43.49352" lon="3.76712">
        <ele>89.2</ele>
        <time>2013-03-10T13:18:03Z</time>
      </trkpt>
      <trkpt lat="43.49357" lon="3.76721">
        <ele>88</ele>
        <time>2013-03-10T13:18:11Z</time>
      </trkpt>
      <trkpt lat="43.49358" lon="3.76722">
        <ele>88.2</ele>
        <time>2013-03-10T13:18:12Z</time>
      </trkpt>
      <trkpt lat="43.49366" lon="3.76742">
        <ele>88</ele>
        <time>2013-03-10T13:18:43Z</time>
      </trkpt>
      <trkpt lat="43.49373" lon="3.76734">
        <ele>89.2</ele>
        <time>2013-03-10T13:23:40Z</time>
      </trkpt>
      <trkpt lat="43.49374" lon="3.76734">
        <ele>89</ele>
        <time>2013-03-10T13:23:41Z</time>
      </trkpt>
      <trkpt lat="43.49379" lon="3.76754">
        <ele>87.7</ele>
        <time>2013-03-10T13:24:34Z</time>
      </trkpt>
      <trkpt lat="43.49382" lon="3.76765">
        <ele>87.7</ele>
        <time>2013-03-10T13:24:42Z</time>
      </trkpt>
      <trkpt lat="43.49383" lon="3.76766">
        <ele>87.5</ele>
        <time>2013-03-10T13:24:43Z</time>
      </trkpt>
      <trkpt lat="43.49396" lon="3.76776">
        <ele>85.7</ele>
        <time>2013-03-10T13:24:59Z</time>
      </trkpt>
      <trkpt lat="43.49402" lon="3.76785">
        <ele>86.3</ele>
        <time>2013-03-10T13:25:07Z</time>
      </trkpt>
      <trkpt lat="43.49408" lon="3.76793">
        <ele>85.3</ele>
        <time>2013-03-10T13:25:16Z</time>
      </trkpt>
      <trkpt lat="43.49414" lon="3.76798">
        <ele>85.2</ele>
        <time>2013-03-10T13:25:24Z</time>
      </trkpt>
      <trkpt lat="43.49421" lon="3.76805">
        <ele>83.4</ele>
        <time>2013-03-10T13:25:31Z</time>
      </trkpt>
      <trkpt lat="43.49427" lon="3.76813">
        <ele>83.8</ele>
        <time>2013-03-10T13:25:40Z</time>
      </trkpt>
      <trkpt lat="43.49433" lon="3.76821">
        <ele>84.1</ele>
        <time>2013-03-10T13:25:49Z</time>
      </trkpt>
      <trkpt lat="43.49434" lon="3.76823">
        <ele>83.9</ele>
        <time>2013-03-10T13:25:50Z</time>
      </trkpt>
      <trkpt lat="43.49448" lon="3.76828">
        <ele>83.2</ele>
        <time>2013-03-10T13:26:06Z</time>
      </trkpt>
      <trkpt lat="43.49456" lon="3.76833">
        <ele>82.8</ele>
        <time>2013-03-10T13:26:14Z</time>
      </trkpt>
      <trkpt lat="43.4946" lon="3.76842">
        <ele>81.6</ele>
        <time>2013-03-10T13:26:24Z</time>
      </trkpt>
      <trkpt lat="43.49456" lon="3.76853">
        <ele>81.3</ele>
        <time>2013-03-10T13:26:33Z</time>
      </trkpt>
      <trkpt lat="43.49447" lon="3.76856">
        <ele>80.3</ele>
        <time>2013-03-10T13:26:42Z</time>
      </trkpt>
      <trkpt lat="43.49439" lon="3.76855">
        <ele>80</ele>
        <time>2013-03-10T13:26:53Z</time>
      </trkpt>
      <trkpt lat="43.49438" lon="3.76854">
        <ele>79.9</ele>
        <time>2013-03-10T13:26:54Z</time>
      </trkpt>
      <trkpt lat="43.49423" lon="3.76848">
        <ele>81.4</ele>
        <time>2013-03-10T13:27:10Z</time>
      </trkpt>
      <trkpt lat="43.49414" lon="3.76849">
        <ele>79.7</ele>
        <time>2013-03-10T13:27:19Z</time>
      </trkpt>
      <trkpt lat="43.49411" lon="3.7686">
        <ele>78.6</ele>
        <time>2013-03-10T13:27:30Z</time>
      </trkpt>
      <trkpt lat="43.49413" lon="3.76872">
        <ele>78</ele>
        <time>2013-03-10T13:27:40Z</time>
      </trkpt>
      <trkpt lat="43.49417" lon="3.76882">
        <ele>76.1</ele>
        <time>2013-03-10T13:27:48Z</time>
      </trkpt>
      <trkpt lat="43.49421" lon="3.76892">
        <ele>75.1</ele>
        <time>2013-03-10T13:27:56Z</time>
      </trkpt>
      <trkpt lat="43.49422" lon="3.76893">
        <ele>75</ele>
        <time>2013-03-10T13:27:57Z</time>
      </trkpt>
      <trkpt lat="43.49432" lon="3.76911">
        <ele>73.5</ele>
        <time>2013-03-10T13:28:11Z</time>
      </trkpt>
      <trkpt lat="43.49437" lon="3.7692">
        <ele>73.3</ele>
        <time>2013-03-10T13:28:19Z</time>
      </trkpt>
      <trkpt lat="43.49442" lon="3.76929">
        <ele>72.6</ele>
        <time>2013-03-10T13:28:27Z</time>
      </trkpt>
      <trkpt lat="43.49447" lon="3.76937">
        <ele>72.6</ele>
        <time>2013-03-10T13:28:35Z</time>
      </trkpt>
      <trkpt lat="43.49454" lon="3.76946">
        <ele>71.6</ele>
        <time>2013-03-10T13:28:43Z</time>
      </trkpt>
      <trkpt lat="43.4946" lon="3.76954">
        <ele>71.1</ele>
        <time>2013-03-10T13:28:52Z</time>
      </trkpt>
      <trkpt lat="43.49467" lon="3.76958">
        <ele>70.9</ele>
        <time>2013-03-10T13:29:00Z</time>
      </trkpt>
      <trkpt lat="43.49469" lon="3.76959">
        <ele>71</ele>
        <time>2013-03-10T13:29:01Z</time>
      </trkpt>
      <trkpt lat="43.49484" lon="3.76962">
        <ele>69.7</ele>
        <time>2013-03-10T13:29:16Z</time>
      </trkpt>
      <trkpt lat="43.49493" lon="3.76965">
        <ele>70.2</ele>
        <time>2013-03-10T13:29:23Z</time>
      </trkpt>
      <trkpt lat="43.49501" lon="3.7697">
        <ele>69.9</ele>
        <time>2013-03-10T13:29:30Z</time>
      </trkpt>
      <trkpt lat="43.49504" lon="3.76981">
        <ele>68.2</ele>
        <time>2013-03-10T13:29:40Z</time>
      </trkpt>
      <trkpt lat="43.495" lon="3.76991">
        <ele>66.6</ele>
        <time>2013-03-10T13:29:49Z</time>
      </trkpt>
      <trkpt lat="43.49494" lon="3.76999">
        <ele>66.5</ele>
        <time>2013-03-10T13:29:57Z</time>
      </trkpt>
      <trkpt lat="43.49488" lon="3.77008">
        <ele>66</ele>
        <time>2013-03-10T13:30:05Z</time>
      </trkpt>
      <trkpt lat="43.49487" lon="3.77009">
        <ele>65.6</ele>
        <time>2013-03-10T13:30:06Z</time>
      </trkpt>
      <trkpt lat="43.49487" lon="3.7703">
        <ele>64.3</ele>
        <time>2013-03-10T13:30:24Z</time>
      </trkpt>
      <trkpt lat="43.49492" lon="3.7704">
        <ele>63.4</ele>
        <time>2013-03-10T13:30:34Z</time>
      </trkpt>
      <trkpt lat="43.49498" lon="3.77049">
        <ele>63.2</ele>
        <time>2013-03-10T13:30:44Z</time>
      </trkpt>
      <trkpt lat="43.49505" lon="3.77054">
        <ele>62.4</ele>
        <time>2013-03-10T13:30:52Z</time>
      </trkpt>
      <trkpt lat="43.49511" lon="3.77059">
        <ele>63</ele>
        <time>2013-03-10T13:30:59Z</time>
      </trkpt>
      <trkpt lat="43.49518" lon="3.77066">
        <ele>62.5</ele>
        <time>2013-03-10T13:31:06Z</time>
      </trkpt>
      <trkpt lat="43.49519" lon="3.77067">
        <ele>62.5</ele>
        <time>2013-03-10T13:31:07Z</time>
      </trkpt>
      <trkpt lat="43.49524" lon="3.77087">
        <ele>59.2</ele>
        <time>2013-03-10T13:31:25Z</time>
      </trkpt>
      <trkpt lat="43.4952" lon="3.77096">
        <ele>58.6</ele>
        <time>2013-03-10T13:31:34Z</time>
      </trkpt>
      <trkpt lat="43.49515" lon="3.77106">
        <ele>58.9</ele>
        <time>2013-03-10T13:31:42Z</time>
      </trkpt>
      <trkpt lat="43.49512" lon="3.77116">
        <ele>57.9</ele>
        <time>2013-03-10T13:31:49Z</time>
      </trkpt>
      <trkpt lat="43.49511" lon="3.77128">
        <ele>57.5</ele>
        <time>2013-03-10T13:31:57Z</time>
      </trkpt>
      <trkpt lat="43.49509" lon="3.7714">
        <ele>56.1</ele>
        <time>2013-03-10T13:32:07Z</time>
      </trkpt>
      <trkpt lat="43.4951" lon="3.77151">
        <ele>56.1</ele>
        <time>2013-03-10T13:32:16Z</time>
      </trkpt>
      <trkpt lat="43.49511" lon="3.77153">
        <ele>56.1</ele>
        <time>2013-03-10T13:32:17Z</time>
      </trkpt>
      <trkpt lat="43.4952" lon="3.77169">
        <ele>56</ele>
        <time>2013-03-10T13:32:32Z</time>
      </trkpt>
      <trkpt lat="43.49526" lon="3.77175">
        <ele>55</ele>
        <time>2013-03-10T13:32:38Z</time>
      </trkpt>
      <trkpt lat="43.49535" lon="3.77177">
        <ele>54.9</ele>
        <time>2013-03-10T13:32:45Z</time>
      </trkpt>
      <trkpt lat="43.49543" lon="3.77175">
        <ele>54.2</ele>
        <time>2013-03-10T13:32:53Z</time>
      </trkpt>
      <trkpt lat="43.4955" lon="3.7717">
        <ele>54.5</ele>
        <time>2013-03-10T13:33:01Z</time>
      </trkpt>
      <trkpt lat="43.49559" lon="3.77168">
        <ele>52.3</ele>
        <time>2013-03-10T13:33:15Z</time>
      </trkpt>
      <trkpt lat="43.49567" lon="3.77164">
        <ele>52.3</ele>
        <time>2013-03-10T13:33:25Z</time>
      </trkpt>
      <trkpt lat="43.49568" lon="3.77164">
        <ele>52.5</ele>
        <time>2013-03-10T13:33:26Z</time>
      </trkpt>
      <trkpt lat="43.49584" lon="3.77163">
        <ele>51</ele>
        <time>2013-03-10T13:33:41Z</time>
      </trkpt>
      <trkpt lat="43.49592" lon="3.77162">
        <ele>50.4</ele>
        <time>2013-03-10T13:33:47Z</time>
      </trkpt>
      <trkpt lat="43.49601" lon="3.7716">
        <ele>49.3</ele>
        <time>2013-03-10T13:33:54Z</time>
      </trkpt>
      <trkpt lat="43.49609" lon="3.77156">
        <ele>48.1</ele>
        <time>2013-03-10T13:34:00Z</time>
      </trkpt>
      <trkpt lat="43.49616" lon="3.77151">
        <ele>48.3</ele>
        <time>2013-03-10T13:34:06Z</time>
      </trkpt>
      <trkpt lat="43.49624" lon="3.77147">
        <ele>48.1</ele>
        <time>2013-03-10T13:34:17Z</time>
      </trkpt>
      <trkpt lat="43.49632" lon="3.77148">
        <ele>47.5</ele>
        <time>2013-03-10T13:34:24Z</time>
      </trkpt>
      <trkpt lat="43.49639" lon="3.77154">
        <ele>47.5</ele>
        <time>2013-03-10T13:34:31Z</time>
      </trkpt>
      <trkpt lat="43.4964" lon="3.77154">
        <ele>47.4</ele>
        <time>2013-03-10T13:34:32Z</time>
      </trkpt>
      <trkpt lat="43.49654" lon="3.77164">
        <ele>46.9</ele>
        <time>2013-03-10T13:35:16Z</time>
      </trkpt>
      <trkpt lat="43.49662" lon="3.77162">
        <ele>46.5</ele>
        <time>2013-03-10T13:35:36Z</time>
      </trkpt>
      <trkpt lat="43.49663" lon="3.77161">
        <ele>46.8</ele>
        <time>2013-03-10T13:35:37Z</time>
      </trkpt>
      <trkpt lat="43.49678" lon="3.77152">
        <ele>45.9</ele>
        <time>2013-03-10T13:35:59Z</time>
      </trkpt>
      <trkpt lat="43.49686" lon="3.77151">
        <ele>47.4</ele>
        <time>2013-03-10T13:36:10Z</time>
      </trkpt>
      <trkpt lat="43.49695" lon="3.77149">
        <ele>47.6</ele>
        <time>2013-03-10T13:36:21Z</time>
      </trkpt>
      <trkpt lat="43.49703" lon="3.77146">
        <ele>48.9</ele>
        <time>2013-03-10T13:36:35Z</time>
      </trkpt>
      <trkpt lat="43.49709" lon="3.77138">
        <ele>48</ele>
        <time>2013-03-10T13:36:42Z</time>
      </trkpt>
      <trkpt lat="43.49709" lon="3.77136">
        <ele>47.9</ele>
        <time>2013-03-10T13:36:43Z</time>
      </trkpt>
      <trkpt lat="43.49718" lon="3.77119">
        <ele>49.3</ele>
        <time>2013-03-10T13:37:04Z</time>
      </trkpt>
      <trkpt lat="43.49721" lon="3.77108">
        <ele>50.4</ele>
        <time>2013-03-10T13:37:13Z</time>
      </trkpt>
      <trkpt lat="43.4972" lon="3.77096">
        <ele>52.7</ele>
        <time>2013-03-10T13:37:40Z</time>
      </trkpt>
      <trkpt lat="43.49716" lon="3.77085">
        <ele>54.7</ele>
        <time>2013-03-10T13:38:59Z</time>
      </trkpt>
      <trkpt lat="43.49716" lon="3.77085">
        <ele>54.5</ele>
        <time>2013-03-10T13:39:00Z</time>
      </trkpt>
      <trkpt lat="43.4971" lon="3.77063">
        <ele>54.3</ele>
        <time>2013-03-10T13:39:22Z</time>
      </trkpt>
      <trkpt lat="43.49705" lon="3.77054">
        <ele>54.8</ele>
        <time>2013-03-10T13:40:05Z</time>
      </trkpt>
      <trkpt lat="43.49705" lon="3.77053">
        <ele>54.6</ele>
        <time>2013-03-10T13:40:06Z</time>
      </trkpt>
      <trkpt lat="43.49695" lon="3.77035">
        <ele>56.3</ele>
        <time>2013-03-10T13:40:22Z</time>
      </trkpt>
      <trkpt lat="43.49692" lon="3.77024">
        <ele>56.3</ele>
        <time>2013-03-10T13:40:31Z</time>
      </trkpt>
      <trkpt lat="43.49696" lon="3.77014">
        <ele>54.6</ele>
        <time>2013-03-10T13:40:39Z</time>
      </trkpt>
      <trkpt lat="43.49699" lon="3.77003">
        <ele>57.8</ele>
        <time>2013-03-10T13:40:51Z</time>
      </trkpt>
      <trkpt lat="43.497" lon="3.76992">
        <ele>59.9</ele>
        <time>2013-03-10T13:41:02Z</time>
      </trkpt>
      <trkpt lat="43.49702" lon="3.7698">
        <ele>61.1</ele>
        <time>2013-03-10T13:41:13Z</time>
      </trkpt>
      <trkpt lat="43.49702" lon="3.76979">
        <ele>61.1</ele>
        <time>2013-03-10T13:41:14Z</time>
      </trkpt>
      <trkpt lat="43.49703" lon="3.76956">
        <ele>61.9</ele>
        <time>2013-03-10T13:41:36Z</time>
      </trkpt>
      <trkpt lat="43.49703" lon="3.76943">
        <ele>63.1</ele>
        <time>2013-03-10T13:41:48Z</time>
      </trkpt>
      <trkpt lat="43.49704" lon="3.76932">
        <ele>64.5</ele>
        <time>2013-03-10T13:42:00Z</time>
      </trkpt>
      <trkpt lat="43.49706" lon="3.7692">
        <ele>65</ele>
        <time>2013-03-10T13:42:20Z</time>
      </trkpt>
      <trkpt lat="43.49707" lon="3.7692">
        <ele>64.9</ele>
        <time>2013-03-10T13:42:21Z</time>
      </trkpt>
      <trkpt lat="43.49708" lon="3.76906">
        <ele>65</ele>
        <time>2013-03-10T13:43:45Z</time>
      </trkpt>
      <trkpt lat="43.49708" lon="3.76907">
        <ele>65</ele>
        <time>2013-03-10T13:43:46Z</time>
      </trkpt>
      <trkpt lat="43.49714" lon="3.76895">
        <ele>66.9</ele>
        <time>2013-03-10T13:45:09Z</time>
      </trkpt>
      <trkpt lat="43.49726" lon="3.76879">
        <ele>69.8</ele>
        <time>2013-03-10T13:45:38Z</time>
      </trkpt>
      <trkpt lat="43.49729" lon="3.76867">
        <ele>70.4</ele>
        <time>2013-03-10T13:45:54Z</time>
      </trkpt>
      <trkpt lat="43.49733" lon="3.76857">
        <ele>71.4</ele>
        <time>2013-03-10T13:46:10Z</time>
      </trkpt>
      <trkpt lat="43.49734" lon="3.76857">
        <ele>71.6</ele>
        <time>2013-03-10T13:46:11Z</time>
      </trkpt>
      <trkpt lat="43.49736" lon="3.76834">
        <ele>73.2</ele>
        <time>2013-03-10T13:46:33Z</time>
      </trkpt>
      <trkpt lat="43.49736" lon="3.76822">
        <ele>74</ele>
        <time>2013-03-10T13:46:43Z</time>
      </trkpt>
      <trkpt lat="43.49737" lon="3.7681">
        <ele>75.9</ele>
        <time>2013-03-10T13:46:58Z</time>
      </trkpt>
      <trkpt lat="43.49739" lon="3.76799">
        <ele>77.5</ele>
        <time>2013-03-10T13:47:16Z</time>
      </trkpt>
      <trkpt lat="43.49739" lon="3.76798">
        <ele>77.8</ele>
        <time>2013-03-10T13:47:17Z</time>
      </trkpt>
      <trkpt lat="43.49741" lon="3.76776">
        <ele>79.8</ele>
        <time>2013-03-10T13:47:39Z</time>
      </trkpt>
      <trkpt lat="43.49738" lon="3.76766">
        <ele>79.9</ele>
        <time>2013-03-10T13:47:56Z</time>
      </trkpt>
      <trkpt lat="43.49738" lon="3.76754">
        <ele>81.9</ele>
        <time>2013-03-10T13:48:10Z</time>
      </trkpt>
      <trkpt lat="43.49739" lon="3.76743">
        <ele>82.5</ele>
        <time>2013-03-10T13:48:24Z</time>
      </trkpt>
      <trkpt lat="43.49739" lon="3.76741">
        <ele>82.8</ele>
        <time>2013-03-10T13:48:25Z</time>
      </trkpt>
      <trkpt lat="43.49739" lon="3.76719">
        <ele>86.7</ele>
        <time>2013-03-10T13:48:48Z</time>
      </trkpt>
      <trkpt lat="43.49739" lon="3.76707">
        <ele>88.2</ele>
        <time>2013-03-10T13:49:00Z</time>
      </trkpt>
      <trkpt lat="43.49739" lon="3.76696">
        <ele>88.5</ele>
        <time>2013-03-10T13:49:10Z</time>
      </trkpt>
      <trkpt lat="43.49742" lon="3.76685">
        <ele>90.9</ele>
        <time>2013-03-10T13:49:21Z</time>
      </trkpt>
      <trkpt lat="43.49745" lon="3.76674">
        <ele>92.4</ele>
        <time>2013-03-10T13:49:34Z</time>
      </trkpt>
      <trkpt lat="43.49745" lon="3.76673">
        <ele>92.7</ele>
        <time>2013-03-10T13:49:35Z</time>
      </trkpt>
      <trkpt lat="43.49751" lon="3.76652">
        <ele>97.1</ele>
        <time>2013-03-10T13:50:12Z</time>
      </trkpt>
      <trkpt lat="43.49751" lon="3.76641">
        <ele>100.9</ele>
        <time>2013-03-10T13:50:28Z</time>
      </trkpt>
      <trkpt lat="43.4975" lon="3.76629">
        <ele>104.5</ele>
        <time>2013-03-10T13:50:41Z</time>
      </trkpt>
      <trkpt lat="43.4975" lon="3.76628">
        <ele>104.7</ele>
        <time>2013-03-10T13:50:42Z</time>
      </trkpt>
      <trkpt lat="43.49747" lon="3.76606">
        <ele>109.1</ele>
        <time>2013-03-10T13:51:09Z</time>
      </trkpt>
      <trkpt lat="43.49748" lon="3.76594">
        <ele>109.5</ele>
        <time>2013-03-10T13:51:21Z</time>
      </trkpt>
      <trkpt lat="43.49746" lon="3.76582">
        <ele>111</ele>
        <time>2013-03-10T13:51:37Z</time>
      </trkpt>
      <trkpt lat="43.49745" lon="3.7657">
        <ele>113.1</ele>
        <time>2013-03-10T13:51:52Z</time>
      </trkpt>
      <trkpt lat="43.49744" lon="3.7657">
        <ele>112.9</ele>
        <time>2013-03-10T13:51:53Z</time>
      </trkpt>
      <trkpt lat="43.49736" lon="3.7655">
        <ele>116.2</ele>
        <time>2013-03-10T13:52:18Z</time>
      </trkpt>
      <trkpt lat="43.4973" lon="3.76541">
        <ele>117.2</ele>
        <time>2013-03-10T13:52:34Z</time>
      </trkpt>
      <trkpt lat="43.49724" lon="3.76533">
        <ele>119.2</ele>
        <time>2013-03-10T13:53:09Z</time>
      </trkpt>
      <trkpt lat="43.49724" lon="3.76532">
        <ele>119.4</ele>
        <time>2013-03-10T13:53:10Z</time>
      </trkpt>
      <trkpt lat="43.4971" lon="3.76521">
        <ele>121.9</ele>
        <time>2013-03-10T13:53:57Z</time>
      </trkpt>
      <trkpt lat="43.49705" lon="3.76511">
        <ele>122.8</ele>
        <time>2013-03-10T13:54:08Z</time>
      </trkpt>
      <trkpt lat="43.49698" lon="3.76504">
        <ele>124.7</ele>
        <time>2013-03-10T13:54:16Z</time>
      </trkpt>
      <trkpt lat="43.49698" lon="3.76502">
        <ele>124.7</ele>
        <time>2013-03-10T13:54:17Z</time>
      </trkpt>
      <trkpt lat="43.49686" lon="3.76488">
        <ele>127.3</ele>
        <time>2013-03-10T13:54:41Z</time>
      </trkpt>
      <trkpt lat="43.49679" lon="3.76482">
        <ele>130.3</ele>
        <time>2013-03-10T13:54:54Z</time>
      </trkpt>
      <trkpt lat="43.49673" lon="3.76472">
        <ele>130.8</ele>
        <time>2013-03-10T13:55:08Z</time>
      </trkpt>
      <trkpt lat="43.49665" lon="3.76468">
        <ele>131.8</ele>
        <time>2013-03-10T13:55:23Z</time>
      </trkpt>
      <trkpt lat="43.49665" lon="3.76467">
        <ele>131.8</ele>
        <time>2013-03-10T13:55:24Z</time>
      </trkpt>
      <trkpt lat="43.49656" lon="3.76451">
        <ele>134.7</ele>
        <time>2013-03-10T13:55:56Z</time>
      </trkpt>
      <trkpt lat="43.49653" lon="3.76439">
        <ele>137.2</ele>
        <time>2013-03-10T13:56:09Z</time>
      </trkpt>
      <trkpt lat="43.49648" lon="3.7643">
        <ele>139.7</ele>
        <time>2013-03-10T13:56:30Z</time>
      </trkpt>
      <trkpt lat="43.49647" lon="3.76429">
        <ele>139.8</ele>
        <time>2013-03-10T13:56:31Z</time>
      </trkpt>
      <trkpt lat="43.49634" lon="3.76415">
        <ele>143.1</ele>
        <time>2013-03-10T13:57:03Z</time>
      </trkpt>
      <trkpt lat="43.49632" lon="3.76404">
        <ele>144</ele>
        <time>2013-03-10T13:57:19Z</time>
      </trkpt>
      <trkpt lat="43.4963" lon="3.76392">
        <ele>147.3</ele>
        <time>2013-03-10T13:57:47Z</time>
      </trkpt>
      <trkpt lat="43.4963" lon="3.76391">
        <ele>147.4</ele>
        <time>2013-03-10T13:57:48Z</time>
      </trkpt>
      <trkpt lat="43.49625" lon="3.76381">
        <ele>149.2</ele>
        <time>2013-03-10T14:01:03Z</time>
      </trkpt>
      <trkpt lat="43.49614" lon="3.76363">
        <ele>152.8</ele>
        <time>2013-03-10T14:02:07Z</time>
      </trkpt>
      <trkpt lat="43.49614" lon="3.76362">
        <ele>152.8</ele>
        <time>2013-03-10T14:02:08Z</time>
      </trkpt>
      <trkpt lat="43.49606" lon="3.76343">
        <ele>155.6</ele>
        <time>2013-03-10T14:02:38Z</time>
      </trkpt>
      <trkpt lat="43.49601" lon="3.76333">
        <ele>157.4</ele>
        <time>2013-03-10T14:02:49Z</time>
      </trkpt>
      <trkpt lat="43.49595" lon="3.76326">
        <ele>158.4</ele>
        <time>2013-03-10T14:03:19Z</time>
      </trkpt>
      <trkpt lat="43.49594" lon="3.76325">
        <ele>158.4</ele>
        <time>2013-03-10T14:03:20Z</time>
      </trkpt>
      <trkpt lat="43.49585" lon="3.76306">
        <ele>164.5</ele>
        <time>2013-03-10T14:04:12Z</time>
      </trkpt>
      <trkpt lat="43.49577" lon="3.763">
        <ele>166.1</ele>
        <time>2013-03-10T14:04:44Z</time>
      </trkpt>
      <trkpt lat="43.49576" lon="3.763">
        <ele>166.2</ele>
        <time>2013-03-10T14:04:45Z</time>
      </trkpt>
      <trkpt lat="43.49565" lon="3.76283">
        <ele>170.4</ele>
        <time>2013-03-10T14:05:18Z</time>
      </trkpt>
      <trkpt lat="43.49565" lon="3.76272">
        <ele>173.9</ele>
        <time>2013-03-10T14:06:04Z</time>
      </trkpt>
      <trkpt lat="43.49565" lon="3.76271">
        <ele>174.3</ele>
        <time>2013-03-10T14:06:05Z</time>
      </trkpt>
      <trkpt lat="43.4955" lon="3.76283">
        <ele>181.1</ele>
        <time>2013-03-10T14:07:43Z</time>
      </trkpt>
      <trkpt lat="43.4955" lon="3.76283">
        <ele>181</ele>
        <time>2013-03-10T14:07:44Z</time>
      </trkpt>
      <trkpt lat="43.4955" lon="3.76306">
        <ele>183.8</ele>
        <time>2013-03-10T14:08:19Z</time>
      </trkpt>
      <trkpt lat="43.49549" lon="3.76296">
        <ele>184</ele>
        <time>2013-03-10T14:08:54Z</time>
      </trkpt>
      <trkpt lat="43.49549" lon="3.76294">
        <ele>183.4</ele>
        <time>2013-03-10T14:08:55Z</time>
      </trkpt>
      <trkpt lat="43.49533" lon="3.76284">
        <ele>190.3</ele>
        <time>2013-03-10T14:10:22Z</time>
      </trkpt>
      <trkpt lat="43.49533" lon="3.76284">
        <ele>190.5</ele>
        <time>2013-03-10T14:10:23Z</time>
      </trkpt>
      <trkpt lat="43.49525" lon="3.76289">
        <ele>196.4</ele>
        <time>2013-03-10T14:12:47Z</time>
      </trkpt>
      <trkpt lat="43.49517" lon="3.76269">
        <ele>199.3</ele>
        <time>2013-03-10T14:13:19Z</time>
      </trkpt>
      <trkpt lat="43.49515" lon="3.76258">
        <ele>200.8</ele>
        <time>2013-03-10T14:13:28Z</time>
      </trkpt>
      <trkpt lat="43.49512" lon="3.76248">
        <ele>202.8</ele>
        <time>2013-03-10T14:13:59Z</time>
      </trkpt>
      <trkpt lat="43.49511" lon="3.76246">
        <ele>202.9</ele>
        <time>2013-03-10T14:14:00Z</time>
      </trkpt>
      <trkpt lat="43.49509" lon="3.76224">
        <ele>205.8</ele>
        <time>2013-03-10T14:14:18Z</time>
      </trkpt>
      <trkpt lat="43.49506" lon="3.76213">
        <ele>207.5</ele>
        <time>2013-03-10T14:14:29Z</time>
      </trkpt>
      <trkpt lat="43.49501" lon="3.76204">
        <ele>210</ele>
        <time>2013-03-10T14:14:45Z</time>
      </trkpt>
      <trkpt lat="43.49496" lon="3.76194">
        <ele>211.3</ele>
        <time>2013-03-10T14:14:59Z</time>
      </trkpt>
      <trkpt lat="43.49487" lon="3.7619">
        <ele>213.8</ele>
        <time>2013-03-10T14:15:20Z</time>
      </trkpt>
      <trkpt lat="43.49487" lon="3.76191">
        <ele>214.4</ele>
        <time>2013-03-10T14:15:21Z</time>
      </trkpt>
      <trkpt lat="43.49474" lon="3.76174">
        <ele>215.4</ele>
        <time>2013-03-10T14:16:03Z</time>
      </trkpt>
      <trkpt lat="43.49468" lon="3.76165">
        <ele>216</ele>
        <time>2013-03-10T14:16:20Z</time>
      </trkpt>
      <trkpt lat="43.49461" lon="3.76159">
        <ele>216.9</ele>
        <time>2013-03-10T14:16:31Z</time>
      </trkpt>
      <trkpt lat="43.4946" lon="3.76158">
        <ele>216.9</ele>
        <time>2013-03-10T14:16:32Z</time>
      </trkpt>
      <trkpt lat="43.49449" lon="3.76142">
        <ele>217.5</ele>
        <time>2013-03-10T14:16:55Z</time>
      </trkpt>
      <trkpt lat="43.49442" lon="3.76135">
        <ele>219.1</ele>
        <time>2013-03-10T14:17:17Z</time>
      </trkpt>
      <trkpt lat="43.49436" lon="3.76127">
        <ele>218.3</ele>
        <time>2013-03-10T14:17:31Z</time>
      </trkpt>
      <trkpt lat="43.49428" lon="3.76122">
        <ele>219.1</ele>
        <time>2013-03-10T14:17:39Z</time>
      </trkpt>
      <trkpt lat="43.49427" lon="3.76121">
        <ele>219.8</ele>
        <time>2013-03-10T14:17:40Z</time>
      </trkpt>
      <trkpt lat="43.49414" lon="3.76109">
        <ele>219.4</ele>
        <time>2013-03-10T14:17:52Z</time>
      </trkpt>
      <trkpt lat="43.49407" lon="3.76105">
        <ele>219.7</ele>
        <time>2013-03-10T14:17:58Z</time>
      </trkpt>
      <trkpt lat="43.49399" lon="3.76102">
        <ele>220.1</ele>
        <time>2013-03-10T14:18:05Z</time>
      </trkpt>
      <trkpt lat="43.49391" lon="3.76104">
        <ele>220.9</ele>
        <time>2013-03-10T14:18:12Z</time>
      </trkpt>
      <trkpt lat="43.49382" lon="3.76102">
        <ele>221.6</ele>
        <time>2013-03-10T14:18:19Z</time>
      </trkpt>
      <trkpt lat="43.49375" lon="3.76096">
        <ele>222.4</ele>
        <time>2013-03-10T14:18:26Z</time>
      </trkpt>
      <trkpt lat="43.49368" lon="3.76089">
        <ele>221.7</ele>
        <time>2013-03-10T14:18:33Z</time>
      </trkpt>
      <trkpt lat="43.4936" lon="3.76083">
        <ele>222.6</ele>
        <time>2013-03-10T14:18:40Z</time>
      </trkpt>
      <trkpt lat="43.49359" lon="3.76082">
        <ele>222.7</ele>
        <time>2013-03-10T14:18:41Z</time>
      </trkpt>
      <trkpt lat="43.49347" lon="3.76067">
        <ele>222.9</ele>
        <time>2013-03-10T14:18:54Z</time>
      </trkpt>
      <trkpt lat="43.49343" lon="3.76057">
        <ele>223</ele>
        <time>2013-03-10T14:19:01Z</time>
      </trkpt>
      <trkpt lat="43.49338" lon="3.76046">
        <ele>223.7</ele>
        <time>2013-03-10T14:19:08Z</time>
      </trkpt>
      <trkpt lat="43.49334" lon="3.76035">
        <ele>224.1</ele>
        <time>2013-03-10T14:19:15Z</time>
      </trkpt>
      <trkpt lat="43.49335" lon="3.76023">
        <ele>223.4</ele>
        <time>2013-03-10T14:19:23Z</time>
      </trkpt>
      <trkpt lat="43.4934" lon="3.76013">
        <ele>222.3</ele>
        <time>2013-03-10T14:19:33Z</time>
      </trkpt>
      <trkpt lat="43.49343" lon="3.76003">
        <ele>223</ele>
        <time>2013-03-10T14:19:39Z</time>
      </trkpt>
      <trkpt lat="43.49348" lon="3.75994">
        <ele>223.2</ele>
        <time>2013-03-10T14:19:45Z</time>
      </trkpt>
      <trkpt lat="43.49349" lon="3.75993">
        <ele>223.2</ele>
        <time>2013-03-10T14:19:46Z</time>
      </trkpt>
      <trkpt lat="43.49356" lon="3.75974">
        <ele>222.8</ele>
        <time>2013-03-10T14:19:58Z</time>
      </trkpt>
      <trkpt lat="43.49362" lon="3.75965">
        <ele>224</ele>
        <time>2013-03-10T14:20:05Z</time>
      </trkpt>
      <trkpt lat="43.49367" lon="3.75954">
        <ele>224.1</ele>
        <time>2013-03-10T14:20:12Z</time>
      </trkpt>
      <trkpt lat="43.49372" lon="3.75945">
        <ele>223.6</ele>
        <time>2013-03-10T14:20:19Z</time>
      </trkpt>
      <trkpt lat="43.49374" lon="3.75933">
        <ele>223</ele>
        <time>2013-03-10T14:20:26Z</time>
      </trkpt>
      <trkpt lat="43.49377" lon="3.75924">
        <ele>224</ele>
        <time>2013-03-10T14:20:32Z</time>
      </trkpt>
      <trkpt lat="43.4938" lon="3.75914">
        <ele>224</ele>
        <time>2013-03-10T14:20:38Z</time>
      </trkpt>
      <trkpt lat="43.49382" lon="3.75903">
        <ele>224.3</ele>
        <time>2013-03-10T14:20:44Z</time>
      </trkpt>
      <trkpt lat="43.49384" lon="3.75892">
        <ele>223.9</ele>
        <time>2013-03-10T14:20:56Z</time>
      </trkpt>
      <trkpt lat="43.49384" lon="3.7589">
        <ele>224.1</ele>
        <time>2013-03-10T14:20:57Z</time>
      </trkpt>
      <trkpt lat="43.49385" lon="3.75871">
        <ele>224.2</ele>
        <time>2013-03-10T14:21:08Z</time>
      </trkpt>
      <trkpt lat="43.49386" lon="3.75859">
        <ele>224.2</ele>
        <time>2013-03-10T14:21:14Z</time>
      </trkpt>
      <trkpt lat="43.49385" lon="3.75847">
        <ele>223.8</ele>
        <time>2013-03-10T14:21:20Z</time>
      </trkpt>
      <trkpt lat="43.49384" lon="3.75836">
        <ele>223.6</ele>
        <time>2013-03-10T14:21:26Z</time>
      </trkpt>
      <trkpt lat="43.49384" lon="3.75825">
        <ele>224.2</ele>
        <time>2013-03-10T14:21:32Z</time>
      </trkpt>
      <trkpt lat="43.49382" lon="3.75813">
        <ele>223.9</ele>
        <time>2013-03-10T14:21:41Z</time>
      </trkpt>
      <trkpt lat="43.49382" lon="3.75802">
        <ele>224.6</ele>
        <time>2013-03-10T14:21:47Z</time>
      </trkpt>
      <trkpt lat="43.49383" lon="3.75791">
        <ele>224</ele>
        <time>2013-03-10T14:21:53Z</time>
      </trkpt>
      <trkpt lat="43.49385" lon="3.7578">
        <ele>223.6</ele>
        <time>2013-03-10T14:21:59Z</time>
      </trkpt>
      <trkpt lat="43.49385" lon="3.75778">
        <ele>223.7</ele>
        <time>2013-03-10T14:22:00Z</time>
      </trkpt>
      <trkpt lat="43.49383" lon="3.75758">
        <ele>224.1</ele>
        <time>2013-03-10T14:22:12Z</time>
      </trkpt>
      <trkpt lat="43.49381" lon="3.75746">
        <ele>223.5</ele>
        <time>2013-03-10T14:22:20Z</time>
      </trkpt>
      <trkpt lat="43.49385" lon="3.75736">
        <ele>223.4</ele>
        <time>2013-03-10T14:22:29Z</time>
      </trkpt>
      <trkpt lat="43.49386" lon="3.75724">
        <ele>223.9</ele>
        <time>2013-03-10T14:22:38Z</time>
      </trkpt>
      <trkpt lat="43.49388" lon="3.75713">
        <ele>223.8</ele>
        <time>2013-03-10T14:22:44Z</time>
      </trkpt>
      <trkpt lat="43.4939" lon="3.75702">
        <ele>223.9</ele>
        <time>2013-03-10T14:22:50Z</time>
      </trkpt>
      <trkpt lat="43.49391" lon="3.75692">
        <ele>223.4</ele>
        <time>2013-03-10T14:22:56Z</time>
      </trkpt>
      <trkpt lat="43.49392" lon="3.75681">
        <ele>223.7</ele>
        <time>2013-03-10T14:23:02Z</time>
      </trkpt>
      <trkpt lat="43.49392" lon="3.75679">
        <ele>223.7</ele>
        <time>2013-03-10T14:23:03Z</time>
      </trkpt>
      <trkpt lat="43.49391" lon="3.75656">
        <ele>222.7</ele>
        <time>2013-03-10T14:23:16Z</time>
      </trkpt>
      <trkpt lat="43.4939" lon="3.75644">
        <ele>222.4</ele>
        <time>2013-03-10T14:23:23Z</time>
      </trkpt>
      <trkpt lat="43.49388" lon="3.75632">
        <ele>221.8</ele>
        <time>2013-03-10T14:23:30Z</time>
      </trkpt>
      <trkpt lat="43.49387" lon="3.75621">
        <ele>221.8</ele>
        <time>2013-03-10T14:23:37Z</time>
      </trkpt>
      <trkpt lat="43.49385" lon="3.75609">
        <ele>220.8</ele>
        <time>2013-03-10T14:23:44Z</time>
      </trkpt>
      <trkpt lat="43.49383" lon="3.75598">
        <ele>220.3</ele>
        <time>2013-03-10T14:23:51Z</time>
      </trkpt>
      <trkpt lat="43.49382" lon="3.75586">
        <ele>219.5</ele>
        <time>2013-03-10T14:23:58Z</time>
      </trkpt>
      <trkpt lat="43.4938" lon="3.75574">
        <ele>219.7</ele>
        <time>2013-03-10T14:24:05Z</time>
      </trkpt>
      <trkpt lat="43.49379" lon="3.75573">
        <ele>219.8</ele>
        <time>2013-03-10T14:24:06Z</time>
      </trkpt>
      <trkpt lat="43.49374" lon="3.75552">
        <ele>220</ele>
        <time>2013-03-10T14:24:19Z</time>
      </trkpt>
      <trkpt lat="43.49372" lon="3.75541">
        <ele>220.1</ele>
        <time>2013-03-10T14:24:26Z</time>
      </trkpt>
      <trkpt lat="43.49368" lon="3.7553">
        <ele>220.3</ele>
        <time>2013-03-10T14:24:33Z</time>
      </trkpt>
      <trkpt lat="43.49366" lon="3.75518">
        <ele>219.4</ele>
        <time>2013-03-10T14:24:40Z</time>
      </trkpt>
      <trkpt lat="43.49363" lon="3.75507">
        <ele>219.5</ele>
        <time>2013-03-10T14:24:47Z</time>
      </trkpt>
      <trkpt lat="43.4936" lon="3.75496">
        <ele>220.2</ele>
        <time>2013-03-10T14:24:54Z</time>
      </trkpt>
      <trkpt lat="43.49358" lon="3.75485">
        <ele>219.9</ele>
        <time>2013-03-10T14:25:01Z</time>
      </trkpt>
      <trkpt lat="43.49355" lon="3.75474">
        <ele>219.4</ele>
        <time>2013-03-10T14:25:08Z</time>
      </trkpt>
      <trkpt lat="43.49355" lon="3.75472">
        <ele>219.1</ele>
        <time>2013-03-10T14:25:09Z</time>
      </trkpt>
      <trkpt lat="43.49353" lon="3.75452">
        <ele>218.8</ele>
        <time>2013-03-10T14:25:20Z</time>
      </trkpt>
      <trkpt lat="43.49352" lon="3.75442">
        <ele>218</ele>
        <time>2013-03-10T14:25:26Z</time>
      </trkpt>
      <trkpt lat="43.49352" lon="3.7543">
        <ele>217.6</ele>
        <time>2013-03-10T14:25:33Z</time>
      </trkpt>
      <trkpt lat="43.49353" lon="3.75418">
        <ele>216.8</ele>
        <time>2013-03-10T14:25:40Z</time>
      </trkpt>
      <trkpt lat="43.49356" lon="3.75407">
        <ele>217.1</ele>
        <time>2013-03-10T14:25:47Z</time>
      </trkpt>
      <trkpt lat="43.49358" lon="3.75396">
        <ele>216.1</ele>
        <time>2013-03-10T14:25:54Z</time>
      </trkpt>
      <trkpt lat="43.49361" lon="3.75384">
        <ele>215.2</ele>
        <time>2013-03-10T14:26:01Z</time>
      </trkpt>
      <trkpt lat="43.49364" lon="3.75373">
        <ele>215.2</ele>
        <time>2013-03-10T14:26:08Z</time>
      </trkpt>
      <trkpt lat="43.49368" lon="3.75362">
        <ele>215.5</ele>
        <time>2013-03-10T14:26:15Z</time>
      </trkpt>
      <trkpt lat="43.49368" lon="3.7536">
        <ele>215.4</ele>
        <time>2013-03-10T14:26:16Z</time>
      </trkpt>
      <trkpt lat="43.49373" lon="3.75351">
        <ele>215.5</ele>
        <time>2013-03-10T14:29:24Z</time>
      </trkpt>
      <trkpt lat="43.49383" lon="3.75336">
        <ele>214.4</ele>
        <time>2013-03-10T14:29:40Z</time>
      </trkpt>
      <trkpt lat="43.49391" lon="3.7533">
        <ele>216.3</ele>
        <time>2013-03-10T14:29:49Z</time>
      </trkpt>
      <trkpt lat="43.49399" lon="3.75324">
        <ele>215.4</ele>
        <time>2013-03-10T14:30:02Z</time>
      </trkpt>
      <trkpt lat="43.49407" lon="3.7532">
        <ele>216.4</ele>
        <time>2013-03-10T14:30:12Z</time>
      </trkpt>
      <trkpt lat="43.49414" lon="3.75317">
        <ele>217.2</ele>
        <time>2013-03-10T14:30:21Z</time>
      </trkpt>
      <trkpt lat="43.49422" lon="3.7531">
        <ele>217.8</ele>
        <time>2013-03-10T14:30:29Z</time>
      </trkpt>
      <trkpt lat="43.49423" lon="3.75309">
        <ele>217.9</ele>
        <time>2013-03-10T14:30:30Z</time>
      </trkpt>
      <trkpt lat="43.49436" lon="3.75297">
        <ele>217</ele>
        <time>2013-03-10T14:30:46Z</time>
      </trkpt>
      <trkpt lat="43.49443" lon="3.7529">
        <ele>217.3</ele>
        <time>2013-03-10T14:30:56Z</time>
      </trkpt>
      <trkpt lat="43.4945" lon="3.75284">
        <ele>218.4</ele>
        <time>2013-03-10T14:31:04Z</time>
      </trkpt>
      <trkpt lat="43.49457" lon="3.75278">
        <ele>218.3</ele>
        <time>2013-03-10T14:31:11Z</time>
      </trkpt>
      <trkpt lat="43.49464" lon="3.75271">
        <ele>219</ele>
        <time>2013-03-10T14:31:18Z</time>
      </trkpt>
      <trkpt lat="43.49471" lon="3.75265">
        <ele>218.6</ele>
        <time>2013-03-10T14:31:25Z</time>
      </trkpt>
      <trkpt lat="43.49478" lon="3.75258">
        <ele>218.8</ele>
        <time>2013-03-10T14:31:33Z</time>
      </trkpt>
      <trkpt lat="43.49479" lon="3.75257">
        <ele>218.9</ele>
        <time>2013-03-10T14:31:34Z</time>
      </trkpt>
      <trkpt lat="43.49493" lon="3.75248">
        <ele>218.6</ele>
        <time>2013-03-10T14:31:49Z</time>
      </trkpt>
      <trkpt lat="43.49501" lon="3.75242">
        <ele>219.9</ele>
        <time>2013-03-10T14:31:57Z</time>
      </trkpt>
      <trkpt lat="43.49508" lon="3.75234">
        <ele>219.6</ele>
        <time>2013-03-10T14:32:05Z</time>
      </trkpt>
      <trkpt lat="43.49512" lon="3.75223">
        <ele>219.1</ele>
        <time>2013-03-10T14:32:13Z</time>
      </trkpt>
      <trkpt lat="43.49514" lon="3.75212">
        <ele>220.7</ele>
        <time>2013-03-10T14:32:21Z</time>
      </trkpt>
      <trkpt lat="43.49516" lon="3.75201">
        <ele>221.8</ele>
        <time>2013-03-10T14:32:29Z</time>
      </trkpt>
      <trkpt lat="43.49519" lon="3.7519">
        <ele>222</ele>
        <time>2013-03-10T14:32:37Z</time>
      </trkpt>
      <trkpt lat="43.4952" lon="3.75189">
        <ele>222.2</ele>
        <time>2013-03-10T14:32:38Z</time>
      </trkpt>
      <trkpt lat="43.49519" lon="3.75167">
        <ele>223.3</ele>
        <time>2013-03-10T14:32:53Z</time>
      </trkpt>
      <trkpt lat="43.49514" lon="3.75158">
        <ele>224.8</ele>
        <time>2013-03-10T14:33:26Z</time>
      </trkpt>
      <trkpt lat="43.4952" lon="3.75148">
        <ele>225.5</ele>
        <time>2013-03-10T14:33:39Z</time>
      </trkpt>
      <trkpt lat="43.49521" lon="3.75148">
        <ele>225.3</ele>
        <time>2013-03-10T14:33:40Z</time>
      </trkpt>
      <trkpt lat="43.49531" lon="3.75131">
        <ele>226.5</ele>
        <time>2013-03-10T14:34:07Z</time>
      </trkpt>
      <trkpt lat="43.49532" lon="3.75119">
        <ele>226.8</ele>
        <time>2013-03-10T14:34:21Z</time>
      </trkpt>
      <trkpt lat="43.49532" lon="3.75107">
        <ele>227</ele>
        <time>2013-03-10T14:34:31Z</time>
      </trkpt>
      <trkpt lat="43.49535" lon="3.75095">
        <ele>226.6</ele>
        <time>2013-03-10T14:34:44Z</time>
      </trkpt>
      <trkpt lat="43.49536" lon="3.75094">
        <ele>226.6</ele>
        <time>2013-03-10T14:34:45Z</time>
      </trkpt>
      <trkpt lat="43.49543" lon="3.75073">
        <ele>226.8</ele>
        <time>2013-03-10T14:35:00Z</time>
      </trkpt>
      <trkpt lat="43.49546" lon="3.75062">
        <ele>227.4</ele>
        <time>2013-03-10T14:35:08Z</time>
      </trkpt>
      <trkpt lat="43.49549" lon="3.75051">
        <ele>227.7</ele>
        <time>2013-03-10T14:35:19Z</time>
      </trkpt>
      <trkpt lat="43.49552" lon="3.7504">
        <ele>227.2</ele>
        <time>2013-03-10T14:35:31Z</time>
      </trkpt>
      <trkpt lat="43.49554" lon="3.75028">
        <ele>227.4</ele>
        <time>2013-03-10T14:35:41Z</time>
      </trkpt>
      <trkpt lat="43.49552" lon="3.75017">
        <ele>226.8</ele>
        <time>2013-03-10T14:36:08Z</time>
      </trkpt>
      <trkpt lat="43.49552" lon="3.75016">
        <ele>226.5</ele>
        <time>2013-03-10T14:36:09Z</time>
      </trkpt>
      <trkpt lat="43.4955" lon="3.74995">
        <ele>227.5</ele>
        <time>2013-03-10T14:36:24Z</time>
      </trkpt>
      <trkpt lat="43.49548" lon="3.74984">
        <ele>228</ele>
        <time>2013-03-10T14:36:32Z</time>
      </trkpt>
      <trkpt lat="43.49545" lon="3.74973">
        <ele>227.2</ele>
        <time>2013-03-10T14:36:42Z</time>
      </trkpt>
      <trkpt lat="43.49539" lon="3.74966">
        <ele>227.3</ele>
        <time>2013-03-10T14:36:49Z</time>
      </trkpt>
      <trkpt lat="43.49531" lon="3.74962">
        <ele>228.6</ele>
        <time>2013-03-10T14:36:58Z</time>
      </trkpt>
      <trkpt lat="43.49523" lon="3.7496">
        <ele>227.2</ele>
        <time>2013-03-10T14:37:06Z</time>
      </trkpt>
      <trkpt lat="43.49515" lon="3.74958">
        <ele>227.8</ele>
        <time>2013-03-10T14:37:14Z</time>
      </trkpt>
      <trkpt lat="43.49514" lon="3.74958">
        <ele>227.7</ele>
        <time>2013-03-10T14:37:15Z</time>
      </trkpt>
      <trkpt lat="43.495" lon="3.74948">
        <ele>227.6</ele>
        <time>2013-03-10T14:37:36Z</time>
      </trkpt>
      <trkpt lat="43.49492" lon="3.74941">
        <ele>225.4</ele>
        <time>2013-03-10T14:37:45Z</time>
      </trkpt>
      <trkpt lat="43.49484" lon="3.74937">
        <ele>225.5</ele>
        <time>2013-03-10T14:37:55Z</time>
      </trkpt>
      <trkpt lat="43.49477" lon="3.74933">
        <ele>225.3</ele>
        <time>2013-03-10T14:38:02Z</time>
      </trkpt>
      <trkpt lat="43.4947" lon="3.74925">
        <ele>225.8</ele>
        <time>2013-03-10T14:38:16Z</time>
      </trkpt>
      <trkpt lat="43.49469" lon="3.74924">
        <ele>226</ele>
        <time>2013-03-10T14:38:17Z</time>
      </trkpt>
      <trkpt lat="43.49457" lon="3.74909">
        <ele>225</ele>
        <time>2013-03-10T14:38:30Z</time>
      </trkpt>
      <trkpt lat="43.49449" lon="3.74904">
        <ele>224.7</ele>
        <time>2013-03-10T14:38:38Z</time>
      </trkpt>
      <trkpt lat="43.49442" lon="3.74902">
        <ele>226</ele>
        <time>2013-03-10T14:38:47Z</time>
      </trkpt>
      <trkpt lat="43.49434" lon="3.74896">
        <ele>227.7</ele>
        <time>2013-03-10T14:38:57Z</time>
      </trkpt>
      <trkpt lat="43.49427" lon="3.7489">
        <ele>226.4</ele>
        <time>2013-03-10T14:39:10Z</time>
      </trkpt>
      <trkpt lat="43.49419" lon="3.74885">
        <ele>227.2</ele>
        <time>2013-03-10T14:39:19Z</time>
      </trkpt>
      <trkpt lat="43.49418" lon="3.74885">
        <ele>227.1</ele>
        <time>2013-03-10T14:39:20Z</time>
      </trkpt>
      <trkpt lat="43.49404" lon="3.74874">
        <ele>224.9</ele>
        <time>2013-03-10T14:39:41Z</time>
      </trkpt>
      <trkpt lat="43.49396" lon="3.74872">
        <ele>225.8</ele>
        <time>2013-03-10T14:39:50Z</time>
      </trkpt>
      <trkpt lat="43.49388" lon="3.74866">
        <ele>224.6</ele>
        <time>2013-03-10T14:40:28Z</time>
      </trkpt>
      <trkpt lat="43.49388" lon="3.74864">
        <ele>224.4</ele>
        <time>2013-03-10T14:40:29Z</time>
      </trkpt>
      <trkpt lat="43.49378" lon="3.74846">
        <ele>224.2</ele>
        <time>2013-03-10T14:40:58Z</time>
      </trkpt>
      <trkpt lat="43.49377" lon="3.74834">
        <ele>223.1</ele>
        <time>2013-03-10T14:41:06Z</time>
      </trkpt>
      <trkpt lat="43.49373" lon="3.74823">
        <ele>224.2</ele>
        <time>2013-03-10T14:41:14Z</time>
      </trkpt>
      <trkpt lat="43.49367" lon="3.74816">
        <ele>222.8</ele>
        <time>2013-03-10T14:41:28Z</time>
      </trkpt>
      <trkpt lat="43.49362" lon="3.74807">
        <ele>223.8</ele>
        <time>2013-03-10T14:41:36Z</time>
      </trkpt>
      <trkpt lat="43.49361" lon="3.74806">
        <ele>223.5</ele>
        <time>2013-03-10T14:41:37Z</time>
      </trkpt>
      <trkpt lat="43.49347" lon="3.74804">
        <ele>224.8</ele>
        <time>2013-03-10T14:41:57Z</time>
      </trkpt>
      <trkpt lat="43.49338" lon="3.748">
        <ele>223.6</ele>
        <time>2013-03-10T14:42:06Z</time>
      </trkpt>
      <trkpt lat="43.49331" lon="3.74794">
        <ele>223.4</ele>
        <time>2013-03-10T14:42:14Z</time>
      </trkpt>
      <trkpt lat="43.49328" lon="3.74783">
        <ele>223.8</ele>
        <time>2013-03-10T14:42:21Z</time>
      </trkpt>
      <trkpt lat="43.49319" lon="3.74779">
        <ele>222.9</ele>
        <time>2013-03-10T14:42:30Z</time>
      </trkpt>
      <trkpt lat="43.49311" lon="3.74777">
        <ele>222.4</ele>
        <time>2013-03-10T14:42:40Z</time>
      </trkpt>
      <trkpt lat="43.4931" lon="3.74777">
        <ele>222.5</ele>
        <time>2013-03-10T14:42:41Z</time>
      </trkpt>
      <trkpt lat="43.49294" lon="3.74775">
        <ele>221.5</ele>
        <time>2013-03-10T14:42:57Z</time>
      </trkpt>
      <trkpt lat="43.49285" lon="3.74778">
        <ele>221</ele>
        <time>2013-03-10T14:43:06Z</time>
      </trkpt>
      <trkpt lat="43.49277" lon="3.74777">
        <ele>220.8</ele>
        <time>2013-03-10T14:43:14Z</time>
      </trkpt>
      <trkpt lat="43.49269" lon="3.74777">
        <ele>220.9</ele>
        <time>2013-03-10T14:43:21Z</time>
      </trkpt>
      <trkpt lat="43.49261" lon="3.74777">
        <ele>220.7</ele>
        <time>2013-03-10T14:43:31Z</time>
      </trkpt>
      <trkpt lat="43.49254" lon="3.74779">
        <ele>220.5</ele>
        <time>2013-03-10T14:43:37Z</time>
      </trkpt>
      <trkpt lat="43.49245" lon="3.74778">
        <ele>218.8</ele>
        <time>2013-03-10T14:43:43Z</time>
      </trkpt>
      <trkpt lat="43.49243" lon="3.74777">
        <ele>218.7</ele>
        <time>2013-03-10T14:43:44Z</time>
      </trkpt>
      <trkpt lat="43.49233" lon="3.74763">
        <ele>218.8</ele>
        <time>2013-03-10T14:43:57Z</time>
      </trkpt>
      <trkpt lat="43.49225" lon="3.74758">
        <ele>218.9</ele>
        <time>2013-03-10T14:44:05Z</time>
      </trkpt>
      <trkpt lat="43.49216" lon="3.74757">
        <ele>218.1</ele>
        <time>2013-03-10T14:44:20Z</time>
      </trkpt>
      <trkpt lat="43.49208" lon="3.74759">
        <ele>220.5</ele>
        <time>2013-03-10T14:44:32Z</time>
      </trkpt>
      <trkpt lat="43.49201" lon="3.74752">
        <ele>219.9</ele>
        <time>2013-03-10T14:44:41Z</time>
      </trkpt>
      <trkpt lat="43.49201" lon="3.74741">
        <ele>218.9</ele>
        <time>2013-03-10T14:44:48Z</time>
      </trkpt>
      <trkpt lat="43.492" lon="3.7474">
        <ele>218.5</ele>
        <time>2013-03-10T14:44:49Z</time>
      </trkpt>
      <trkpt lat="43.49185" lon="3.74736">
        <ele>218.6</ele>
        <time>2013-03-10T14:45:27Z</time>
      </trkpt>
      <trkpt lat="43.49177" lon="3.74733">
        <ele>218.1</ele>
        <time>2013-03-10T14:45:44Z</time>
      </trkpt>
      <trkpt lat="43.49175" lon="3.74721">
        <ele>218.6</ele>
        <time>2013-03-10T14:45:54Z</time>
      </trkpt>
      <trkpt lat="43.49175" lon="3.7472">
        <ele>218.6</ele>
        <time>2013-03-10T14:45:55Z</time>
      </trkpt>
      <trkpt lat="43.49171" lon="3.747">
        <ele>214.8</ele>
        <time>2013-03-10T14:46:14Z</time>
      </trkpt>
      <trkpt lat="43.49163" lon="3.74695">
        <ele>214.1</ele>
        <time>2013-03-10T14:46:24Z</time>
      </trkpt>
      <trkpt lat="43.49154" lon="3.74694">
        <ele>213.9</ele>
        <time>2013-03-10T14:46:34Z</time>
      </trkpt>
      <trkpt lat="43.49146" lon="3.74694">
        <ele>213.9</ele>
        <time>2013-03-10T14:46:42Z</time>
      </trkpt>
      <trkpt lat="43.49137" lon="3.74694">
        <ele>214</ele>
        <time>2013-03-10T14:46:50Z</time>
      </trkpt>
      <trkpt lat="43.49129" lon="3.74691">
        <ele>213.4</ele>
        <time>2013-03-10T14:46:58Z</time>
      </trkpt>
      <trkpt lat="43.49128" lon="3.74691">
        <ele>213.4</ele>
        <time>2013-03-10T14:46:59Z</time>
      </trkpt>
      <trkpt lat="43.49113" lon="3.74684">
        <ele>213.7</ele>
        <time>2013-03-10T14:47:13Z</time>
      </trkpt>
      <trkpt lat="43.49107" lon="3.74679">
        <ele>212.9</ele>
        <time>2013-03-10T14:47:19Z</time>
      </trkpt>
      <trkpt lat="43.49099" lon="3.74674">
        <ele>211.8</ele>
        <time>2013-03-10T14:47:26Z</time>
      </trkpt>
      <trkpt lat="43.49092" lon="3.74669">
        <ele>211.6</ele>
        <time>2013-03-10T14:47:33Z</time>
      </trkpt>
      <trkpt lat="43.49085" lon="3.74663">
        <ele>212.4</ele>
        <time>2013-03-10T14:47:40Z</time>
      </trkpt>
      <trkpt lat="43.49078" lon="3.74659">
        <ele>212.3</ele>
        <time>2013-03-10T14:47:48Z</time>
      </trkpt>
      <trkpt lat="43.4907" lon="3.74656">
        <ele>213.1</ele>
        <time>2013-03-10T14:47:56Z</time>
      </trkpt>
      <trkpt lat="43.49062" lon="3.74651">
        <ele>214</ele>
        <time>2013-03-10T14:48:03Z</time>
      </trkpt>
      <trkpt lat="43.49062" lon="3.74651">
        <ele>213.6</ele>
        <time>2013-03-10T14:48:04Z</time>
      </trkpt>
      <trkpt lat="43.49045" lon="3.74648">
        <ele>214.3</ele>
        <time>2013-03-10T14:48:20Z</time>
      </trkpt>
      <trkpt lat="43.49037" lon="3.74644">
        <ele>214.6</ele>
        <time>2013-03-10T14:48:31Z</time>
      </trkpt>
      <trkpt lat="43.49029" lon="3.7464">
        <ele>214.6</ele>
        <time>2013-03-10T14:48:40Z</time>
      </trkpt>
      <trkpt lat="43.49021" lon="3.74635">
        <ele>215</ele>
        <time>2013-03-10T14:48:48Z</time>
      </trkpt>
      <trkpt lat="43.49013" lon="3.7463">
        <ele>214.7</ele>
        <time>2013-03-10T14:48:57Z</time>
      </trkpt>
      <trkpt lat="43.49005" lon="3.74629">
        <ele>214.3</ele>
        <time>2013-03-10T14:49:07Z</time>
      </trkpt>
      <trkpt lat="43.49004" lon="3.74629">
        <ele>214.5</ele>
        <time>2013-03-10T14:49:08Z</time>
      </trkpt>
      <trkpt lat="43.4899" lon="3.74619">
        <ele>213.6</ele>
        <time>2013-03-10T14:49:24Z</time>
      </trkpt>
      <trkpt lat="43.48981" lon="3.74615">
        <ele>213.6</ele>
        <time>2013-03-10T14:49:34Z</time>
      </trkpt>
      <trkpt lat="43.48973" lon="3.74614">
        <ele>214</ele>
        <time>2013-03-10T14:49:41Z</time>
      </trkpt>
      <trkpt lat="43.48965" lon="3.74608">
        <ele>213.4</ele>
        <time>2013-03-10T14:49:48Z</time>
      </trkpt>
      <trkpt lat="43.48958" lon="3.74604">
        <ele>213.3</ele>
        <time>2013-03-10T14:49:55Z</time>
      </trkpt>
      <trkpt lat="43.4895" lon="3.746">
        <ele>213.7</ele>
        <time>2013-03-10T14:50:02Z</time>
      </trkpt>
      <trkpt lat="43.48946" lon="3.74589">
        <ele>211.3</ele>
        <time>2013-03-10T14:50:10Z</time>
      </trkpt>
      <trkpt lat="43.48946" lon="3.74588">
        <ele>209.9</ele>
        <time>2013-03-10T14:50:11Z</time>
      </trkpt>
      <trkpt lat="43.48946" lon="3.74565">
        <ele>214.2</ele>
        <time>2013-03-10T14:50:29Z</time>
      </trkpt>
      <trkpt lat="43.48946" lon="3.74554">
        <ele>213.5</ele>
        <time>2013-03-10T14:50:38Z</time>
      </trkpt>
      <trkpt lat="43.48945" lon="3.74542">
        <ele>213.6</ele>
        <time>2013-03-10T14:50:49Z</time>
      </trkpt>
      <trkpt lat="43.48944" lon="3.74531">
        <ele>213.8</ele>
        <time>2013-03-10T14:51:00Z</time>
      </trkpt>
      <trkpt lat="43.48943" lon="3.7452">
        <ele>214.5</ele>
        <time>2013-03-10T14:51:06Z</time>
      </trkpt>
      <trkpt lat="43.48943" lon="3.74508">
        <ele>213.6</ele>
        <time>2013-03-10T14:51:14Z</time>
      </trkpt>
      <trkpt lat="43.48942" lon="3.74506">
        <ele>213.6</ele>
        <time>2013-03-10T14:51:15Z</time>
      </trkpt>
      <trkpt lat="43.48933" lon="3.74489">
        <ele>211.8</ele>
        <time>2013-03-10T14:51:32Z</time>
      </trkpt>
      <trkpt lat="43.48928" lon="3.7448">
        <ele>210.3</ele>
        <time>2013-03-10T14:51:40Z</time>
      </trkpt>
      <trkpt lat="43.48923" lon="3.74472">
        <ele>208.9</ele>
        <time>2013-03-10T14:51:47Z</time>
      </trkpt>
      <trkpt lat="43.48919" lon="3.74461">
        <ele>207.3</ele>
        <time>2013-03-10T14:51:55Z</time>
      </trkpt>
      <trkpt lat="43.48928" lon="3.74459">
        <ele>203.7</ele>
        <time>2013-03-10T14:52:14Z</time>
      </trkpt>
      <trkpt lat="43.48936" lon="3.74459">
        <ele>203.9</ele>
        <time>2013-03-10T14:52:31Z</time>
      </trkpt>
      <trkpt lat="43.48937" lon="3.7446">
        <ele>204</ele>
        <time>2013-03-10T14:52:32Z</time>
      </trkpt>
      <trkpt lat="43.48953" lon="3.74461">
        <ele>201.2</ele>
        <time>2013-03-10T14:52:52Z</time>
      </trkpt>
      <trkpt lat="43.48962" lon="3.74461">
        <ele>200.7</ele>
        <time>2013-03-10T14:52:59Z</time>
      </trkpt>
      <trkpt lat="43.4897" lon="3.74462">
        <ele>198.4</ele>
        <time>2013-03-10T14:53:07Z</time>
      </trkpt>
      <trkpt lat="43.48978" lon="3.74458">
        <ele>197</ele>
        <time>2013-03-10T14:53:16Z</time>
      </trkpt>
      <trkpt lat="43.48985" lon="3.7445">
        <ele>196.7</ele>
        <time>2013-03-10T14:53:23Z</time>
      </trkpt>
      <trkpt lat="43.48992" lon="3.74443">
        <ele>196</ele>
        <time>2013-03-10T14:53:31Z</time>
      </trkpt>
      <trkpt lat="43.48999" lon="3.74436">
        <ele>194.6</ele>
        <time>2013-03-10T14:53:39Z</time>
      </trkpt>
      <trkpt lat="43.48999" lon="3.74434">
        <ele>194.7</ele>
        <time>2013-03-10T14:53:40Z</time>
      </trkpt>
      <trkpt lat="43.49007" lon="3.74416">
        <ele>192.9</ele>
        <time>2013-03-10T14:53:53Z</time>
      </trkpt>
      <trkpt lat="43.49009" lon="3.74405">
        <ele>192.1</ele>
        <time>2013-03-10T14:54:00Z</time>
      </trkpt>
      <trkpt lat="43.49012" lon="3.74395">
        <ele>190.2</ele>
        <time>2013-03-10T14:54:08Z</time>
      </trkpt>
      <trkpt lat="43.49012" lon="3.74383">
        <ele>188.8</ele>
        <time>2013-03-10T14:54:17Z</time>
      </trkpt>
      <trkpt lat="43.49012" lon="3.74371">
        <ele>188.3</ele>
        <time>2013-03-10T14:54:25Z</time>
      </trkpt>
      <trkpt lat="43.49011" lon="3.7436">
        <ele>188</ele>
        <time>2013-03-10T14:54:32Z</time>
      </trkpt>
      <trkpt lat="43.49011" lon="3.74349">
        <ele>187.2</ele>
        <time>2013-03-10T14:54:39Z</time>
      </trkpt>
      <trkpt lat="43.49011" lon="3.74336">
        <ele>187.6</ele>
        <time>2013-03-10T14:54:47Z</time>
      </trkpt>
      <trkpt lat="43.49012" lon="3.74335">
        <ele>187.2</ele>
        <time>2013-03-10T14:54:48Z</time>
      </trkpt>
      <trkpt lat="43.49005" lon="3.74316">
        <ele>187.2</ele>
        <time>2013-03-10T14:55:06Z</time>
      </trkpt>
      <trkpt lat="43.48998" lon="3.74309">
        <ele>188.5</ele>
        <time>2013-03-10T14:55:17Z</time>
      </trkpt>
      <trkpt lat="43.48991" lon="3.74304">
        <ele>188.6</ele>
        <time>2013-03-10T14:55:26Z</time>
      </trkpt>
      <trkpt lat="43.48984" lon="3.74295">
        <ele>188</ele>
        <time>2013-03-10T14:55:35Z</time>
      </trkpt>
      <trkpt lat="43.48982" lon="3.74285">
        <ele>187.4</ele>
        <time>2013-03-10T14:55:42Z</time>
      </trkpt>
      <trkpt lat="43.4898" lon="3.74273">
        <ele>187.7</ele>
        <time>2013-03-10T14:55:49Z</time>
      </trkpt>
      <trkpt lat="43.4898" lon="3.74272">
        <ele>187.1</ele>
        <time>2013-03-10T14:55:50Z</time>
      </trkpt>
      <trkpt lat="43.4898" lon="3.74251">
        <ele>185.4</ele>
        <time>2013-03-10T14:56:03Z</time>
      </trkpt>
      <trkpt lat="43.48983" lon="3.7424">
        <ele>184.4</ele>
        <time>2013-03-10T14:56:10Z</time>
      </trkpt>
      <trkpt lat="43.48986" lon="3.74229">
        <ele>183.7</ele>
        <time>2013-03-10T14:56:17Z</time>
      </trkpt>
      <trkpt lat="43.48989" lon="3.74219">
        <ele>183.6</ele>
        <time>2013-03-10T14:56:23Z</time>
      </trkpt>
      <trkpt lat="43.48994" lon="3.74209">
        <ele>182.2</ele>
        <time>2013-03-10T14:56:30Z</time>
      </trkpt>
      <trkpt lat="43.49" lon="3.74201">
        <ele>181.3</ele>
        <time>2013-03-10T14:56:37Z</time>
      </trkpt>
      <trkpt lat="43.49008" lon="3.74195">
        <ele>181.2</ele>
        <time>2013-03-10T14:56:44Z</time>
      </trkpt>
      <trkpt lat="43.49016" lon="3.7419">
        <ele>181.6</ele>
        <time>2013-03-10T14:56:51Z</time>
      </trkpt>
      <trkpt lat="43.49017" lon="3.74189">
        <ele>181.6</ele>
        <time>2013-03-10T14:56:52Z</time>
      </trkpt>
      <trkpt lat="43.4903" lon="3.74179">
        <ele>179.8</ele>
        <time>2013-03-10T14:57:05Z</time>
      </trkpt>
      <trkpt lat="43.49038" lon="3.74174">
        <ele>179.3</ele>
        <time>2013-03-10T14:57:12Z</time>
      </trkpt>
      <trkpt lat="43.49039" lon="3.74162">
        <ele>177.5</ele>
        <time>2013-03-10T14:57:20Z</time>
      </trkpt>
      <trkpt lat="43.49037" lon="3.74151">
        <ele>176.6</ele>
        <time>2013-03-10T14:57:28Z</time>
      </trkpt>
      <trkpt lat="43.49034" lon="3.74141">
        <ele>175.7</ele>
        <time>2013-03-10T14:57:35Z</time>
      </trkpt>
      <trkpt lat="43.4903" lon="3.7413">
        <ele>174.5</ele>
        <time>2013-03-10T14:57:42Z</time>
      </trkpt>
      <trkpt lat="43.49028" lon="3.74119">
        <ele>174.3</ele>
        <time>2013-03-10T14:57:49Z</time>
      </trkpt>
      <trkpt lat="43.49028" lon="3.74108">
        <ele>173.8</ele>
        <time>2013-03-10T14:57:56Z</time>
      </trkpt>
      <trkpt lat="43.49028" lon="3.74106">
        <ele>173.8</ele>
        <time>2013-03-10T14:57:57Z</time>
      </trkpt>
      <trkpt lat="43.49028" lon="3.74085">
        <ele>174.2</ele>
        <time>2013-03-10T14:58:10Z</time>
      </trkpt>
      <trkpt lat="43.49028" lon="3.74073">
        <ele>173.6</ele>
        <time>2013-03-10T14:58:18Z</time>
      </trkpt>
      <trkpt lat="43.49029" lon="3.74061">
        <ele>173.6</ele>
        <time>2013-03-10T14:58:26Z</time>
      </trkpt>
      <trkpt lat="43.49028" lon="3.74049">
        <ele>172.4</ele>
        <time>2013-03-10T14:58:34Z</time>
      </trkpt>
      <trkpt lat="43.49026" lon="3.74038">
        <ele>171.1</ele>
        <time>2013-03-10T14:58:41Z</time>
      </trkpt>
      <trkpt lat="43.49024" lon="3.74027">
        <ele>171.3</ele>
        <time>2013-03-10T14:58:48Z</time>
      </trkpt>
      <trkpt lat="43.49023" lon="3.74015">
        <ele>170</ele>
        <time>2013-03-10T14:58:58Z</time>
      </trkpt>
      <trkpt lat="43.49023" lon="3.74014">
        <ele>169.9</ele>
        <time>2013-03-10T14:58:59Z</time>
      </trkpt>
      <trkpt lat="43.49021" lon="3.73991">
        <ele>168</ele>
        <time>2013-03-10T14:59:24Z</time>
      </trkpt>
      <trkpt lat="43.49022" lon="3.7398">
        <ele>167.1</ele>
        <time>2013-03-10T14:59:32Z</time>
      </trkpt>
      <trkpt lat="43.4902" lon="3.73969">
        <ele>165.7</ele>
        <time>2013-03-10T14:59:39Z</time>
      </trkpt>
      <trkpt lat="43.49019" lon="3.73957">
        <ele>165.9</ele>
        <time>2013-03-10T14:59:46Z</time>
      </trkpt>
      <trkpt lat="43.49021" lon="3.73945">
        <ele>163.9</ele>
        <time>2013-03-10T14:59:56Z</time>
      </trkpt>
      <trkpt lat="43.49027" lon="3.73936">
        <ele>163</ele>
        <time>2013-03-10T15:00:05Z</time>
      </trkpt>
      <trkpt lat="43.49027" lon="3.73935">
        <ele>162.8</ele>
        <time>2013-03-10T15:00:06Z</time>
      </trkpt>
      <trkpt lat="43.49033" lon="3.73917">
        <ele>161.2</ele>
        <time>2013-03-10T15:00:18Z</time>
      </trkpt>
      <trkpt lat="43.49037" lon="3.73907">
        <ele>161</ele>
        <time>2013-03-10T15:00:25Z</time>
      </trkpt>
      <trkpt lat="43.4904" lon="3.73896">
        <ele>160.5</ele>
        <time>2013-03-10T15:00:32Z</time>
      </trkpt>
      <trkpt lat="43.49045" lon="3.73885">
        <ele>159.9</ele>
        <time>2013-03-10T15:00:40Z</time>
      </trkpt>
      <trkpt lat="43.49046" lon="3.73874">
        <ele>159.5</ele>
        <time>2013-03-10T15:00:49Z</time>
      </trkpt>
      <trkpt lat="43.49046" lon="3.73861">
        <ele>159.3</ele>
        <time>2013-03-10T15:00:58Z</time>
      </trkpt>
      <trkpt lat="43.4905" lon="3.73851">
        <ele>159.6</ele>
        <time>2013-03-10T15:01:05Z</time>
      </trkpt>
      <trkpt lat="43.49053" lon="3.73841">
        <ele>159</ele>
        <time>2013-03-10T15:01:12Z</time>
      </trkpt>
      <trkpt lat="43.49053" lon="3.7384">
        <ele>158.9</ele>
        <time>2013-03-10T15:01:13Z</time>
      </trkpt>
      <trkpt lat="43.4906" lon="3.7382">
        <ele>157.9</ele>
        <time>2013-03-10T15:01:32Z</time>
      </trkpt>
      <trkpt lat="43.49065" lon="3.73811">
        <ele>157.5</ele>
        <time>2013-03-10T15:01:39Z</time>
      </trkpt>
      <trkpt lat="43.49068" lon="3.73802">
        <ele>158.6</ele>
        <time>2013-03-10T15:01:46Z</time>
      </trkpt>
      <trkpt lat="43.49072" lon="3.73792">
        <ele>159.8</ele>
        <time>2013-03-10T15:01:52Z</time>
      </trkpt>
      <trkpt lat="43.49077" lon="3.73783">
        <ele>159.4</ele>
        <time>2013-03-10T15:02:00Z</time>
      </trkpt>
      <trkpt lat="43.49085" lon="3.73777">
        <ele>158.1</ele>
        <time>2013-03-10T15:02:08Z</time>
      </trkpt>
      <trkpt lat="43.49093" lon="3.73773">
        <ele>160.6</ele>
        <time>2013-03-10T15:02:15Z</time>
      </trkpt>
      <trkpt lat="43.49094" lon="3.73772">
        <ele>160.5</ele>
        <time>2013-03-10T15:02:16Z</time>
      </trkpt>
      <trkpt lat="43.49106" lon="3.7376">
        <ele>159.5</ele>
        <time>2013-03-10T15:02:40Z</time>
      </trkpt>
      <trkpt lat="43.49113" lon="3.73752">
        <ele>160.5</ele>
        <time>2013-03-10T15:02:50Z</time>
      </trkpt>
      <trkpt lat="43.4912" lon="3.73745">
        <ele>160.1</ele>
        <time>2013-03-10T15:02:59Z</time>
      </trkpt>
      <trkpt lat="43.49126" lon="3.73738">
        <ele>160.5</ele>
        <time>2013-03-10T15:03:06Z</time>
      </trkpt>
      <trkpt lat="43.49134" lon="3.73733">
        <ele>157.5</ele>
        <time>2013-03-10T15:03:13Z</time>
      </trkpt>
      <trkpt lat="43.49143" lon="3.73731">
        <ele>161.6</ele>
        <time>2013-03-10T15:03:19Z</time>
      </trkpt>
      <trkpt lat="43.49145" lon="3.73731">
        <ele>161.5</ele>
        <time>2013-03-10T15:03:20Z</time>
      </trkpt>
      <trkpt lat="43.49158" lon="3.7372">
        <ele>159.9</ele>
        <time>2013-03-10T15:03:34Z</time>
      </trkpt>
      <trkpt lat="43.49164" lon="3.73711">
        <ele>158.6</ele>
        <time>2013-03-10T15:03:41Z</time>
      </trkpt>
      <trkpt lat="43.49161" lon="3.737">
        <ele>156.8</ele>
        <time>2013-03-10T15:03:54Z</time>
      </trkpt>
      <trkpt lat="43.49156" lon="3.73691">
        <ele>153.9</ele>
        <time>2013-03-10T15:04:08Z</time>
      </trkpt>
      <trkpt lat="43.49158" lon="3.73679">
        <ele>151.9</ele>
        <time>2013-03-10T15:04:22Z</time>
      </trkpt>
      <trkpt lat="43.49158" lon="3.73678">
        <ele>151.5</ele>
        <time>2013-03-10T15:04:23Z</time>
      </trkpt>
      <trkpt lat="43.49161" lon="3.73657">
        <ele>142.4</ele>
        <time>2013-03-10T15:05:08Z</time>
      </trkpt>
      <trkpt lat="43.49164" lon="3.73645">
        <ele>137.9</ele>
        <time>2013-03-10T15:05:36Z</time>
      </trkpt>
      <trkpt lat="43.49164" lon="3.73644">
        <ele>137.6</ele>
        <time>2013-03-10T15:05:37Z</time>
      </trkpt>
      <trkpt lat="43.49157" lon="3.73624">
        <ele>129.2</ele>
        <time>2013-03-10T15:06:14Z</time>
      </trkpt>
      <trkpt lat="43.49159" lon="3.73612">
        <ele>124.8</ele>
        <time>2013-03-10T15:06:33Z</time>
      </trkpt>
      <trkpt lat="43.49155" lon="3.73602">
        <ele>122.2</ele>
        <time>2013-03-10T15:06:47Z</time>
      </trkpt>
      <trkpt lat="43.49154" lon="3.73601">
        <ele>122.1</ele>
        <time>2013-03-10T15:06:48Z</time>
      </trkpt>
      <trkpt lat="43.49147" lon="3.73582">
        <ele>114.4</ele>
        <time>2013-03-10T15:07:14Z</time>
      </trkpt>
      <trkpt lat="43.49138" lon="3.7358">
        <ele>113.7</ele>
        <time>2013-03-10T15:07:53Z</time>
      </trkpt>
      <trkpt lat="43.49138" lon="3.7358">
        <ele>113.4</ele>
        <time>2013-03-10T15:07:54Z</time>
      </trkpt>
      <trkpt lat="43.49124" lon="3.7357">
        <ele>108.4</ele>
        <time>2013-03-10T15:08:35Z</time>
      </trkpt>
      <trkpt lat="43.4912" lon="3.73561">
        <ele>106.6</ele>
        <time>2013-03-10T15:08:44Z</time>
      </trkpt>
      <trkpt lat="43.49116" lon="3.7355">
        <ele>106.8</ele>
        <time>2013-03-10T15:08:53Z</time>
      </trkpt>
      <trkpt lat="43.49124" lon="3.73552">
        <ele>107.8</ele>
        <time>2013-03-10T15:09:45Z</time>
      </trkpt>
      <trkpt lat="43.49124" lon="3.73552">
        <ele>107.8</ele>
        <time>2013-03-10T15:09:46Z</time>
      </trkpt>
      <trkpt lat="43.49118" lon="3.73542">
        <ele>105.8</ele>
        <time>2013-03-10T15:12:04Z</time>
      </trkpt>
      <trkpt lat="43.49109" lon="3.7354">
        <ele>106.1</ele>
        <time>2013-03-10T15:13:16Z</time>
      </trkpt>
      <trkpt lat="43.49121" lon="3.73523">
        <ele>106.8</ele>
        <time>2013-03-10T15:13:58Z</time>
      </trkpt>
      <trkpt lat="43.49127" lon="3.73514">
        <ele>107.5</ele>
        <time>2013-03-10T15:14:07Z</time>
      </trkpt>
      <trkpt lat="43.49132" lon="3.73504">
        <ele>109</ele>
        <time>2013-03-10T15:14:16Z</time>
      </trkpt>
      <trkpt lat="43.49137" lon="3.73495">
        <ele>109.6</ele>
        <time>2013-03-10T15:14:25Z</time>
      </trkpt>
      <trkpt lat="43.49138" lon="3.73494">
        <ele>109.7</ele>
        <time>2013-03-10T15:14:26Z</time>
      </trkpt>
      <trkpt lat="43.49147" lon="3.73476">
        <ele>111.4</ele>
        <time>2013-03-10T15:14:42Z</time>
      </trkpt>
      <trkpt lat="43.49152" lon="3.73468">
        <ele>111.3</ele>
        <time>2013-03-10T15:14:52Z</time>
      </trkpt>
      <trkpt lat="43.49159" lon="3.7346">
        <ele>111.1</ele>
        <time>2013-03-10T15:14:59Z</time>
      </trkpt>
      <trkpt lat="43.49163" lon="3.73451">
        <ele>112.1</ele>
        <time>2013-03-10T15:15:08Z</time>
      </trkpt>
      <trkpt lat="43.49168" lon="3.73442">
        <ele>113.6</ele>
        <time>2013-03-10T15:15:17Z</time>
      </trkpt>
      <trkpt lat="43.49168" lon="3.7343">
        <ele>114.9</ele>
        <time>2013-03-10T15:15:30Z</time>
      </trkpt>
      <trkpt lat="43.49168" lon="3.73429">
        <ele>115</ele>
        <time>2013-03-10T15:15:31Z</time>
      </trkpt>
      <trkpt lat="43.49176" lon="3.73409">
        <ele>117.3</ele>
        <time>2013-03-10T15:16:26Z</time>
      </trkpt>
      <trkpt lat="43.4918" lon="3.73399">
        <ele>119</ele>
        <time>2013-03-10T15:16:37Z</time>
      </trkpt>
      <trkpt lat="43.4918" lon="3.73398">
        <ele>118.7</ele>
        <time>2013-03-10T15:16:38Z</time>
      </trkpt>
      <trkpt lat="43.49183" lon="3.73375">
        <ele>122.9</ele>
        <time>2013-03-10T15:17:07Z</time>
      </trkpt>
      <trkpt lat="43.49187" lon="3.73365">
        <ele>122.8</ele>
        <time>2013-03-10T15:17:18Z</time>
      </trkpt>
      <trkpt lat="43.4919" lon="3.73354">
        <ele>123.8</ele>
        <time>2013-03-10T15:17:28Z</time>
      </trkpt>
      <trkpt lat="43.49187" lon="3.73342">
        <ele>125.3</ele>
        <time>2013-03-10T15:17:43Z</time>
      </trkpt>
      <trkpt lat="43.49187" lon="3.73342">
        <ele>125.2</ele>
        <time>2013-03-10T15:17:44Z</time>
      </trkpt>
      <trkpt lat="43.49176" lon="3.73324">
        <ele>128.9</ele>
        <time>2013-03-10T15:18:12Z</time>
      </trkpt>
      <trkpt lat="43.49167" lon="3.73321">
        <ele>132.4</ele>
        <time>2013-03-10T15:18:33Z</time>
      </trkpt>
      <trkpt lat="43.49165" lon="3.73309">
        <ele>133.2</ele>
        <time>2013-03-10T15:18:45Z</time>
      </trkpt>
      <trkpt lat="43.49164" lon="3.73309">
        <ele>133.5</ele>
        <time>2013-03-10T15:18:46Z</time>
      </trkpt>
      <trkpt lat="43.49156" lon="3.73289">
        <ele>138.2</ele>
        <time>2013-03-10T15:19:25Z</time>
      </trkpt>
      <trkpt lat="43.49155" lon="3.73278">
        <ele>138.6</ele>
        <time>2013-03-10T15:19:35Z</time>
      </trkpt>
      <trkpt lat="43.49151" lon="3.73267">
        <ele>139.7</ele>
        <time>2013-03-10T15:19:47Z</time>
      </trkpt>
      <trkpt lat="43.49151" lon="3.73266">
        <ele>139.3</ele>
        <time>2013-03-10T15:19:48Z</time>
      </trkpt>
      <trkpt lat="43.49139" lon="3.73251">
        <ele>141.8</ele>
        <time>2013-03-10T15:20:14Z</time>
      </trkpt>
      <trkpt lat="43.49131" lon="3.73244">
        <ele>142.4</ele>
        <time>2013-03-10T15:20:26Z</time>
      </trkpt>
      <trkpt lat="43.49123" lon="3.73239">
        <ele>144.1</ele>
        <time>2013-03-10T15:20:39Z</time>
      </trkpt>
      <trkpt lat="43.49116" lon="3.73234">
        <ele>143.9</ele>
        <time>2013-03-10T15:20:53Z</time>
      </trkpt>
      <trkpt lat="43.49115" lon="3.73233">
        <ele>143.1</ele>
        <time>2013-03-10T15:20:54Z</time>
      </trkpt>
      <trkpt lat="43.49101" lon="3.73219">
        <ele>144.6</ele>
        <time>2013-03-10T15:21:27Z</time>
      </trkpt>
      <trkpt lat="43.49094" lon="3.73216">
        <ele>147.5</ele>
        <time>2013-03-10T15:21:40Z</time>
      </trkpt>
      <trkpt lat="43.49085" lon="3.73219">
        <ele>148.8</ele>
        <time>2013-03-10T15:21:49Z</time>
      </trkpt>
      <trkpt lat="43.49078" lon="3.73223">
        <ele>150.6</ele>
        <time>2013-03-10T15:21:59Z</time>
      </trkpt>
      <trkpt lat="43.49077" lon="3.73223">
        <ele>150.8</ele>
        <time>2013-03-10T15:22:00Z</time>
      </trkpt>
      <trkpt lat="43.49064" lon="3.73236">
        <ele>154</ele>
        <time>2013-03-10T15:22:19Z</time>
      </trkpt>
      <trkpt lat="43.49062" lon="3.73248">
        <ele>155.5</ele>
        <time>2013-03-10T15:22:29Z</time>
      </trkpt>
      <trkpt lat="43.49062" lon="3.7326">
        <ele>155.5</ele>
        <time>2013-03-10T15:22:37Z</time>
      </trkpt>
      <trkpt lat="43.49061" lon="3.73272">
        <ele>156.1</ele>
        <time>2013-03-10T15:22:45Z</time>
      </trkpt>
      <trkpt lat="43.4906" lon="3.73284">
        <ele>156.9</ele>
        <time>2013-03-10T15:22:54Z</time>
      </trkpt>
      <trkpt lat="43.49061" lon="3.73296">
        <ele>158.4</ele>
        <time>2013-03-10T15:23:04Z</time>
      </trkpt>
      <trkpt lat="43.4906" lon="3.73297">
        <ele>158.6</ele>
        <time>2013-03-10T15:23:05Z</time>
      </trkpt>
      <trkpt lat="43.49059" lon="3.73318">
        <ele>161.3</ele>
        <time>2013-03-10T15:23:22Z</time>
      </trkpt>
      <trkpt lat="43.49057" lon="3.73329">
        <ele>161.7</ele>
        <time>2013-03-10T15:23:30Z</time>
      </trkpt>
      <trkpt lat="43.49052" lon="3.73338">
        <ele>162.2</ele>
        <time>2013-03-10T15:23:39Z</time>
      </trkpt>
      <trkpt lat="43.49044" lon="3.73343">
        <ele>163.3</ele>
        <time>2013-03-10T15:23:48Z</time>
      </trkpt>
      <trkpt lat="43.49035" lon="3.73341">
        <ele>165.3</ele>
        <time>2013-03-10T15:23:58Z</time>
      </trkpt>
      <trkpt lat="43.49028" lon="3.73334">
        <ele>164.3</ele>
        <time>2013-03-10T15:24:09Z</time>
      </trkpt>
      <trkpt lat="43.49028" lon="3.73334">
        <ele>165.4</ele>
        <time>2013-03-10T15:24:10Z</time>
      </trkpt>
      <trkpt lat="43.49019" lon="3.73315">
        <ele>171.1</ele>
        <time>2013-03-10T15:24:40Z</time>
      </trkpt>
      <trkpt lat="43.49015" lon="3.73304">
        <ele>172</ele>
        <time>2013-03-10T15:24:52Z</time>
      </trkpt>
      <trkpt lat="43.4901" lon="3.73296">
        <ele>171.9</ele>
        <time>2013-03-10T15:25:01Z</time>
      </trkpt>
      <trkpt lat="43.49003" lon="3.73289">
        <ele>173.8</ele>
        <time>2013-03-10T15:25:10Z</time>
      </trkpt>
      <trkpt lat="43.49002" lon="3.73288">
        <ele>174.4</ele>
        <time>2013-03-10T15:25:11Z</time>
      </trkpt>
      <trkpt lat="43.48989" lon="3.73278">
        <ele>173.8</ele>
        <time>2013-03-10T15:25:24Z</time>
      </trkpt>
      <trkpt lat="43.48982" lon="3.73272">
        <ele>177.3</ele>
        <time>2013-03-10T15:25:33Z</time>
      </trkpt>
      <trkpt lat="43.48976" lon="3.73265">
        <ele>177.8</ele>
        <time>2013-03-10T15:25:42Z</time>
      </trkpt>
      <trkpt lat="43.48969" lon="3.73259">
        <ele>179.2</ele>
        <time>2013-03-10T15:25:51Z</time>
      </trkpt>
      <trkpt lat="43.48962" lon="3.73253">
        <ele>180.1</ele>
        <time>2013-03-10T15:26:01Z</time>
      </trkpt>
      <trkpt lat="43.48955" lon="3.73246">
        <ele>181</ele>
        <time>2013-03-10T15:26:10Z</time>
      </trkpt>
      <trkpt lat="43.48948" lon="3.73239">
        <ele>181.9</ele>
        <time>2013-03-10T15:26:20Z</time>
      </trkpt>
      <trkpt lat="43.48948" lon="3.73238">
        <ele>182.1</ele>
        <time>2013-03-10T15:26:21Z</time>
      </trkpt>
      <trkpt lat="43.48934" lon="3.73226">
        <ele>185.5</ele>
        <time>2013-03-10T15:26:41Z</time>
      </trkpt>
      <trkpt lat="43.48928" lon="3.73217">
        <ele>185.8</ele>
        <time>2013-03-10T15:26:52Z</time>
      </trkpt>
      <trkpt lat="43.4892" lon="3.73212">
        <ele>187.5</ele>
        <time>2013-03-10T15:27:01Z</time>
      </trkpt>
      <trkpt lat="43.48913" lon="3.73206">
        <ele>186.7</ele>
        <time>2013-03-10T15:27:11Z</time>
      </trkpt>
      <trkpt lat="43.48907" lon="3.73198">
        <ele>189.8</ele>
        <time>2013-03-10T15:27:21Z</time>
      </trkpt>
      <trkpt lat="43.48906" lon="3.73198">
        <ele>189.7</ele>
        <time>2013-03-10T15:27:22Z</time>
      </trkpt>
      <trkpt lat="43.48907" lon="3.732">
        <ele>189.7</ele>
        <time>2013-03-10T15:28:28Z</time>
      </trkpt>
      <trkpt lat="43.48908" lon="3.73201">
        <ele>189.4</ele>
        <time>2013-03-10T15:28:29Z</time>
      </trkpt>
      <trkpt lat="43.48922" lon="3.7321">
        <ele>188.4</ele>
        <time>2013-03-10T15:28:47Z</time>
      </trkpt>
      <trkpt lat="43.4893" lon="3.73215">
        <ele>187.5</ele>
        <time>2013-03-10T15:28:56Z</time>
      </trkpt>
      <trkpt lat="43.48938" lon="3.73219">
        <ele>186.7</ele>
        <time>2013-03-10T15:29:05Z</time>
      </trkpt>
      <trkpt lat="43.48946" lon="3.73224">
        <ele>186.7</ele>
        <time>2013-03-10T15:29:14Z</time>
      </trkpt>
      <trkpt lat="43.48955" lon="3.73229">
        <ele>185.4</ele>
        <time>2013-03-10T15:29:24Z</time>
      </trkpt>
      <trkpt lat="43.48963" lon="3.73232">
        <ele>185.2</ele>
        <time>2013-03-10T15:29:35Z</time>
      </trkpt>
      <trkpt lat="43.48964" lon="3.73232">
        <ele>184.9</ele>
        <time>2013-03-10T15:29:36Z</time>
      </trkpt>
      <trkpt lat="43.48979" lon="3.73225">
        <ele>183.4</ele>
        <time>2013-03-10T15:29:51Z</time>
      </trkpt>
      <trkpt lat="43.48983" lon="3.73215">
        <ele>184.5</ele>
        <time>2013-03-10T15:30:09Z</time>
      </trkpt>
      <trkpt lat="43.48982" lon="3.73203">
        <ele>184</ele>
        <time>2013-03-10T15:30:18Z</time>
      </trkpt>
      <trkpt lat="43.48981" lon="3.73192">
        <ele>183.5</ele>
        <time>2013-03-10T15:30:26Z</time>
      </trkpt>
      <trkpt lat="43.4898" lon="3.73181">
        <ele>183.5</ele>
        <time>2013-03-10T15:30:34Z</time>
      </trkpt>
      <trkpt lat="43.4898" lon="3.73169">
        <ele>182.5</ele>
        <time>2013-03-10T15:30:41Z</time>
      </trkpt>
      <trkpt lat="43.48981" lon="3.73167">
        <ele>182.5</ele>
        <time>2013-03-10T15:30:42Z</time>
      </trkpt>
      <trkpt lat="43.48982" lon="3.73146">
        <ele>181.1</ele>
        <time>2013-03-10T15:30:56Z</time>
      </trkpt>
      <trkpt lat="43.48982" lon="3.73135">
        <ele>180.2</ele>
        <time>2013-03-10T15:31:04Z</time>
      </trkpt>
      <trkpt lat="43.4898" lon="3.73124">
        <ele>179.8</ele>
        <time>2013-03-10T15:31:12Z</time>
      </trkpt>
      <trkpt lat="43.48974" lon="3.73116">
        <ele>179.3</ele>
        <time>2013-03-10T15:31:21Z</time>
      </trkpt>
      <trkpt lat="43.48968" lon="3.73107">
        <ele>178.7</ele>
        <time>2013-03-10T15:31:31Z</time>
      </trkpt>
      <trkpt lat="43.48961" lon="3.73099">
        <ele>177.4</ele>
        <time>2013-03-10T15:31:39Z</time>
      </trkpt>
      <trkpt lat="43.48955" lon="3.73091">
        <ele>176.5</ele>
        <time>2013-03-10T15:31:47Z</time>
      </trkpt>
      <trkpt lat="43.48954" lon="3.7309">
        <ele>176.8</ele>
        <time>2013-03-10T15:31:48Z</time>
      </trkpt>
      <trkpt lat="43.48941" lon="3.73077">
        <ele>175.5</ele>
        <time>2013-03-10T15:32:03Z</time>
      </trkpt>
      <trkpt lat="43.48934" lon="3.7307">
        <ele>175</ele>
        <time>2013-03-10T15:32:11Z</time>
      </trkpt>
      <trkpt lat="43.48928" lon="3.73064">
        <ele>174.2</ele>
        <time>2013-03-10T15:32:18Z</time>
      </trkpt>
      <trkpt lat="43.48921" lon="3.73056">
        <ele>173.4</ele>
        <time>2013-03-10T15:32:28Z</time>
      </trkpt>
      <trkpt lat="43.48914" lon="3.73049">
        <ele>172.7</ele>
        <time>2013-03-10T15:32:37Z</time>
      </trkpt>
      <trkpt lat="43.48908" lon="3.7304">
        <ele>172.3</ele>
        <time>2013-03-10T15:32:48Z</time>
      </trkpt>
      <trkpt lat="43.48907" lon="3.73039">
        <ele>172.2</ele>
        <time>2013-03-10T15:32:49Z</time>
      </trkpt>
      <trkpt lat="43.48893" lon="3.73028">
        <ele>170.5</ele>
        <time>2013-03-10T15:33:02Z</time>
      </trkpt>
      <trkpt lat="43.48884" lon="3.73027">
        <ele>169.5</ele>
        <time>2013-03-10T15:33:09Z</time>
      </trkpt>
      <trkpt lat="43.48876" lon="3.73024">
        <ele>168.6</ele>
        <time>2013-03-10T15:33:17Z</time>
      </trkpt>
      <trkpt lat="43.48868" lon="3.73025">
        <ele>167.1</ele>
        <time>2013-03-10T15:33:24Z</time>
      </trkpt>
      <trkpt lat="43.48859" lon="3.73024">
        <ele>167.9</ele>
        <time>2013-03-10T15:33:32Z</time>
      </trkpt>
      <trkpt lat="43.48852" lon="3.73028">
        <ele>167.2</ele>
        <time>2013-03-10T15:33:42Z</time>
      </trkpt>
      <trkpt lat="43.48844" lon="3.73033">
        <ele>166.6</ele>
        <time>2013-03-10T15:33:49Z</time>
      </trkpt>
      <trkpt lat="43.48843" lon="3.73033">
        <ele>166.4</ele>
        <time>2013-03-10T15:33:50Z</time>
      </trkpt>
      <trkpt lat="43.48828" lon="3.73038">
        <ele>166.2</ele>
        <time>2013-03-10T15:34:02Z</time>
      </trkpt>
      <trkpt lat="43.48822" lon="3.7303">
        <ele>164.3</ele>
        <time>2013-03-10T15:34:10Z</time>
      </trkpt>
      <trkpt lat="43.48819" lon="3.73019">
        <ele>163.8</ele>
        <time>2013-03-10T15:34:19Z</time>
      </trkpt>
      <trkpt lat="43.48818" lon="3.73008">
        <ele>163.3</ele>
        <time>2013-03-10T15:34:25Z</time>
      </trkpt>
      <trkpt lat="43.48817" lon="3.72997">
        <ele>163.3</ele>
        <time>2013-03-10T15:34:32Z</time>
      </trkpt>
      <trkpt lat="43.48816" lon="3.72985">
        <ele>160.4</ele>
        <time>2013-03-10T15:34:40Z</time>
      </trkpt>
      <trkpt lat="43.48813" lon="3.72973">
        <ele>162</ele>
        <time>2013-03-10T15:34:48Z</time>
      </trkpt>
      <trkpt lat="43.48812" lon="3.72961">
        <ele>159.7</ele>
        <time>2013-03-10T15:34:56Z</time>
      </trkpt>
      <trkpt lat="43.48811" lon="3.7296">
        <ele>159.3</ele>
        <time>2013-03-10T15:34:57Z</time>
      </trkpt>
      <trkpt lat="43.48806" lon="3.72938">
        <ele>160</ele>
        <time>2013-03-10T15:35:11Z</time>
      </trkpt>
      <trkpt lat="43.48803" lon="3.72927">
        <ele>157.8</ele>
        <time>2013-03-10T15:35:17Z</time>
      </trkpt>
      <trkpt lat="43.488" lon="3.72917">
        <ele>156.7</ele>
        <time>2013-03-10T15:35:23Z</time>
      </trkpt>
      <trkpt lat="43.48797" lon="3.72907">
        <ele>156.5</ele>
        <time>2013-03-10T15:35:29Z</time>
      </trkpt>
      <trkpt lat="43.48792" lon="3.72898">
        <ele>156.1</ele>
        <time>2013-03-10T15:35:35Z</time>
      </trkpt>
      <trkpt lat="43.48785" lon="3.72891">
        <ele>155.2</ele>
        <time>2013-03-10T15:35:42Z</time>
      </trkpt>
      <trkpt lat="43.48778" lon="3.72886">
        <ele>154.9</ele>
        <time>2013-03-10T15:35:48Z</time>
      </trkpt>
      <trkpt lat="43.4877" lon="3.72883">
        <ele>153.9</ele>
        <time>2013-03-10T15:35:54Z</time>
      </trkpt>
      <trkpt lat="43.48762" lon="3.72881">
        <ele>154.2</ele>
        <time>2013-03-10T15:36:00Z</time>
      </trkpt>
      <trkpt lat="43.48761" lon="3.72881">
        <ele>154.1</ele>
        <time>2013-03-10T15:36:01Z</time>
      </trkpt>
      <trkpt lat="43.48745" lon="3.72875">
        <ele>153.2</ele>
        <time>2013-03-10T15:36:14Z</time>
      </trkpt>
      <trkpt lat="43.48738" lon="3.72869">
        <ele>152</ele>
        <time>2013-03-10T15:36:21Z</time>
      </trkpt>
      <trkpt lat="43.48735" lon="3.72859">
        <ele>151.2</ele>
        <time>2013-03-10T15:36:30Z</time>
      </trkpt>
      <trkpt lat="43.48738" lon="3.72848">
        <ele>150.8</ele>
        <time>2013-03-10T15:36:38Z</time>
      </trkpt>
      <trkpt lat="43.48742" lon="3.72838">
        <ele>150.3</ele>
        <time>2013-03-10T15:36:45Z</time>
      </trkpt>
      <trkpt lat="43.48743" lon="3.72835">
        <ele>149.7</ele>
        <time>2013-03-10T15:36:47Z</time>
      </trkpt>
      <trkpt lat="43.48744" lon="3.72834">
        <ele>149.5</ele>
        <time>2013-03-10T15:36:48Z</time>
      </trkpt>
    </trkseg>
  </trk>
</gpx>